GEFSSGP_con_prob3kmehi_018.txt.gz
EHI
0 0 0 0 4 8 5 1 0 0 0 0 0 0 0 0 0 0 0 8 14 7 3 14 19 11 2 0 0 0 0 0 0 0 0 0 0 0 0 0 0 0 0 0 0 0 0 0 0
0 0 0 0 2 3 2 0 0 0 0 0 0 0 0 0 0 0 0 6 10 5 2 12 20 13 2 0 0 0 0 0 0 0 0 0 0 0 0 0 0 0 0 0 0 0 0 0 0
0 0 0 0 0 0 0 0 0 0 0 0 0 0 0 0 0 0 0 3 5 3 1 12 21 15 3 0 0 0 0 0 0 0 0 0 0 0 0 0 0 0 0 0 0 0 0 0 0
0 0 0 0 0 0 0 0 0 0 0 0 0 0 0 0 0 0 1 3 3 1 1 10 19 14 4 1 0 0 0 0 0 0 0 0 0 0 0 0 0 0 0 0 0 0 0 0 0
0 0 0 0 0 0 0 0 0 0 0 0 0 0 0 0 0 1 1 3 4 4 3 9 16 13 4 1 0 0 0 0 0 0 0 0 0 0 0 0 0 0 0 0 0 0 0 0 0
0 0 0 0 0 0 0 0 0 0 0 0 0 0 0 0 0 1 1 2 6 11 11 10 11 9 3 1 0 0 0 0 0 0 0 0 0 0 0 0 0 0 0 0 0 0 0 0 0
0 0 0 0 0 0 0 0 0 0 0 0 0 0 0 0 0 1 1 2 8 21 23 11 4 3 1 0 0 0 0 0 0 0 0 0 0 0 0 0 0 0 0 0 0 1 1 1 1
0 0 0 0 0 0 0 0 0 0 0 0 0 0 0 0 0 1 2 3 10 28 33 16 1 0 0 0 0 0 0 0 0 0 0 0 0 0 0 1 1 1 1 2 3 4 5 6 7
0 0 0 0 0 0 0 0 0 0 0 0 1 2 2 1 1 2 3 6 15 36 46 26 7 4 2 0 0 0 0 0 0 0 0 0 0 0 5 15 23 25 23 23 23 22 18 14 11
0 0 0 0 0 0 0 0 0 0 0 0 3 8 9 6 3 3 5 14 32 52 57 42 27 20 8 3 4 3 0 0 0 0 3 5 3 0 11 37 60 64 59 50 43 35 25 13 7
0 0 0 0 0 0 0 0 0 0 0 0 4 12 16 13 8 6 8 27 58 70 63 56 55 50 27 13 16 11 4 3 4 4 10 18 15 7 17 52 82 88 78 57 41 33 23 10 3
0 0 0 0 0 0 0 0 0 0 0 0 4 11 17 18 14 10 11 36 74 85 70 68 78 80 61 43 39 32 19 18 23 27 29 37 40 27 31 61 86 88 78 61 46 43 37 23 14
0 0 0 0 0 0 0 0 0 0 0 0 2 6 11 14 17 21 26 49 82 92 81 79 90 95 89 80 72 62 51 45 50 59 63 62 63 56 58 76 90 84 71 67 69 68 64 53 40
0 0 0 0 0 0 0 0 0 0 0 0 0 2 5 9 18 34 51 70 86 93 90 89 95 99 99 98 94 86 77 69 68 80 88 85 80 80 84 90 94 87 71 69 81 84 80 71 61
0 0 0 0 0 0 0 0 0 0 0 0 0 0 6 14 22 38 63 80 88 91 94 95 95 98 100 100 98 92 79 69 75 88 96 96 94 95 97 97 96 92 84 83 87 88 82 71 61
0 0 0 0 0 0 0 0 0 0 0 0 0 2 15 33 38 43 62 80 87 91 96 96 93 96 100 100 98 89 74 69 80 92 97 99 99 100 99 97 95 96 97 96 91 85 78 70 63
0 0 0 0 0 0 0 0 0 0 0 0 1 6 22 44 56 62 74 83 88 93 98 97 96 97 100 100 99 92 82 80 86 93 95 96 97 99 99 98 97 98 99 97 90 84 81 76 72
0 0 0 0 0 0 0 0 0 0 0 1 5 13 26 44 64 80 86 87 89 94 98 99 99 100 100 100 100 97 93 90 92 94 94 95 96 98 99 99 99 100 99 97 93 90 87 83 79
0 0 0 0 0 0 0 0 0 0 0 2 10 25 38 52 70 80 80 80 86 94 98 99 100 100 100 100 100 100 97 95 94 94 95 97 97 98 98 98 98 99 98 98 97 96 93 87 82
0 0 0 0 0 0 0 0 0 0 1 6 16 30 44 56 63 60 56 61 72 82 88 92 96 99 99 100 99 99 99 98 95 93 95 96 96 96 96 96 96 96 96 96 96 95 91 83 77
0 0 0 0 0 0 0 0 0 1 6 13 18 23 30 37 37 33 31 34 42 49 56 66 80 90 95 96 97 97 98 97 95 93 93 94 95 94 94 95 95 95 94 93 91 87 82 74 68
0 0 0 0 0 0 0 0 0 4 12 19 17 14 12 12 12 12 12 12 13 15 20 31 49 68 81 88 91 94 95 95 95 95 95 96 96 94 93 93 92 91 89 86 81 76 70 60 53
0 0 0 0 0 0 0 0 1 6 14 18 14 7 3 2 1 2 2 2 2 1 3 11 26 45 62 72 77 81 85 87 90 93 95 97 97 94 90 85 81 77 73 68 61 55 47 36 29
0 0 0 0 0 0 0 0 0 3 8 11 8 3 1 0 0 0 0 0 0 0 0 5 19 37 49 54 56 62 71 76 79 84 89 92 93 90 81 70 62 55 49 41 33 26 19 12 8
0 0 0 0 0 0 0 0 0 1 2 3 2 1 1 0 0 0 0 0 0 0 0 5 20 39 47 45 44 51 59 63 66 72 78 83 85 82 71 55 43 36 26 19 13 7 4 1 0
0 0 0 0 0 0 0 0 0 0 0 0 0 0 0 0 0 0 0 0 0 0 2 8 25 41 46 40 40 45 48 48 51 58 62 68 72 71 59 41 29 23 14 8 4 2 0 0 0
0 0 0 0 0 0 0 0 0 0 0 0 0 0 0 0 0 0 0 0 0 1 5 12 25 36 35 29 28 30 30 31 34 38 41 45 51 49 38 26 18 14 9 4 3 1 0 0 0
0 0 0 0 0 0 0 0 0 0 0 0 0 0 0 0 0 0 0 0 0 2 6 11 18 23 21 16 13 13 13 14 17 19 19 23 26 23 18 13 9 7 5 2 1 0 0 0 0
0 0 0 0 0 0 0 0 0 0 0 0 0 0 0 0 0 0 0 0 0 1 4 8 11 12 10 7 4 3 3 3 5 6 7 9 10 8 6 4 3 2 2 0 0 0 0 0 0
0 0 0 0 0 0 0 0 0 0 0 0 0 0 0 0 0 0 0 0 0 1 2 5 8 8 6 3 2 1 0 0 1 1 2 4 4 2 1 1 1 1 0 0 0 0 0 0 0

GEFSSGP_con_prob3kmehi_024.txt.gz
EHI
0 0 0 0 0 0 0 0 0 0 0 0 0 0 0 0 0 0 0 0 0 1 5 28 57 60 38 16 4 0 0 0 0 0 0 0 0 0 0 0 0 0 0 0 0 0 0 0 0
0 0 0 0 0 0 0 0 0 0 0 0 0 0 0 0 0 0 0 0 1 2 6 29 62 71 52 27 9 1 0 0 0 0 0 0 0 0 0 0 0 0 0 0 0 0 0 0 0
0 0 0 0 0 0 0 0 0 0 0 0 0 0 0 0 0 0 0 0 2 4 11 38 72 83 70 46 20 5 0 0 0 0 0 0 0 0 0 0 0 0 0 0 0 0 0 0 0
0 0 0 0 0 0 0 0 0 0 0 0 0 0 0 0 0 0 0 0 1 5 20 51 79 89 82 64 39 15 3 0 0 0 0 0 0 0 0 0 0 0 0 0 0 0 0 0 0
0 0 0 0 0 0 0 0 0 0 0 0 0 0 0 1 2 1 0 0 2 9 28 59 84 93 91 81 63 36 13 2 0 0 0 0 0 0 0 0 0 0 0 0 0 0 0 0 0
0 0 0 0 0 0 0 0 0 0 0 0 0 0 0 1 2 1 0 0 2 11 32 59 82 93 96 93 82 59 29 7 0 0 0 0 0 0 0 0 0 0 0 0 0 0 0 0 0
0 0 0 0 0 0 0 0 0 0 0 0 0 0 0 0 1 1 0 0 1 8 24 46 65 81 89 92 88 72 43 15 2 0 0 0 0 0 0 0 0 0 0 0 0 0 0 0 0
0 0 0 0 0 0 0 0 0 0 1 1 1 0 0 0 0 2 5 6 5 4 10 24 40 56 66 72 74 67 46 22 6 0 0 0 0 0 0 0 0 1 1 0 0 0 1 1 1
0 0 0 0 0 0 0 0 0 1 4 5 3 1 0 0 2 8 18 24 19 11 9 15 25 35 41 44 47 46 36 21 8 2 1 1 0 0 0 0 0 1 1 1 1 2 2 2 2
0 0 0 0 0 0 0 0 0 2 5 7 6 3 1 0 3 12 28 41 38 24 16 17 23 27 26 23 21 20 17 11 5 2 2 1 0 0 0 0 0 1 1 2 3 5 4 3 3
0 0 0 0 0 0 0 0 0 1 2 4 6 4 1 0 2 10 25 43 48 36 22 17 21 22 17 10 6 5 4 3 1 1 1 1 0 0 0 0 0 0 2 4 7 8 6 4 4
0 0 0 0 0 0 0 0 0 0 0 2 4 3 1 0 1 5 16 35 50 44 27 16 15 15 9 3 1 1 1 0 0 0 0 0 0 0 0 0 0 2 8 15 18 15 10 6 4
0 0 0 0 0 0 0 0 0 0 1 3 5 4 1 1 1 3 12 32 51 50 32 19 15 11 6 3 2 1 0 0 0 0 0 0 1 1 1 1 2 8 20 32 36 28 17 9 5
0 0 0 0 0 0 0 0 0 0 2 6 9 8 7 7 7 9 18 37 53 54 43 31 25 17 13 15 18 16 14 14 13 8 4 4 8 12 13 11 11 20 35 47 51 42 28 16 10
0 0 0 0 0 0 0 0 0 0 3 9 18 24 25 25 24 26 35 50 61 63 61 53 43 36 33 39 46 46 44 43 39 27 18 20 28 36 40 37 35 41 51 57 58 52 40 29 22
0 0 0 0 0 0 0 0 0 0 5 16 32 46 54 55 54 55 61 69 74 76 78 75 68 62 61 65 71 71 68 62 50 35 28 34 46 59 68 69 66 66 66 63 58 53 45 36 30
0 0 0 0 0 0 0 0 0 0 7 23 42 63 77 80 80 82 84 86 87 88 88 87 86 84 82 83 83 79 71 57 40 28 22 26 38 56 75 84 83 80 76 70 60 50 41 35 30
0 0 0 0 0 0 0 0 0 1 9 26 48 71 86 90 89 90 89 87 85 83 83 84 84 83 80 79 76 70 60 46 33 22 14 11 16 33 57 72 78 79 75 70 59 46 38 34 31
0 0 0 0 0 0 0 0 0 1 8 26 52 74 86 87 83 80 75 68 63 59 61 65 65 59 53 50 48 44 39 34 28 21 15 12 11 18 32 47 58 65 65 60 53 46 42 38 35
0 0 0 0 0 0 0 0 0 0 6 23 48 68 76 74 66 59 50 41 34 31 34 40 38 31 25 22 19 18 18 17 18 17 16 18 20 21 24 30 38 46 52 52 48 45 43 38 33
0 0 0 0 0 0 0 0 0 0 3 16 35 48 53 50 41 33 25 19 15 14 18 23 22 17 16 13 8 6 6 6 7 8 10 13 18 22 23 25 28 33 40 45 42 40 37 32 28
0 0 0 0 0 0 0 0 0 0 1 8 17 24 26 23 18 13 9 7 7 8 13 19 20 20 18 14 9 4 2 1 1 1 2 4 7 12 14 18 21 25 29 31 30 29 27 24 22
0 0 0 0 0 0 0 0 0 0 0 3 6 7 7 5 4 2 2 3 4 6 10 17 23 25 23 18 10 5 2 0 0 0 0 0 1 2 5 9 14 18 19 17 16 17 16 15 14
0 0 0 0 0 0 0 0 0 0 0 0 1 1 1 0 0 0 0 1 2 3 6 12 20 23 22 17 10 5 2 1 0 0 0 0 0 1 2 4 6 8 10 9 8 8 7 6 6
0 0 0 0 0 0 0 0 0 0 0 0 0 0 0 0 0 0 0 0 0 0 3 8 14 15 14 12 7 3 2 1 0 0 0 0 0 1 2 2 2 3 4 5 4 2 1 1 1
0 0 0 0 0 0 0 0 0 0 0 0 0 0 0 0 0 0 0 0 0 0 3 6 8 8 8 7 5 3 1 0 0 0 0 0 0 0 1 1 0 1 1 2 1 0 0 0 0
0 0 0 0 0 0 0 0 0 0 0 0 0 0 0 0 0 0 0 0 0 0 1 3 3 3 4 4 3 3 2 0 0 0 0 0 0 0 0 0 0 0 0 0 0 0 0 0 0
0 0 0 0 0 0 0 0 0 0 0 0 0 0 0 0 0 0 0 0 0 0 0 1 1 1 1 1 1 2 1 0 0 0 0 0 0 0 0 0 0 0 0 0 0 0 0 0 0
0 0 0 0 0 0 0 0 0 0 0 0 0 0 0 0 0 0 0 0 0 0 0 0 1 1 0 0 0 0 0 0 0 0 0 0 0 0 0 0 0 0 0 0 0 0 0 0 0
0 0 0 0 0 0 0 0 0 0 0 0 0 0 0 0 0 0 0 0 0 0 0 1 2 2 1 0 0 0 0 0 0 0 0 0 0 0 0 0 0 0 0 0 0 0 0 0 0

GEFSSGP_con_prob3kmehi_030.txt.gz
EHI
0 0 0 0 0 0 0 0 0 0 0 0 0 0 0 0 0 0 0 0 0 0 0 0 1 1 0 0 0 1 2 2 2 2 2 1 1 0 0 0 0 0 0 0 0 0 0 0 0
0 0 0 0 0 0 0 0 0 0 0 0 0 0 0 0 0 0 0 0 0 0 0 1 3 3 2 1 1 0 1 1 1 2 3 2 2 1 0 0 0 0 0 0 0 0 0 0 0
0 0 0 0 0 0 0 0 0 0 0 0 0 0 0 0 0 0 0 0 0 0 0 2 6 9 7 5 5 5 3 1 1 2 2 3 3 2 1 0 0 0 0 0 0 0 0 0 0
0 0 0 0 0 0 0 0 0 0 0 0 0 0 0 0 0 0 0 0 0 0 0 4 11 14 12 12 15 16 10 5 2 1 1 1 2 1 1 0 0 0 0 0 0 0 0 0 0
0 0 0 0 0 0 0 0 0 0 0 0 0 0 0 0 0 0 0 0 0 0 0 7 19 24 23 24 28 28 21 11 5 2 1 0 0 0 0 0 0 0 0 0 0 0 0 0 0
0 0 0 0 0 0 0 0 0 0 0 0 0 0 0 0 0 0 0 0 0 1 2 9 23 32 34 36 37 37 31 19 8 3 1 0 0 0 0 0 0 0 0 0 0 0 0 0 0
0 0 0 0 0 0 0 0 0 0 0 0 0 0 0 0 0 0 0 0 0 3 7 13 21 30 36 38 40 42 38 25 13 5 2 0 0 0 0 0 0 0 0 0 0 0 0 0 0
0 0 0 0 0 0 0 0 0 0 0 0 0 0 0 0 0 0 0 0 0 3 9 17 23 30 35 40 44 47 44 33 21 11 5 2 1 0 0 0 0 0 0 0 0 0 0 0 0
0 0 0 0 0 0 0 0 0 0 0 0 0 0 0 0 0 0 0 0 0 1 6 14 24 33 41 46 50 52 50 42 30 19 11 6 3 1 0 0 0 0 0 0 0 0 0 0 0
0 0 0 0 0 0 0 0 0 0 0 0 0 1 2 2 1 0 0 0 0 0 2 7 15 26 38 45 47 47 47 44 36 25 17 10 4 1 1 0 0 0 0 0 0 0 0 0 0
0 0 0 0 0 0 0 0 0 0 0 0 1 5 8 5 1 0 0 0 0 0 1 2 7 14 22 29 30 31 33 34 32 24 16 9 4 2 1 0 0 0 0 0 0 0 0 0 0
0 0 0 0 0 0 0 0 0 0 0 0 3 10 14 8 2 0 0 0 0 0 0 1 2 5 8 10 11 14 18 20 20 16 10 7 5 3 2 0 0 0 0 0 0 0 0 1 1
0 0 0 0 0 0 0 0 0 0 0 0 3 10 13 7 1 0 1 1 2 2 0 0 1 1 2 2 2 4 7 8 8 6 5 6 6 4 2 0 0 0 0 0 1 1 2 3 5
0 0 0 0 0 0 0 0 0 0 1 1 4 6 7 4 1 0 1 3 6 5 3 1 0 1 2 2 1 0 1 2 2 2 2 4 5 4 1 0 0 0 1 1 1 2 3 5 7
0 0 0 0 0 0 0 0 0 2 4 6 8 11 12 10 7 6 4 7 12 14 10 6 3 3 5 4 2 1 0 0 0 0 1 1 2 2 1 0 0 1 4 5 4 3 4 5 6
0 0 0 0 0 0 0 0 1 5 11 16 20 25 29 28 26 22 17 16 21 24 19 13 9 7 7 6 4 2 2 3 3 3 2 2 1 2 2 2 2 3 6 8 6 6 8 9 8
0 0 0 0 0 0 0 0 2 10 21 28 32 38 44 48 49 45 39 33 31 28 22 17 13 11 10 7 6 7 9 11 12 12 10 7 6 6 7 8 8 8 9 11 12 16 19 19 18
0 0 0 0 0 0 0 0 3 12 23 29 34 42 55 62 62 59 54 46 36 27 20 17 14 12 11 10 10 12 14 15 15 15 12 10 8 6 8 11 13 14 14 16 21 26 28 29 29
0 0 0 0 0 0 0 0 3 7 14 19 24 38 57 65 60 55 52 44 32 22 15 12 10 9 8 9 10 11 10 8 7 6 6 5 4 3 4 7 10 12 14 18 23 27 29 31 32
0 0 0 0 0 0 0 0 1 2 5 10 18 33 50 54 46 38 33 28 21 12 7 5 5 4 3 4 5 5 3 1 0 0 0 0 0 0 1 2 4 5 9 12 16 19 21 24 25
0 0 0 0 0 0 0 0 0 0 3 9 17 27 35 35 27 18 13 11 8 4 2 2 3 2 2 2 2 1 1 0 0 0 0 0 0 0 0 0 0 1 4 7 9 10 11 12 13
0 0 0 0 0 0 0 0 0 0 1 6 12 16 17 16 10 5 3 2 1 1 0 1 2 3 3 3 3 1 0 0 0 0 0 0 0 0 0 0 0 0 1 3 4 5 6 5 5
0 0 0 0 0 0 0 0 0 0 0 2 4 5 5 4 2 1 1 0 0 0 0 0 1 1 1 2 1 0 0 0 0 0 0 0 0 0 0 0 0 0 0 0 1 2 4 4 2
0 0 0 0 0 0 0 0 0 0 0 0 0 1 1 1 0 0 0 0 0 0 0 0 0 0 0 0 0 0 0 0 0 0 0 0 0 0 0 0 0 0 0 0 0 1 1 1 1
0 0 0 0 0 0 0 0 0 0 0 0 0 0 0 0 0 0 0 0 0 0 0 0 0 0 0 0 0 0 0 0 0 0 0 0 0 0 0 0 0 0 0 0 0 0 0 0 0
0 0 0 0 0 0 0 0 0 0 0 0 0 0 0 0 0 0 0 0 0 0 0 0 0 0 0 0 0 0 0 0 0 0 0 0 0 0 0 0 0 0 0 0 0 0 0 0 0
0 0 0 0 0 0 0 0 0 0 0 0 0 0 0 0 0 0 0 0 0 0 0 0 0 0 0 0 0 0 0 0 0 0 0 0 0 0 0 0 0 0 0 0 0 0 0 0 0
0 0 0 0 0 0 0 0 0 0 0 0 0 0 0 0 0 0 0 0 0 0 0 0 0 0 0 0 0 0 0 0 0 0 0 0 0 0 0 0 0 0 0 0 0 0 0 0 0
0 0 0 0 0 0 0 0 0 0 0 0 0 0 0 0 0 0 0 0 0 0 0 0 0 0 0 0 0 0 0 0 0 0 0 0 0 0 0 0 0 0 0 0 0 0 0 0 0
0 0 0 0 0 0 0 0 0 0 0 0 0 0 0 0 0 0 0 0 0 0 0 0 0 0 0 0 0 0 0 0 0 0 0 0 0 0 0 0 0 0 0 0 0 0 0 0 0

GEFSSGP_con_prob3kmehi_036.txt.gz
EHI
0 0 0 0 0 0 0 0 0 0 0 0 0 0 0 0 0 0 0 0 0 1 3 2 1 0 1 4 9 16 22 21 16 9 3 1 0 0 0 0 0 0 0 0 0 0 0 0 0
0 0 0 0 0 0 0 0 0 0 0 0 0 0 0 0 0 0 0 0 0 1 2 2 0 0 1 4 11 20 23 20 14 8 3 1 0 0 0 0 0 0 0 0 0 0 0 0 0
0 0 0 0 0 0 0 0 0 0 0 0 0 0 0 0 0 0 0 0 0 0 1 2 1 0 1 4 11 19 21 17 12 8 3 1 0 0 0 0 0 0 0 0 0 0 0 0 0
0 0 0 0 0 0 0 0 0 0 0 0 0 0 0 0 0 0 0 0 0 0 1 2 2 1 3 6 11 15 16 14 13 10 6 3 1 0 0 0 0 0 0 0 0 0 0 0 0
0 0 0 0 0 0 0 0 0 0 0 0 0 0 0 0 0 0 0 0 0 0 1 2 2 2 5 9 12 14 16 17 17 17 14 9 3 0 0 0 0 0 0 0 0 0 0 0 0
0 0 0 0 0 0 0 0 0 0 0 0 0 0 0 0 0 0 0 0 0 0 1 2 2 2 5 8 11 15 18 19 21 23 22 17 9 4 2 1 0 0 0 0 0 0 0 0 0
0 0 0 0 0 0 0 0 0 0 0 0 0 0 0 0 0 0 0 0 0 0 0 1 2 2 3 4 7 10 13 14 17 19 19 17 11 7 4 2 0 0 0 0 0 0 0 0 0
0 0 0 0 0 0 0 0 0 0 0 0 0 0 1 3 2 0 0 0 0 0 0 0 1 2 1 1 3 5 5 6 8 10 11 10 7 5 4 3 3 2 0 0 0 0 0 0 0
0 0 0 0 0 0 0 0 0 0 0 0 0 0 6 12 9 2 0 0 0 0 0 0 0 0 0 1 2 3 3 4 5 7 8 6 4 2 1 5 9 7 2 0 0 0 0 0 0
0 0 0 0 0 0 0 0 0 0 0 0 0 3 13 24 19 7 1 0 0 0 0 0 0 0 0 1 2 3 4 6 6 7 8 8 5 2 0 4 10 8 2 0 0 0 0 0 0
0 0 0 0 0 0 0 0 0 0 0 0 2 9 23 33 28 13 3 1 1 1 1 1 1 1 2 2 3 4 5 7 7 7 7 8 7 3 1 2 4 4 1 0 0 1 1 0 1
0 0 0 0 0 0 0 0 0 0 0 0 6 20 33 34 25 14 5 2 2 2 3 4 5 5 6 6 6 5 5 5 7 7 6 7 7 4 2 2 2 2 3 3 3 4 4 3 3
0 0 0 0 0 0 0 0 0 0 0 2 10 25 32 24 15 11 8 5 4 4 4 6 8 10 13 14 13 9 6 4 4 3 4 5 4 3 3 4 5 6 8 10 11 11 11 11 9
0 0 0 0 0 0 0 0 0 1 2 4 11 20 23 15 10 11 12 9 7 7 7 8 9 12 16 19 19 14 7 4 2 1 2 2 2 2 4 6 7 8 11 15 17 18 23 23 21
0 0 0 0 0 0 0 0 1 2 4 6 11 18 22 19 13 12 11 10 10 11 13 12 12 12 14 16 17 13 7 4 3 3 2 2 1 3 6 8 7 9 13 18 21 28 36 38 35
0 0 0 0 0 0 0 1 4 7 7 8 12 19 27 27 21 13 10 11 15 19 21 20 16 15 16 16 14 9 6 6 5 5 4 3 2 3 8 9 8 10 17 23 30 42 52 52 49
0 0 0 0 0 0 0 2 8 12 13 14 18 22 29 34 32 25 19 18 24 28 28 25 20 17 18 18 15 9 8 8 7 5 4 3 2 2 4 6 8 12 22 32 42 56 67 68 65
0 0 0 0 0 0 0 3 8 15 19 22 25 28 33 40 45 45 39 33 31 32 29 23 18 15 14 13 10 8 7 6 5 3 3 3 2 1 2 5 7 12 21 34 46 58 69 75 77
0 0 0 0 0 0 0 2 6 12 17 24 30 36 42 50 58 61 56 45 37 33 27 18 13 11 8 6 5 6 5 3 2 1 1 1 1 1 2 4 7 9 16 25 35 45 53 63 72
0 0 0 0 0 0 0 1 3 7 13 24 37 48 56 65 71 69 60 49 41 35 26 16 11 10 8 7 6 7 6 4 2 0 0 0 0 1 1 3 4 5 8 13 19 26 31 40 53
0 0 0 0 0 0 0 0 1 4 10 23 42 60 70 74 74 66 55 46 41 36 26 15 12 12 12 12 10 10 10 6 2 0 0 0 0 0 0 1 1 1 3 5 9 13 16 24 31
0 0 0 0 0 0 0 0 0 2 7 18 39 60 70 67 61 52 42 36 33 31 23 16 14 14 17 20 22 21 15 6 2 0 0 1 0 0 0 0 0 0 0 1 2 4 7 12 15
0 0 0 0 0 0 0 0 0 1 5 14 29 46 52 46 39 33 26 22 21 20 17 15 15 19 25 33 42 41 27 13 7 3 2 2 1 0 1 0 0 0 0 0 0 0 2 5 6
0 0 0 0 0 0 0 0 0 1 3 9 18 25 27 23 20 18 14 10 9 9 10 13 18 28 39 50 59 59 48 35 24 13 4 1 1 0 0 0 0 0 0 0 0 0 0 1 2
0 0 0 0 0 0 0 0 0 0 1 4 8 11 12 10 9 9 6 4 3 3 5 12 23 38 52 61 66 69 65 56 42 23 9 2 1 0 0 0 0 0 0 0 0 0 0 0 0
0 0 0 0 0 0 0 0 0 0 0 1 3 6 7 6 4 3 2 1 1 1 3 10 23 37 47 54 62 69 70 64 52 38 22 10 4 2 1 1 1 0 0 0 0 0 0 0 0
0 0 0 0 0 0 0 0 0 0 0 0 1 2 3 2 1 0 0 0 0 1 2 7 15 23 28 33 42 51 58 59 56 50 40 27 20 14 7 4 1 0 0 0 0 0 0 0 0
0 0 0 0 0 0 0 0 0 0 0 0 0 0 0 0 0 0 0 0 0 1 2 3 5 8 9 12 17 24 33 42 46 45 43 41 37 29 16 8 3 0 0 0 0 0 0 0 0
0 0 0 0 0 0 0 0 0 0 0 0 0 0 0 0 0 0 0 0 0 0 1 1 1 1 1 2 4 8 14 20 24 26 30 35 36 32 22 12 6 1 0 0 0 0 0 0 0
0 0 0 0 0 0 0 0 0 0 0 0 0 0 0 0 0 0 0 0 0 0 0 0 0 0 0 0 1 3 7 9 11 14 18 24 27 26 22 15 7 2 0 0 0 0 0 0 0

GEFSSGP_con_prob3kmehi_042.txt.gz
EHI
0 0 0 1 3 3 1 0 0 0 0 0 0 0 0 1 1 1 4 23 35 19 6 10 10 5 1 0 0 0 0 0 0 0 0 0 0 0 0 0 0 0 0 0 0 0 0 0 0
0 0 0 1 2 1 0 0 0 0 0 0 0 0 0 0 0 0 5 19 23 12 4 8 9 5 1 0 0 0 0 0 0 0 0 0 0 0 0 0 0 0 0 0 0 0 0 0 0
0 0 0 0 0 0 0 0 0 0 0 0 0 0 0 0 0 0 4 11 11 4 2 7 8 4 0 0 0 0 0 0 0 0 0 0 0 0 0 0 0 0 0 0 0 0 0 0 0
0 0 0 0 0 0 0 0 0 0 0 0 0 0 0 0 0 0 3 7 6 3 3 6 5 2 0 0 0 0 0 0 0 0 0 0 0 0 0 0 0 0 0 0 0 0 0 0 0
0 0 0 0 0 0 0 0 0 0 0 0 0 0 0 0 0 0 2 5 5 6 7 6 5 2 0 0 0 0 0 0 0 0 0 0 0 0 0 0 0 0 0 0 0 1 1 1 1
0 0 0 0 0 0 0 0 0 0 0 0 0 0 0 0 0 0 1 2 7 16 16 9 5 3 0 0 0 0 0 0 0 0 0 0 0 0 0 0 0 1 1 1 1 2 2 2 2
0 0 0 0 0 0 0 0 0 0 0 0 0 0 0 0 0 0 0 1 12 29 28 11 3 2 1 0 0 0 0 0 0 0 0 0 0 0 0 1 2 3 3 2 2 2 2 2 2
0 0 0 0 0 0 0 0 0 0 0 0 0 0 0 0 0 0 0 1 13 33 32 12 2 2 2 1 1 1 1 0 0 0 0 0 0 2 7 11 11 8 7 7 7 6 4 4 4
0 0 0 0 0 0 0 0 0 0 0 0 2 2 1 0 0 0 0 0 9 27 29 14 9 9 3 4 7 5 2 1 2 3 5 5 2 4 14 25 28 27 27 27 26 21 14 8 6
0 0 0 0 0 0 0 0 0 0 1 3 7 9 7 4 2 1 1 3 11 23 23 19 25 23 10 13 20 12 7 14 15 15 20 22 15 7 14 33 48 54 55 50 44 35 23 11 5
0 0 0 0 0 0 0 0 0 0 2 5 10 16 18 15 11 6 5 13 25 26 17 23 42 41 21 21 30 20 21 37 42 38 42 47 38 22 18 37 62 72 70 61 50 43 31 15 7
0 0 0 0 0 0 0 0 0 0 1 4 9 18 28 30 21 13 16 33 46 36 20 30 56 60 42 34 35 31 33 50 60 63 66 68 65 49 39 50 67 74 72 66 58 54 45 28 17
0 0 0 0 0 0 0 0 0 0 0 2 7 17 28 31 27 26 38 58 65 49 34 46 71 80 70 57 51 43 44 53 65 75 82 83 83 74 63 67 73 71 68 65 63 62 58 47 38
0 0 0 0 0 0 0 0 0 0 0 1 6 12 17 21 28 44 64 77 76 64 58 68 84 93 91 82 71 58 54 60 65 75 82 83 84 80 74 73 73 69 61 56 54 57 60 57 51
0 0 0 0 0 0 0 0 1 1 0 1 3 6 11 16 28 53 75 83 81 78 81 84 87 94 97 93 83 66 55 58 66 71 72 70 68 66 63 62 62 63 59 52 49 52 56 54 50
0 0 0 0 0 0 0 1 2 2 1 1 3 6 15 25 34 51 74 83 84 89 95 91 87 93 97 92 80 61 51 54 59 60 60 57 49 43 43 43 46 51 52 48 46 48 50 48 45
0 0 0 0 0 0 1 2 3 3 3 2 4 10 24 39 46 57 74 84 89 95 98 95 93 96 94 83 67 52 48 50 45 43 47 43 31 25 24 26 29 33 38 38 35 38 41 42 41
0 0 0 0 0 0 1 2 3 3 3 5 10 22 39 54 62 69 78 85 91 94 96 97 97 95 87 72 56 46 42 37 29 29 35 29 17 12 11 12 14 17 20 23 25 26 27 28 31
0 0 0 0 0 0 1 2 2 3 5 11 22 39 54 64 72 80 84 85 88 89 90 91 90 84 75 65 54 47 40 26 16 23 30 22 10 6 5 3 4 6 8 11 14 16 15 15 18
0 0 0 0 0 0 0 1 2 4 10 20 35 50 63 71 77 81 81 79 81 82 80 79 76 69 63 60 52 47 41 25 17 27 37 30 16 9 5 2 1 1 2 4 5 6 7 8 10
0 0 0 0 0 0 0 1 4 11 20 32 45 56 67 74 73 70 66 65 67 70 68 67 68 63 60 57 50 46 42 34 31 41 53 48 31 19 12 6 3 1 1 1 1 3 4 5 6
0 0 0 0 0 0 0 1 8 19 30 40 50 57 65 70 66 58 51 50 52 54 58 64 69 67 64 61 59 57 55 51 53 61 69 64 47 33 24 17 12 7 3 1 0 1 3 3 4
0 0 0 0 0 0 0 1 9 22 32 38 44 51 58 61 58 49 43 42 42 44 52 62 70 71 70 71 73 73 72 73 74 76 79 74 63 52 42 34 27 20 12 4 1 0 1 2 3
0 0 0 0 0 0 0 0 8 22 32 33 36 43 49 49 44 37 32 31 32 34 41 52 63 67 69 72 75 76 80 84 83 82 84 81 74 68 61 53 46 35 23 13 6 3 2 2 2
0 0 0 0 0 0 0 2 12 26 33 33 33 34 35 32 27 22 19 17 17 18 22 32 42 48 51 53 58 63 70 75 77 77 80 80 76 74 73 69 60 45 31 21 14 9 5 3 2
0 0 0 0 0 0 1 8 21 28 27 25 23 20 16 13 11 9 8 7 5 5 6 11 16 20 22 24 30 39 46 51 57 61 66 70 70 70 72 71 64 51 36 26 18 12 7 5 3
0 0 0 0 0 0 2 10 21 23 17 11 10 7 4 2 2 2 2 2 1 1 1 1 2 3 4 5 10 15 20 24 30 37 44 52 55 57 59 61 59 51 38 28 20 12 7 5 4
0 0 0 0 0 0 1 7 18 22 13 5 3 2 0 0 0 0 0 0 0 0 0 0 0 0 0 1 2 3 5 7 9 14 21 28 33 36 39 42 44 42 35 26 19 11 5 3 2
0 0 0 0 0 0 0 5 17 21 11 3 1 0 0 0 0 0 0 0 0 0 0 0 0 0 0 0 0 0 1 1 1 2 5 8 12 16 19 23 26 26 23 20 15 8 3 1 1
0 0 0 0 0 0 0 6 17 17 8 3 1 0 0 0 0 0 0 0 0 0 0 0 0 0 0 0 0 0 0 0 0 0 0 1 3 5 8 13 15 14 14 16 14 7 1 0 0

GEFSSGP_con_prob3kmehi_048.txt.gz
EHI
0 0 0 0 0 0 0 0 0 0 0 0 0 0 0 0 0 0 0 1 12 28 37 44 50 39 20 8 2 0 0 0 0 0 0 0 0 0 0 0 0 0 0 0 0 0 0 0 0
0 0 0 0 0 0 0 0 0 0 0 0 0 0 0 0 0 0 0 3 18 35 41 50 59 48 27 12 4 1 0 0 0 0 0 0 0 0 0 0 0 0 0 0 0 0 0 0 0
0 0 0 0 0 0 0 0 0 0 0 0 0 0 0 0 0 0 0 7 24 38 45 61 72 60 38 20 7 1 0 0 0 0 0 0 0 0 0 0 0 0 0 0 0 0 0 0 0
0 0 0 0 0 0 0 0 0 0 0 0 0 0 0 2 4 3 2 9 25 36 48 68 82 72 50 29 12 3 0 0 0 0 0 0 0 0 0 0 0 0 0 0 0 0 0 0 0
0 0 0 0 0 0 0 0 0 0 0 0 0 0 0 5 10 7 3 8 24 40 51 69 85 81 61 38 19 7 2 0 0 0 0 0 0 0 0 0 0 0 0 0 0 0 0 0 0
0 0 0 0 0 0 0 0 0 0 0 0 0 0 1 7 12 7 2 5 20 41 53 63 76 77 64 45 28 14 5 1 0 0 0 0 0 0 0 0 0 0 0 0 0 0 0 0 0
0 0 0 0 0 0 0 0 0 0 0 0 0 0 1 6 9 5 0 2 13 31 46 54 57 57 50 40 29 17 8 2 0 0 0 0 0 0 0 0 0 0 0 0 0 0 0 0 0
0 0 0 0 0 0 0 0 0 0 1 1 0 0 1 5 10 11 10 8 8 15 29 40 40 35 28 23 19 13 7 3 1 0 0 0 0 0 0 0 0 0 0 0 0 0 0 0 0
0 0 0 0 0 0 0 0 0 1 3 3 2 0 1 7 17 27 34 30 18 11 14 23 28 24 15 10 8 6 4 2 1 0 0 0 0 0 0 0 0 0 0 0 1 2 2 0 0
0 0 0 0 0 0 0 0 0 2 5 6 4 2 4 10 23 40 55 58 42 23 11 11 17 18 12 6 3 2 1 1 0 0 0 0 0 0 0 0 0 0 0 0 2 4 4 2 2
0 0 0 0 0 0 0 0 0 2 4 6 6 5 6 12 21 38 59 72 65 41 17 8 10 13 9 4 1 0 0 0 0 0 0 0 0 0 0 0 0 0 0 0 2 4 6 5 6
0 0 0 0 0 0 0 0 0 1 3 5 5 4 6 10 15 26 47 69 75 57 29 12 9 8 6 2 0 0 1 1 2 1 1 1 1 1 1 0 0 1 1 1 2 4 6 7 7
0 0 0 0 0 0 0 1 1 1 3 5 5 4 6 7 8 14 32 58 75 67 45 25 14 10 7 5 5 5 6 7 7 6 5 6 5 3 1 0 0 1 1 1 2 3 5 5 4
0 0 0 0 0 0 1 2 2 3 6 9 10 12 13 12 11 14 26 50 69 70 59 46 33 24 22 22 22 20 17 14 13 11 11 13 12 6 3 1 1 0 0 0 1 1 2 2 1
0 0 0 0 0 0 1 3 4 7 13 16 18 24 27 27 26 25 32 48 62 66 65 61 51 42 43 47 47 42 34 26 20 17 16 17 16 11 5 3 1 0 0 0 0 0 0 0 0
0 0 0 0 0 1 2 4 6 12 20 24 28 34 39 39 40 39 41 49 53 55 58 59 53 48 52 58 58 54 44 32 25 22 20 19 17 13 8 4 1 0 0 0 0 0 0 0 0
0 0 0 0 0 1 3 5 8 15 24 31 37 44 46 47 48 47 47 47 45 43 43 44 42 43 47 50 49 46 38 27 20 18 17 16 15 12 7 3 1 0 0 0 0 0 0 0 0
0 0 0 0 0 2 3 6 9 17 27 36 46 54 57 54 49 45 44 42 38 34 31 30 30 34 35 33 30 29 24 17 10 8 8 8 8 6 3 1 0 0 0 0 0 0 0 0 0
0 0 0 0 0 1 4 7 10 16 26 36 47 57 59 53 43 36 32 31 30 27 22 20 21 22 22 19 17 16 14 9 5 3 2 2 2 2 1 0 0 0 0 0 0 0 0 0 0
0 0 0 0 0 1 4 7 9 14 22 31 41 47 47 40 32 25 22 21 21 20 16 13 12 12 12 12 11 10 8 5 4 3 2 1 1 1 0 0 0 0 0 0 0 0 0 0 0
0 0 0 0 0 1 2 4 6 11 20 28 34 36 33 27 21 17 14 14 14 14 11 8 6 5 7 7 7 7 6 5 4 4 2 1 1 1 0 0 0 0 0 0 0 0 0 0 0
0 0 0 0 0 0 1 1 4 10 18 24 26 27 24 18 13 10 8 7 7 7 6 3 2 1 2 2 3 5 5 4 4 4 4 3 1 1 1 0 0 0 0 0 0 0 0 0 0
0 0 0 0 0 0 0 0 2 7 13 15 15 15 13 9 6 4 3 2 2 2 1 0 0 0 0 0 1 3 3 2 2 3 4 4 1 0 1 0 0 0 0 0 0 0 0 0 0
0 0 0 0 0 0 0 0 0 4 8 9 8 6 4 3 1 0 0 0 0 0 0 0 0 0 0 0 0 1 1 0 0 1 3 2 1 0 1 1 1 1 1 0 0 0 0 0 0
0 0 0 0 0 0 0 0 0 2 5 5 3 3 2 1 0 0 0 0 0 0 0 0 0 0 0 0 0 0 0 0 0 0 1 1 0 0 1 2 2 2 1 0 0 0 0 0 0
0 0 0 0 0 0 0 0 0 2 3 2 1 1 1 0 0 0 0 0 0 0 0 0 0 0 0 0 0 0 0 0 0 0 0 0 0 0 1 1 1 1 1 0 0 0 0 0 0
0 0 0 0 0 0 0 0 0 1 2 1 1 0 0 0 0 0 0 0 0 0 0 0 0 0 0 0 0 0 0 0 0 0 0 0 0 0 0 0 0 0 0 0 0 0 0 0 0
0 0 0 0 0 0 0 0 0 0 1 1 0 0 0 0 0 0 0 0 0 0 0 0 0 0 0 0 0 0 0 0 0 0 0 0 0 0 0 0 0 0 0 0 0 0 0 0 0
0 0 0 0 0 0 0 0 0 0 0 0 0 0 0 0 0 0 0 0 0 0 0 0 0 0 0 0 0 0 0 0 0 0 0 0 0 0 0 0 0 0 0 0 0 0 0 0 0
0 0 0 0 0 0 0 0 0 0 0 0 0 0 0 0 0 0 0 0 0 0 0 0 0 0 0 0 0 0 0 0 0 0 0 0 0 0 0 0 0 0 0 0 0 0 0 0 0

GEFSSGP_con_prob3kmehi_054.txt.gz
EHI
0 0 0 0 0 0 0 0 0 0 0 0 0 0 0 0 0 0 0 0 1 1 1 1 4 5 4 3 2 2 4 7 7 6 4 2 1 0 0 0 0 0 0 0 0 0 0 0 0
0 0 0 0 0 0 0 0 0 0 0 0 0 0 0 0 0 0 0 0 1 2 2 4 10 11 8 5 3 2 3 4 5 4 2 1 0 0 0 0 0 0 0 0 0 0 0 0 0
0 0 0 0 0 0 0 0 0 0 0 0 0 0 0 0 0 0 0 0 2 4 5 13 25 27 21 14 9 5 3 3 3 2 1 0 0 0 0 0 0 0 0 0 0 0 0 0 0
0 0 0 0 0 0 0 0 0 0 0 0 0 0 0 0 0 0 0 2 7 11 13 28 49 52 43 35 24 15 8 5 4 3 1 0 0 0 0 0 0 0 0 0 0 0 0 0 0
0 0 0 0 0 0 0 0 0 0 0 0 0 0 0 0 0 1 2 5 17 28 31 46 70 75 65 57 45 29 16 9 5 3 2 0 0 0 0 0 0 0 0 0 0 0 0 0 0
0 0 0 0 0 0 0 0 0 0 0 0 0 0 0 0 0 1 4 9 26 47 56 66 81 84 77 70 59 42 26 13 6 3 1 0 0 0 0 0 0 0 0 0 0 0 0 0 0
0 0 0 0 0 0 0 0 0 0 0 0 0 0 0 0 1 3 7 14 32 57 72 78 82 82 77 71 61 48 32 17 8 4 2 1 0 0 0 0 0 0 0 0 0 0 0 0 0
0 0 0 0 0 0 0 0 0 0 0 0 0 0 1 4 7 10 16 25 39 57 71 77 76 74 70 64 55 43 29 17 8 4 2 1 0 0 0 0 0 0 0 0 0 0 0 0 0
0 0 0 0 0 0 0 0 0 0 0 0 0 1 8 19 26 26 30 39 46 53 62 68 69 68 64 57 46 34 22 12 7 3 1 1 0 0 0 0 0 0 0 0 0 0 0 0 0
0 0 0 0 0 0 0 0 0 0 0 0 1 9 28 48 50 44 40 42 43 45 52 58 60 62 60 52 41 29 18 10 6 2 0 0 0 0 0 0 0 0 0 0 0 0 0 0 0
0 0 0 0 0 0 0 0 0 0 0 0 3 20 53 73 69 56 44 37 33 36 46 52 53 54 52 45 37 28 21 15 8 2 0 0 0 0 0 0 0 0 0 0 0 0 0 0 0
0 0 0 0 0 0 0 0 0 0 0 1 6 27 60 79 75 61 48 40 33 34 42 48 49 47 41 36 30 26 23 19 11 4 1 1 0 0 0 0 0 0 0 0 0 0 1 0 0
0 0 0 0 0 1 2 1 1 1 2 5 13 29 48 62 63 57 53 50 46 41 41 44 45 42 35 28 23 21 21 19 13 7 3 2 2 1 0 0 0 0 0 0 0 0 0 0 0
0 0 0 0 0 1 3 3 3 3 6 13 23 33 40 43 46 48 50 54 55 50 42 39 41 38 31 22 16 15 15 15 14 10 5 3 2 1 0 0 0 0 0 0 1 0 0 0 0
0 0 0 0 0 1 2 4 5 8 13 22 29 36 39 39 39 40 42 48 53 47 37 34 35 31 24 17 13 12 12 12 12 9 5 2 1 0 1 1 0 0 0 0 0 0 0 0 0
0 0 0 1 1 2 3 6 9 13 20 25 29 33 36 36 35 33 33 35 38 35 29 28 27 20 13 11 10 10 10 9 7 5 3 1 1 2 2 1 1 1 1 0 0 0 0 0 0
0 0 0 1 2 2 4 7 10 14 18 22 25 27 27 26 25 24 23 23 24 24 22 20 17 11 6 5 5 6 7 6 3 1 1 2 3 4 3 1 1 1 1 0 0 0 0 0 0
0 0 0 1 1 2 4 5 7 9 11 15 18 20 19 17 16 14 15 15 16 16 15 14 12 8 4 2 1 2 3 3 2 0 0 1 3 3 2 1 0 1 1 0 0 0 0 0 0
0 0 0 0 0 1 2 3 4 4 5 8 11 12 11 11 11 10 9 8 9 9 10 10 10 7 4 3 2 1 2 2 1 0 0 0 1 1 1 1 0 0 1 0 0 0 0 0 0
0 0 0 0 0 0 1 3 3 2 2 5 7 7 7 8 8 7 5 4 3 4 5 6 5 4 3 2 2 2 1 1 0 0 0 0 0 0 0 0 0 0 0 0 0 0 0 0 0
0 0 0 0 0 0 1 1 1 1 1 3 5 5 4 5 4 3 1 1 1 1 1 2 2 2 1 1 1 1 0 0 0 0 0 0 0 0 0 0 0 0 0 0 0 0 0 0 0
0 0 0 0 0 0 0 0 0 0 0 1 2 2 1 1 1 0 0 0 0 0 0 0 1 1 0 0 0 0 0 0 0 0 0 0 0 0 0 0 0 0 0 0 0 0 0 0 0
0 0 0 0 0 0 0 0 0 0 0 0 0 0 0 0 0 0 0 0 0 0 0 0 0 0 0 0 0 0 0 0 0 0 0 0 0 0 0 0 0 0 0 0 0 0 0 0 0
0 0 0 0 0 0 0 0 0 0 0 0 0 0 0 0 0 0 0 0 0 0 0 0 0 0 0 0 0 0 0 0 0 0 0 0 0 0 0 0 0 0 0 0 0 0 0 0 0
0 0 0 0 0 0 0 0 0 0 0 0 0 0 0 0 0 0 0 0 0 0 0 0 0 0 0 0 0 0 0 0 0 0 0 0 0 0 0 0 0 0 0 0 0 0 0 0 0
0 0 0 0 0 0 0 0 0 0 0 0 0 0 0 0 0 0 0 0 0 0 0 0 0 0 0 0 0 0 0 0 0 0 0 0 0 0 0 0 0 0 0 0 0 0 0 0 0
0 0 0 0 0 0 0 0 0 0 0 0 0 0 0 0 0 0 0 0 0 0 0 0 0 0 0 0 0 0 0 0 0 0 0 0 0 0 0 0 0 0 0 0 0 0 0 0 0
0 0 0 0 0 0 0 0 0 0 0 0 0 0 0 0 0 0 0 0 0 0 0 0 0 0 0 0 0 0 0 0 0 0 0 0 0 0 0 0 0 0 0 0 0 0 0 0 0
0 0 0 0 0 0 0 0 0 0 0 0 0 0 0 0 0 0 0 0 0 0 0 0 0 0 0 0 0 0 0 0 0 0 0 0 0 0 0 0 0 0 0 0 0 0 0 0 0
0 0 0 0 0 0 0 0 0 0 0 0 0 0 0 0 0 0 0 0 0 0 0 0 0 0 0 0 0 0 0 0 0 0 0 0 0 0 0 0 0 0 0 0 0 0 0 0 0

GEFSSGP_con_prob3kmehi_060.txt.gz
EHI
0 0 0 0 0 0 0 0 0 0 0 0 0 0 0 0 0 0 0 0 3 21 38 28 8 1 0 3 7 12 16 20 26 27 18 8 3 1 0 0 0 0 0 0 0 0 0 0 0
0 0 0 0 0 0 0 0 0 0 0 0 0 0 0 0 0 0 0 0 3 18 33 27 11 2 0 4 9 14 16 20 25 24 16 7 3 1 0 0 0 0 0 0 0 0 0 0 0
0 0 0 0 0 0 0 0 0 0 0 0 0 0 0 0 0 0 0 0 4 15 29 31 17 4 0 3 9 14 16 16 17 16 11 5 2 0 0 0 0 0 0 0 0 0 0 0 0
0 0 0 0 0 0 0 0 0 0 0 0 0 0 0 0 0 0 0 1 5 12 25 33 23 7 0 1 5 10 12 10 8 7 5 2 0 0 0 0 0 0 0 0 0 0 0 0 0
0 0 0 0 0 0 0 0 0 0 0 0 0 0 0 0 0 0 0 1 5 8 20 32 27 10 3 2 3 6 8 8 6 5 4 2 1 1 1 1 1 0 0 0 0 0 0 0 0
0 0 0 0 0 0 0 0 0 0 0 0 0 0 0 1 2 1 1 2 4 5 16 29 25 11 6 4 4 6 8 9 9 9 8 5 3 2 2 2 1 0 0 0 0 0 0 0 0
0 0 0 0 0 0 0 0 0 0 0 0 0 0 2 8 11 9 6 4 2 2 10 18 15 9 7 5 6 9 11 11 12 13 12 9 6 4 3 1 0 0 0 0 0 0 0 0 0
0 0 0 0 0 0 0 0 0 0 0 1 1 2 9 24 32 28 20 11 4 2 4 7 7 5 5 5 7 10 12 12 12 13 13 11 7 4 2 1 0 0 0 0 0 0 0 0 0
0 0 0 0 0 0 0 0 0 0 0 1 3 7 21 42 54 53 43 28 16 10 6 5 5 6 5 5 7 10 13 14 14 13 15 13 8 4 2 3 3 2 0 0 0 0 0 0 0
0 0 0 0 0 0 0 1 2 1 1 3 5 12 29 51 64 68 62 51 39 30 19 14 15 17 14 11 12 14 20 24 23 21 24 23 17 10 6 7 8 4 1 0 0 0 0 0 0
0 0 0 0 0 0 0 1 4 4 4 6 8 14 27 44 59 66 67 62 56 48 35 28 34 38 33 27 23 24 31 37 36 34 36 38 34 25 17 15 12 7 4 3 3 3 1 0 0
0 0 0 0 0 0 0 1 4 6 7 8 11 16 22 32 44 54 60 60 57 52 42 39 48 55 51 43 37 35 40 45 46 46 46 48 49 39 31 28 20 14 13 12 10 6 2 1 1
0 0 0 0 0 0 1 2 5 8 9 13 20 27 29 33 41 50 56 55 52 48 43 45 54 60 58 52 45 42 42 43 45 49 49 52 54 47 40 39 30 21 18 18 14 7 3 2 2
0 0 0 0 0 0 1 2 5 7 10 16 29 40 46 49 54 60 61 54 49 47 47 51 56 58 57 52 46 42 39 35 37 42 45 47 48 47 45 43 35 25 18 14 11 6 3 3 4
0 0 0 0 0 0 1 2 5 7 9 16 29 42 52 58 61 63 61 54 48 50 53 53 52 51 51 48 43 38 32 27 27 32 35 36 38 42 45 42 34 27 18 11 9 7 6 5 6
0 0 0 0 0 0 0 2 5 5 7 15 24 34 43 49 50 50 50 47 45 47 50 48 42 41 42 43 39 31 24 20 21 24 26 28 31 35 39 37 31 25 18 12 10 9 8 7 8
0 0 0 0 0 0 1 3 5 5 9 15 21 26 30 33 34 33 33 34 35 36 36 35 32 31 31 31 28 22 16 15 15 18 21 24 26 27 28 27 23 20 19 16 12 10 9 8 8
0 0 0 0 0 0 1 3 4 5 8 12 16 18 19 21 21 20 20 22 24 25 23 23 23 22 21 19 16 13 11 10 10 13 16 17 18 17 15 14 14 15 19 18 15 11 9 8 8
0 0 0 0 0 0 1 2 3 3 6 9 11 13 14 14 13 12 12 13 16 17 17 17 16 15 14 13 11 9 7 6 6 7 10 10 10 9 6 5 7 11 15 16 14 10 8 6 6
0 0 0 0 0 0 0 1 1 1 3 7 10 12 12 10 8 6 6 6 8 10 11 11 10 9 9 9 7 5 3 3 4 4 5 6 6 5 4 4 6 9 13 13 11 9 7 3 2
0 0 0 0 0 0 0 0 0 1 2 6 8 8 8 6 4 2 1 1 2 4 4 4 4 4 3 3 2 1 1 1 2 2 3 3 3 4 4 5 6 8 11 11 10 9 6 3 1
0 0 0 0 0 0 0 1 1 1 2 4 4 3 3 3 1 0 0 0 1 1 1 1 1 1 0 0 0 0 0 0 1 1 1 1 1 1 3 3 4 6 8 9 9 7 5 3 1
0 0 0 0 0 0 0 1 2 1 1 2 2 1 0 0 0 0 0 0 0 0 0 0 0 0 0 0 0 0 0 0 0 0 0 0 0 0 1 1 2 3 4 4 5 5 5 4 3
0 0 0 0 0 0 0 1 2 1 0 1 1 0 0 0 0 0 0 0 0 0 0 0 0 0 0 0 0 0 0 0 0 0 0 0 0 0 0 1 1 1 1 1 2 3 5 6 7
0 0 0 0 0 0 0 2 3 2 1 1 0 0 0 0 0 0 0 0 0 0 0 0 0 0 0 0 0 0 0 0 0 0 0 0 0 0 0 0 0 0 0 0 1 1 2 5 6
0 0 0 0 0 0 0 1 3 2 1 1 0 0 0 0 0 0 0 0 0 0 0 0 0 0 0 0 0 0 0 0 0 0 0 0 0 0 0 0 0 0 0 0 0 0 1 2 3
0 0 0 0 0 0 0 1 1 1 1 1 0 0 0 0 0 0 0 0 0 0 0 0 0 0 0 0 0 0 0 0 0 0 0 0 0 0 0 0 0 0 0 0 0 0 0 0 1
0 0 0 0 0 0 0 0 0 1 0 0 0 0 0 0 0 0 0 0 0 0 0 0 0 0 0 0 0 0 0 0 0 0 0 0 0 0 0 0 0 0 0 0 0 0 0 0 1
0 0 0 0 0 0 0 0 0 0 0 0 0 0 0 0 0 0 0 0 0 0 0 0 0 0 0 0 0 0 0 0 0 0 0 0 0 0 0 0 0 0 0 0 0 0 0 0 1
0 0 0 0 0 0 0 0 0 0 0 0 0 0 0 0 0 0 0 0 0 0 0 0 0 0 0 0 0 0 0 0 0 0 0 0 0 0 0 0 0 0 0 0 0 0 0 0 0

GEFSSGP_con_prob3kmehi_066.txt.gz
EHI
0 0 1 2 3 6 3 1 0 0 0 0 0 0 1 1 1 0 7 37 71 63 36 35 39 28 15 10 7 3 1 0 0 0 0 0 0 0 0 0 0 0 0 0 0 0 0 0 0
0 0 1 3 5 5 2 0 0 0 0 0 0 0 1 1 0 1 12 46 68 51 26 26 33 26 14 11 9 6 2 1 1 1 0 0 0 0 0 0 0 0 0 0 0 0 0 0 0
0 0 0 3 6 3 0 0 0 0 0 0 0 0 1 0 0 3 19 50 63 42 20 23 28 23 13 10 10 9 7 5 5 3 1 0 0 0 0 0 0 0 0 0 0 0 0 0 0
0 0 0 2 3 2 0 0 0 0 0 0 0 1 1 0 1 5 21 46 54 39 25 25 26 21 12 8 9 10 10 10 10 8 4 2 1 0 1 1 0 0 0 0 0 0 0 0 0
0 0 0 0 0 0 0 0 0 0 0 0 2 4 2 1 2 5 16 32 40 39 33 28 26 21 12 6 6 8 9 10 11 10 7 5 3 2 3 4 3 2 1 0 0 0 0 0 0
0 0 0 0 0 0 0 0 0 0 0 1 5 8 5 1 1 3 9 15 28 44 45 34 27 22 14 7 4 4 5 6 8 8 7 6 5 5 7 9 10 10 7 3 1 1 0 0 0
0 0 0 0 0 0 0 0 0 0 0 1 6 10 7 2 0 1 4 6 25 52 57 38 27 22 15 8 4 2 1 3 4 5 5 4 4 6 10 15 19 17 13 9 6 4 2 1 0
0 0 0 0 0 0 0 0 0 1 2 3 6 9 7 3 1 2 3 4 23 56 61 40 27 24 16 8 4 2 1 1 2 3 4 4 4 6 9 17 23 23 19 15 12 8 5 3 2
0 0 0 0 0 0 1 1 1 3 6 9 11 11 8 5 4 5 4 4 20 51 61 46 38 31 16 11 12 9 3 2 2 4 7 9 7 5 10 23 37 40 34 26 20 17 13 8 4
0 0 0 0 0 1 2 2 2 5 10 14 17 17 13 10 9 9 7 10 23 44 51 52 56 46 23 23 30 19 11 15 11 11 19 19 12 7 14 40 62 66 55 42 34 30 23 13 6
0 0 0 0 0 1 2 4 6 8 11 15 17 20 19 18 18 18 18 26 39 41 37 50 70 64 42 41 45 30 26 38 35 30 36 36 28 20 27 56 79 80 69 55 45 38 28 15 7
0 0 0 0 0 1 3 6 10 12 15 18 21 25 27 28 31 36 41 50 58 47 34 48 75 78 65 60 57 45 43 53 56 55 57 59 55 44 44 65 82 82 73 59 49 43 33 20 12
0 0 0 0 0 1 3 7 12 16 22 31 39 44 46 47 52 60 66 72 75 64 51 58 78 86 80 74 70 62 60 63 67 72 76 77 75 65 59 68 79 79 72 63 54 49 45 35 26
0 0 0 0 0 0 1 5 10 17 28 43 57 65 68 70 74 79 83 86 86 80 73 72 80 86 84 80 73 69 70 71 71 76 80 80 79 75 68 68 71 70 67 64 60 56 56 49 39
0 0 0 0 0 0 1 4 9 16 28 46 61 69 74 78 82 86 89 91 91 88 84 80 79 81 83 78 71 67 67 67 67 68 71 72 71 69 65 60 59 61 61 62 61 59 56 47 36
0 0 0 0 0 0 1 8 17 22 31 46 55 60 64 69 73 78 81 84 86 87 86 82 78 78 77 73 68 62 57 56 57 56 56 58 58 55 50 46 47 53 54 52 51 47 41 32 25
0 0 0 0 0 1 5 16 26 30 38 46 47 46 49 52 55 60 63 66 70 76 80 78 74 71 66 61 58 54 50 49 48 45 42 43 43 40 36 33 36 41 42 38 33 29 26 20 16
0 0 0 0 0 3 9 21 28 30 34 41 40 36 37 38 39 41 42 44 49 58 64 64 63 60 56 51 50 48 45 43 39 35 32 31 30 28 25 25 27 28 28 26 21 17 16 15 13
0 0 0 0 0 3 11 20 24 25 28 32 31 28 26 26 25 25 25 26 32 40 44 45 46 47 47 46 46 44 41 36 30 25 23 20 17 17 17 18 21 21 19 17 14 12 11 11 12
0 0 0 0 0 3 10 18 22 22 23 24 21 19 17 14 12 11 11 12 17 22 24 25 29 32 35 39 40 37 35 30 22 18 17 13 8 8 10 12 13 13 12 10 9 8 5 5 6
0 0 0 0 0 3 8 14 18 18 17 14 12 12 9 6 5 4 3 4 5 7 8 12 18 21 24 27 28 26 25 22 17 15 15 11 6 5 7 7 7 7 8 8 7 6 4 2 2
0 0 0 0 0 1 3 8 13 14 11 8 6 5 4 3 4 2 1 2 2 2 5 12 19 21 20 19 19 19 17 13 12 13 14 11 7 5 5 5 5 5 5 5 6 6 6 4 3
0 0 0 0 0 0 0 4 9 11 9 7 5 3 1 1 1 1 1 3 5 6 8 17 27 30 27 23 19 16 13 10 9 10 11 9 7 4 3 3 4 3 2 2 3 4 6 6 4
0 0 0 0 0 0 0 2 6 7 7 7 5 3 1 0 0 0 1 4 9 10 11 18 30 37 37 32 24 18 15 12 9 7 6 6 4 2 1 1 2 1 0 0 1 1 2 3 2
0 0 0 0 0 0 0 1 3 4 4 3 4 3 1 0 1 1 1 3 8 10 10 15 26 34 36 32 27 22 16 11 7 3 2 2 1 0 0 1 1 1 0 0 0 0 0 0 0
0 0 0 0 0 0 1 2 3 2 1 1 2 2 1 0 1 2 1 1 2 4 5 9 17 23 24 22 20 17 11 6 2 1 0 0 0 0 0 1 2 1 0 0 0 0 0 0 0
0 0 0 0 0 0 1 3 3 1 0 0 1 1 1 0 1 1 1 0 0 0 1 4 7 10 11 10 9 7 4 1 0 0 0 0 0 0 0 0 1 0 0 0 0 0 0 0 0
0 0 0 0 0 0 1 1 1 1 0 0 0 0 0 0 0 0 0 0 0 0 0 1 2 2 2 2 2 1 1 0 0 0 0 0 0 0 0 0 0 0 0 0 0 0 0 0 0
0 0 0 0 0 0 0 0 0 0 0 0 0 0 0 0 0 0 0 0 0 0 0 0 0 0 0 0 0 1 1 0 0 0 0 0 0 0 0 0 0 0 0 0 0 0 0 0 0
0 0 0 0 0 0 0 1 1 1 0 0 0 0 0 0 0 0 0 0 0 0 0 0 0 0 0 0 0 0 1 0 0 0 0 0 0 0 0 0 0 0 0 0 0 0 0 0 0

GEFSSGP_con_prob3kmehi_072.txt.gz
EHI
0 0 0 0 0 0 0 0 0 0 0 0 0 0 0 0 1 1 3 14 33 45 45 56 76 85 76 57 37 22 11 6 4 1 0 0 0 0 0 0 0 0 0 0 0 0 0 0 0
0 0 0 0 0 0 0 0 0 0 0 0 0 0 0 0 1 2 6 18 38 47 45 54 76 87 80 62 40 23 12 6 3 1 0 0 0 0 0 0 0 0 0 0 0 0 0 0 0
0 0 0 0 0 1 1 1 0 0 0 0 0 0 0 0 2 4 10 24 39 44 43 56 78 90 85 72 50 30 16 7 4 1 0 0 0 0 0 0 0 0 0 0 0 0 0 0 0
0 0 0 0 0 1 2 2 1 0 0 0 0 0 0 5 11 15 17 24 34 38 41 57 80 91 88 79 62 41 24 13 7 3 1 0 0 0 0 0 0 0 0 0 0 0 0 0 0
0 0 0 0 0 1 2 2 1 1 1 0 0 0 1 13 30 30 19 16 29 42 45 56 78 89 87 81 69 50 34 23 14 8 4 1 0 0 1 1 0 0 0 0 0 0 0 0 0
0 0 0 0 0 0 1 1 2 4 4 2 0 0 2 16 34 31 15 10 23 42 48 54 69 80 81 77 67 52 40 31 24 16 9 4 2 2 3 3 1 0 0 0 0 0 0 0 0
0 0 0 0 0 0 1 2 5 10 11 6 1 0 2 11 23 26 19 15 21 31 38 43 52 60 64 63 57 46 37 31 26 20 14 9 7 5 7 8 5 2 1 1 1 1 0 0 0
0 0 0 0 0 0 1 3 8 16 19 13 5 2 2 8 21 33 35 30 24 21 23 27 33 38 41 42 40 35 30 27 23 18 17 15 10 6 7 10 8 6 5 6 6 5 3 2 1
0 0 0 0 0 1 2 3 8 15 20 18 13 8 9 17 32 49 56 47 31 19 14 16 21 23 25 25 24 23 21 19 15 14 16 14 8 3 3 6 8 11 14 13 14 15 12 8 4
0 0 0 0 1 2 4 6 8 13 19 21 20 19 22 32 45 58 68 60 39 21 11 9 12 15 17 17 16 14 13 10 7 7 9 8 3 0 0 2 6 14 21 22 24 27 25 19 14
0 0 0 1 2 4 6 10 15 19 24 26 29 32 37 43 49 58 68 65 48 28 16 10 9 10 10 11 13 10 7 7 6 5 5 4 2 1 1 1 5 14 25 31 35 37 35 29 24
0 0 0 1 3 5 10 18 27 32 33 35 41 47 50 51 52 57 64 65 56 42 30 24 21 19 16 16 17 14 11 11 11 9 7 7 6 4 3 3 6 16 29 40 43 41 37 32 28
0 0 0 1 4 9 18 29 39 44 45 48 54 59 61 60 59 61 64 64 61 55 52 49 46 43 40 37 33 28 23 21 17 12 11 14 14 10 7 5 8 16 27 38 41 37 33 30 27
0 0 1 2 6 13 25 38 48 52 58 64 65 65 64 62 63 66 65 63 63 65 67 67 63 59 56 50 43 37 32 27 23 16 14 19 20 17 12 8 8 12 18 26 29 27 25 24 23
0 0 1 2 5 12 27 43 51 56 65 70 67 62 58 57 61 65 65 62 62 65 67 66 61 56 51 44 36 31 28 26 23 18 14 18 22 20 15 10 7 7 10 13 15 15 15 15 15
0 0 0 1 3 10 26 42 50 55 62 63 60 54 50 50 54 57 58 56 54 54 54 53 50 45 39 32 26 22 20 19 17 13 11 14 18 17 12 7 4 4 5 6 6 7 8 9 9
0 0 0 1 4 13 29 42 46 50 52 50 46 44 41 41 43 44 46 45 41 39 40 39 38 34 30 26 21 16 14 13 11 8 7 9 11 11 6 3 1 1 1 2 3 3 3 5 6
0 0 1 1 6 20 35 41 40 39 38 34 32 31 29 28 29 29 31 31 28 27 29 29 28 26 24 21 17 12 9 8 8 6 4 4 5 5 3 1 0 0 0 1 1 1 1 1 2
0 0 1 2 7 19 31 33 27 23 22 21 19 19 17 15 14 16 17 18 18 20 22 21 19 17 16 14 11 7 4 4 4 3 3 2 2 2 1 0 0 0 0 0 0 0 0 0 0
0 0 1 1 5 13 19 19 13 10 10 10 9 9 8 6 4 5 6 8 11 14 14 11 9 7 6 5 3 2 1 1 1 1 1 1 0 0 0 0 0 0 0 0 0 0 0 0 0
0 0 0 0 2 6 9 7 4 3 4 4 4 3 2 1 0 0 1 3 5 6 5 3 2 1 1 0 1 1 0 0 0 0 0 0 0 0 0 0 0 0 0 0 0 0 0 0 0
0 0 0 0 0 1 2 2 1 0 1 2 2 1 0 0 0 0 0 1 2 1 1 1 1 1 1 1 2 1 0 0 0 0 0 0 0 0 0 0 0 0 0 0 0 0 0 0 0
0 0 0 0 0 0 0 0 0 0 0 1 1 0 0 0 0 0 0 0 0 1 1 2 2 2 3 3 3 2 0 0 0 0 0 0 0 0 0 0 0 0 0 0 0 0 0 0 0
0 0 0 0 0 0 0 0 0 0 0 0 0 0 0 0 0 0 0 0 0 0 1 2 2 2 3 5 4 2 0 0 0 0 0 0 0 0 0 0 0 0 0 0 0 0 0 0 0
0 0 0 0 0 0 0 0 0 0 0 0 0 0 0 0 0 0 0 0 0 0 0 1 1 1 2 3 3 1 0 0 0 0 0 0 0 0 0 0 0 0 0 0 0 0 0 0 0
0 0 0 0 0 0 0 0 0 0 0 0 0 0 0 0 0 0 0 0 0 0 0 0 0 0 0 1 1 0 0 0 0 0 0 0 0 0 0 0 0 0 0 0 0 0 0 0 0
0 0 0 0 0 0 0 0 0 0 0 0 0 0 0 0 0 0 0 0 0 0 0 0 0 0 0 0 0 0 0 0 0 0 0 0 0 0 0 0 0 0 0 0 0 0 0 0 0
0 0 0 0 0 0 0 0 0 0 0 0 0 0 0 0 0 0 0 0 0 0 0 0 0 0 0 0 0 0 0 0 0 0 0 0 0 0 0 0 0 0 0 0 0 0 0 0 0
0 0 0 0 0 0 0 0 0 0 0 0 0 0 0 0 0 0 0 0 0 0 0 0 0 0 0 0 0 0 0 0 0 0 0 0 0 0 0 0 0 0 0 0 0 0 0 0 0
0 0 0 0 0 0 0 0 0 0 0 0 0 0 0 0 0 0 0 0 0 0 0 0 0 0 0 0 0 0 0 0 0 0 0 0 0 0 0 0 0 0 0 0 0 0 0 0 0

GEFSSGP_con_prob3kmehi_078.txt.gz
EHI
1 1 0 0 0 0 0 0 0 0 0 0 1 2 4 2 1 0 0 5 17 24 18 25 48 63 65 65 66 66 63 62 62 62 57 45 33 22 10 2 0 0 0 0 0 0 0 0 0
1 0 0 0 0 0 0 0 0 0 0 0 0 1 3 3 1 0 0 7 20 26 20 27 51 66 66 63 60 56 51 46 45 46 42 33 22 14 7 1 0 0 0 0 0 0 0 0 0
0 0 0 0 0 0 0 0 0 0 0 0 0 0 1 2 1 0 2 12 28 32 25 32 55 70 68 62 54 45 35 29 27 26 22 16 9 5 2 0 0 0 0 0 0 0 0 0 0
0 0 0 0 0 0 0 0 0 0 0 0 1 3 3 2 0 1 6 22 39 38 29 36 57 71 71 64 53 40 28 21 19 16 11 6 2 1 0 0 0 0 0 0 0 0 0 0 0
0 0 0 0 0 0 0 0 0 0 0 0 3 8 9 4 1 3 11 27 44 44 33 37 55 69 72 68 56 40 27 19 15 12 7 3 1 0 0 0 0 0 0 0 0 0 0 0 0
0 0 0 0 0 0 0 0 0 0 0 1 5 12 12 6 2 4 12 24 38 44 37 35 47 59 66 67 57 42 28 19 14 11 7 3 1 0 0 0 1 0 0 0 0 0 0 0 0
0 0 0 0 0 0 0 0 1 2 2 2 5 11 11 6 3 5 12 21 31 38 37 32 35 42 51 57 55 44 30 21 17 13 9 5 2 1 0 0 0 0 0 0 0 0 0 0 0
0 0 0 0 0 0 0 0 2 4 4 5 6 10 13 11 9 12 17 23 29 32 31 29 29 32 37 43 47 44 34 25 19 14 10 5 2 1 0 0 0 0 0 0 0 0 0 0 0
0 0 0 0 0 0 0 1 3 6 9 13 17 23 27 24 20 23 23 23 25 26 25 26 28 29 29 31 35 37 33 26 19 12 9 5 2 0 0 0 0 0 0 0 0 0 1 1 1
0 0 0 0 0 0 1 3 7 11 17 24 35 46 47 39 33 32 27 20 19 19 19 20 23 25 26 26 26 27 26 24 17 10 7 7 5 3 2 1 0 0 0 0 1 1 2 3 4
0 0 0 0 0 0 2 7 12 19 24 31 44 57 57 49 43 39 30 20 17 17 15 14 16 19 22 22 20 20 20 19 15 10 7 9 9 7 6 5 3 2 2 2 3 3 4 7 10
0 0 0 0 0 2 8 14 21 27 32 38 49 59 58 53 49 42 31 23 18 18 15 12 14 17 18 18 17 17 17 16 13 10 9 11 10 9 9 7 5 3 3 4 4 4 6 10 12
0 0 0 1 3 9 19 26 30 35 43 52 60 61 57 52 46 38 31 27 23 20 17 13 12 13 12 13 14 14 14 13 10 9 11 12 11 11 9 6 4 2 2 3 4 4 7 11 12
0 0 0 2 6 16 31 40 38 39 50 62 65 58 51 46 41 35 31 31 28 23 20 16 12 9 8 10 11 10 9 8 7 8 9 10 11 12 10 6 2 0 1 2 3 3 6 9 9
0 0 0 1 5 15 32 44 39 36 46 57 59 54 48 44 41 36 31 28 26 24 21 18 13 10 8 8 8 7 5 4 5 6 7 7 8 9 9 6 2 1 1 2 1 2 4 6 5
0 0 0 0 1 8 24 34 30 27 35 45 48 48 47 43 39 35 28 22 20 21 18 15 13 11 9 8 6 4 2 1 3 4 4 3 4 5 6 4 2 1 1 1 0 1 3 3 2
0 0 0 0 1 6 17 23 21 21 27 32 35 38 37 33 29 26 22 17 16 16 15 13 12 11 10 8 6 3 1 0 1 2 1 1 2 3 3 1 1 0 0 0 0 0 1 1 1
0 0 0 0 1 7 16 21 18 19 23 25 25 25 24 21 17 15 14 12 11 11 11 12 12 12 10 8 5 2 0 0 0 0 0 1 2 2 1 0 0 0 0 0 0 0 0 0 0
0 0 0 0 1 6 14 16 13 14 16 17 15 14 14 13 10 8 9 8 7 8 8 9 9 8 7 4 2 1 0 0 0 0 0 1 1 0 0 0 0 0 0 0 0 0 0 0 0
0 0 0 1 2 4 9 9 7 7 8 8 8 7 7 6 5 5 6 6 6 6 6 5 4 3 2 1 0 0 0 0 0 0 0 0 0 0 0 0 0 0 0 0 0 0 0 0 0
0 0 0 0 1 2 4 4 2 2 3 4 4 3 1 1 1 1 3 3 3 3 3 2 1 0 0 0 0 0 0 0 0 0 0 0 0 0 0 0 0 0 0 0 0 0 0 0 0
0 0 0 0 0 0 1 1 0 0 1 2 2 1 0 0 0 0 1 1 1 1 1 1 0 0 0 0 0 0 0 0 0 0 0 0 0 0 0 0 0 0 0 0 0 0 0 0 0
0 0 0 0 0 0 0 0 0 0 0 0 0 0 0 0 0 0 0 0 0 0 0 0 0 0 0 0 0 0 0 0 0 0 0 0 0 0 0 0 0 0 0 0 0 0 0 0 0
0 0 0 0 0 0 0 0 0 0 0 0 0 0 0 0 0 0 0 0 0 0 0 0 0 0 0 0 0 0 0 0 0 0 0 0 0 0 0 0 0 0 0 0 0 0 0 0 0
0 0 0 0 0 0 0 0 0 0 0 0 0 0 0 0 0 0 0 0 0 0 0 0 0 0 0 0 0 0 0 0 0 0 0 0 0 0 0 0 0 0 0 0 0 0 0 0 0
0 0 0 0 0 0 0 0 0 0 0 0 0 0 0 0 0 0 0 0 0 0 0 0 0 0 0 0 0 0 0 0 0 0 0 0 0 0 0 0 0 0 0 0 0 0 0 0 0
0 0 0 0 0 0 0 0 0 0 0 0 0 0 0 0 0 0 0 0 0 0 0 0 0 0 0 0 0 0 0 0 0 0 0 0 0 0 0 0 0 0 0 0 0 0 0 0 0
0 0 0 0 0 0 0 0 0 0 0 0 0 0 0 0 0 0 0 0 0 0 0 0 0 0 0 0 0 0 0 0 0 0 0 0 0 0 0 0 0 0 0 0 0 0 0 0 0
0 0 0 0 0 0 0 0 0 0 0 0 0 0 0 0 0 0 0 0 0 0 0 0 0 0 0 0 0 0 0 0 0 0 0 0 0 0 0 0 0 0 0 0 0 0 0 0 0
0 0 0 0 0 0 0 0 0 0 0 0 0 0 0 0 0 0 0 0 0 0 0 0 0 0 0 0 0 0 0 0 0 0 0 0 0 0 0 0 0 0 0 0 0 0 0 0 0

GEFSSGP_con_prob3kmehi_084.txt.gz
EHI
0 0 0 0 0 0 0 0 0 0 0 0 0 0 0 0 0 1 4 5 5 7 7 5 2 2 7 14 24 34 40 42 45 43 36 25 14 5 2 1 0 0 0 0 0 0 0 0 0
0 0 0 0 0 0 0 0 0 0 0 0 0 0 0 0 0 2 5 6 5 5 6 6 4 4 8 18 29 39 43 44 44 41 33 23 12 4 1 0 0 0 0 0 0 0 0 0 0
0 0 0 0 0 0 0 0 0 0 0 0 0 0 0 0 0 1 4 4 4 4 5 7 7 6 11 22 34 43 44 41 37 31 24 17 10 4 1 0 0 0 0 0 0 0 0 0 0
0 0 0 0 0 0 0 0 0 0 0 0 0 1 3 4 3 2 2 2 2 2 4 8 10 9 12 20 31 38 38 31 24 19 15 11 7 3 1 0 0 0 0 0 0 0 0 0 0
0 0 0 0 0 0 0 1 1 1 0 0 1 4 9 12 10 5 1 0 1 1 3 8 11 11 11 15 22 27 26 21 16 13 10 6 3 1 0 0 0 0 0 0 0 0 0 0 0
0 0 0 0 0 0 1 2 3 3 2 2 2 6 14 21 17 7 1 0 0 0 3 8 12 11 10 11 13 15 15 13 11 8 6 3 1 0 0 0 0 0 0 0 0 0 0 0 0
0 0 0 0 0 0 1 2 4 5 6 7 5 8 20 29 23 10 3 1 1 0 2 7 9 7 6 8 9 7 6 5 5 4 3 1 0 0 0 0 0 0 0 0 0 0 0 0 0
0 0 0 0 0 0 0 2 4 7 10 14 15 19 33 41 33 21 12 6 3 1 2 4 5 4 4 6 8 6 3 2 1 1 1 0 0 0 0 0 0 0 0 0 0 0 0 0 0
0 0 0 0 0 0 0 2 5 7 13 22 30 39 51 54 44 34 24 14 8 5 4 4 4 4 5 6 7 6 3 2 1 1 2 2 2 1 2 3 3 1 0 0 0 0 0 0 0
0 0 0 0 0 0 1 4 6 8 17 30 41 53 58 54 45 36 29 21 15 10 8 5 5 5 5 5 5 4 5 4 3 3 5 6 6 4 5 8 6 2 1 1 2 2 1 1 1
0 0 0 0 0 0 1 4 9 14 26 37 45 50 51 46 38 31 25 21 17 14 12 9 8 8 7 5 3 4 7 8 6 6 9 11 11 9 11 13 11 8 8 8 8 8 5 3 4
0 0 0 0 0 0 1 4 12 25 36 43 46 46 44 40 34 28 23 19 17 16 16 14 12 11 11 10 8 6 8 11 12 12 14 16 16 15 17 19 17 17 18 18 17 16 11 7 5
0 0 0 0 0 1 3 5 15 29 40 44 46 44 40 36 33 30 25 22 21 21 19 17 14 13 13 17 17 12 11 14 17 18 19 18 19 17 18 21 21 20 22 23 21 19 16 12 10
0 0 0 0 0 1 3 7 17 29 35 40 45 45 43 39 35 32 30 29 30 29 26 21 17 15 16 20 21 18 17 18 18 20 18 14 14 16 17 20 21 20 20 21 20 17 16 15 14
0 0 0 0 0 0 2 7 17 27 32 38 44 48 50 46 38 34 34 37 40 39 35 28 21 20 21 22 21 20 19 18 17 15 12 8 8 14 17 18 18 18 17 18 18 15 14 14 15
0 0 0 0 0 0 1 6 15 24 32 38 42 45 48 46 42 38 38 43 46 45 42 34 26 24 24 22 20 18 16 14 12 11 8 5 6 11 15 15 13 12 11 12 12 12 11 11 12
0 0 0 0 0 0 2 6 13 20 28 34 37 35 35 37 38 36 35 38 40 42 41 35 27 23 20 18 15 13 11 8 6 6 5 4 5 7 10 10 8 6 5 5 5 5 6 6 7
0 0 0 0 0 0 2 7 12 17 22 27 29 27 24 25 27 26 27 28 29 31 31 27 23 19 16 15 13 12 9 6 4 4 3 3 2 2 3 4 3 2 3 3 1 1 1 2 2
0 0 0 0 1 0 1 5 10 14 17 19 20 19 17 16 16 17 19 20 21 22 21 19 17 14 14 15 16 15 12 8 6 4 3 1 0 0 0 0 0 1 3 3 2 1 0 0 0
0 0 0 0 0 0 0 2 6 10 12 12 10 10 11 12 12 12 12 12 13 14 15 15 14 12 12 13 14 15 13 9 6 4 3 2 1 2 2 1 0 2 3 3 2 1 0 0 0
0 0 0 0 0 0 0 1 4 7 7 5 3 3 5 7 8 7 6 5 5 7 9 11 11 13 13 11 9 10 10 7 4 4 4 4 4 5 4 1 1 2 2 2 1 1 0 0 0
0 0 0 0 0 0 0 1 3 5 4 2 1 1 1 2 2 2 2 3 4 4 6 10 13 14 12 9 6 6 7 6 4 4 5 5 6 5 3 1 1 1 1 0 1 1 0 1 1
0 0 0 0 0 0 0 0 1 3 3 2 0 0 0 0 0 0 1 2 3 3 6 11 16 14 10 7 6 7 7 5 4 5 6 5 5 4 2 0 1 1 1 1 1 0 1 2 2
0 0 0 0 0 0 0 0 0 1 1 1 0 0 0 0 0 0 0 2 3 3 5 10 14 13 10 6 6 9 9 7 7 8 6 4 3 2 1 0 1 2 2 2 1 0 1 1 1
0 0 0 0 0 0 0 0 0 0 0 0 0 0 0 0 0 0 1 2 4 5 6 7 9 10 9 7 7 9 9 8 8 7 4 2 1 1 0 0 1 1 1 1 1 0 0 0 0
0 0 0 0 0 0 0 0 0 0 0 0 0 0 0 0 0 0 1 3 4 5 5 6 7 8 8 8 8 8 8 6 5 3 2 1 0 0 0 0 0 0 0 0 0 0 0 0 0
0 0 0 0 0 0 0 0 0 0 0 0 0 0 0 0 0 0 0 2 3 4 6 7 7 9 9 8 7 6 5 3 2 1 0 0 0 0 0 0 0 0 0 0 0 0 0 0 0
0 0 0 0 0 0 0 0 0 0 0 0 0 0 0 0 0 0 1 2 2 4 7 8 8 8 8 7 6 4 3 2 1 0 0 0 0 0 0 0 0 0 0 0 0 0 0 0 0
0 0 0 0 0 0 0 0 0 0 0 0 0 0 0 0 0 1 1 2 2 4 6 7 7 7 6 5 4 3 3 1 0 0 0 0 0 0 0 0 0 0 0 0 0 0 0 0 0
0 0 0 0 0 0 0 0 0 0 0 0 0 0 0 0 0 1 1 2 2 2 3 5 6 6 5 4 4 3 2 1 0 0 0 0 0 0 0 0 0 0 0 0 0 0 0 0 0

GEFSSGP_con_prob3kmehi_090.txt.gz
EHI
2 2 4 3 1 0 0 0 0 0 0 0 1 3 10 19 24 24 37 65 73 55 43 44 38 21 8 4 4 3 1 0 0 0 0 0 0 0 0 0 0 0 0 0 0 0 0 0 0
3 4 3 2 0 0 0 0 0 0 0 0 2 6 10 14 19 26 44 64 62 44 36 40 38 25 12 7 6 5 3 2 2 3 2 1 0 0 0 0 0 0 0 0 0 0 0 0 0
3 3 2 0 0 0 0 0 0 0 0 1 5 10 10 11 18 29 47 59 51 36 34 39 38 29 17 11 10 10 9 9 9 9 7 3 1 0 0 0 0 0 0 0 0 0 0 0 0
1 1 0 0 0 0 0 0 0 0 1 4 12 16 15 15 21 29 40 49 43 33 33 37 37 30 19 13 13 13 13 15 17 15 10 5 2 1 0 0 0 0 0 0 0 0 0 0 0
0 0 0 0 0 0 0 0 1 1 3 9 22 29 24 20 21 21 27 35 34 30 29 31 33 28 18 12 11 12 13 16 17 14 10 6 3 1 0 0 0 0 0 0 0 0 0 0 0
0 0 0 0 0 0 0 0 1 2 4 11 27 37 28 18 15 13 16 23 31 33 28 25 25 20 13 9 8 9 11 13 13 10 7 4 2 1 1 2 2 1 0 0 0 0 0 0 0
0 0 0 0 0 0 0 0 0 1 3 11 26 33 25 14 9 9 13 21 34 36 25 16 13 11 9 7 5 6 8 9 7 4 2 1 1 1 2 3 3 2 2 2 0 0 0 0 0
0 0 0 0 0 0 0 0 1 3 7 15 26 30 24 13 7 8 13 25 37 35 20 10 8 8 6 5 4 5 6 6 3 1 1 1 0 1 1 3 4 5 4 3 2 1 0 0 1
0 0 0 0 0 0 0 1 2 6 15 26 37 40 30 16 10 12 18 32 44 38 24 16 14 10 6 7 9 7 5 5 4 4 5 4 3 3 5 9 12 9 5 4 3 2 1 1 1
0 0 0 0 0 0 1 1 2 8 20 36 49 49 35 21 17 20 29 44 53 44 33 33 32 22 13 15 18 12 11 14 13 14 15 13 10 9 13 22 24 14 6 3 4 3 2 2 2
0 0 0 0 0 0 1 2 4 11 23 37 46 44 35 27 26 32 42 55 58 46 43 52 55 43 33 31 27 20 21 27 27 27 29 25 21 19 24 32 32 20 11 10 10 8 4 4 5
0 0 0 0 0 0 1 2 7 16 26 32 36 38 35 32 33 41 53 62 59 50 51 63 67 61 54 48 40 32 33 36 38 40 40 36 33 31 34 39 37 29 24 23 22 14 7 6 7
0 0 0 0 0 0 1 3 9 20 27 29 32 35 37 36 39 48 60 66 63 57 59 67 68 66 63 58 51 45 43 44 46 46 45 42 42 40 40 41 39 33 31 31 26 17 10 7 7
0 0 0 0 0 0 2 4 11 20 26 27 30 33 36 40 47 56 62 63 63 62 64 67 66 63 60 56 52 47 46 47 46 44 42 42 42 40 37 35 33 29 26 25 21 13 8 6 5
0 0 0 0 0 0 2 5 11 19 24 25 29 33 39 44 51 56 59 59 61 65 68 64 58 56 53 48 44 38 37 39 38 35 33 33 33 30 26 23 21 20 18 18 15 11 9 7 5
0 0 0 0 0 0 1 5 11 15 18 23 29 36 43 46 48 49 53 58 63 69 71 64 56 52 46 39 32 28 26 28 28 25 22 21 20 18 15 13 12 13 13 13 12 13 14 12 8
0 0 0 0 0 0 2 5 10 12 15 20 28 35 39 40 41 42 47 56 61 64 66 63 57 48 37 29 23 19 19 19 18 16 15 14 11 10 10 10 10 10 10 10 11 13 13 12 10
0 0 0 0 0 1 3 6 9 11 14 18 25 29 30 30 31 35 40 46 48 50 54 53 49 40 29 22 19 17 17 16 13 11 13 13 9 7 8 9 9 9 10 11 11 11 9 7 7
0 0 0 0 0 1 3 6 9 11 13 17 23 25 24 24 24 27 31 33 35 40 44 42 39 34 27 24 24 24 22 18 13 13 16 16 10 6 6 9 10 11 13 13 11 10 6 4 4
0 0 0 0 0 1 2 5 7 10 11 14 20 23 21 20 19 20 22 24 29 36 41 41 41 37 33 30 28 27 24 18 15 19 22 19 14 11 10 13 15 15 15 13 10 8 4 2 2
0 0 0 0 0 0 1 3 6 8 7 9 13 17 18 17 15 13 14 18 25 34 43 49 55 51 41 33 26 22 19 15 18 25 27 23 19 17 16 17 18 17 14 10 7 4 2 1 1
0 0 0 1 0 0 0 2 5 6 6 6 8 11 14 14 12 10 9 14 24 34 48 62 68 61 47 33 24 17 13 14 19 27 31 29 23 19 17 17 19 16 11 7 3 1 1 0 0
0 0 0 0 0 0 0 1 3 4 4 5 7 10 11 11 9 7 8 14 23 33 48 65 70 61 45 32 25 17 10 12 16 22 27 27 22 18 17 19 20 16 10 4 1 0 1 1 0
0 0 0 0 0 0 0 1 1 1 2 5 8 10 9 8 7 6 9 15 23 30 42 58 64 56 43 32 23 16 11 10 10 11 13 15 13 14 16 18 18 15 8 3 0 0 0 1 1
0 0 0 0 0 0 0 0 0 0 1 4 7 8 7 5 4 4 7 14 21 25 34 47 55 51 41 31 23 17 13 10 6 4 4 5 4 6 10 10 10 8 4 1 0 0 0 0 0
0 0 1 0 0 0 0 0 0 0 0 3 6 7 5 3 2 2 4 10 16 19 24 35 45 43 34 28 24 18 14 10 6 3 3 2 1 1 2 2 2 2 1 0 0 0 0 0 0
0 0 0 0 0 0 0 0 0 0 0 2 4 5 3 2 1 0 2 6 10 15 21 27 35 34 27 23 21 17 13 9 6 4 4 3 2 1 0 0 0 0 0 0 0 0 0 0 0
0 0 0 0 0 0 0 0 0 0 0 1 2 3 3 2 1 1 3 5 9 16 21 25 28 28 23 19 16 14 11 9 7 6 5 4 2 1 0 0 0 0 0 0 0 0 0 0 0
0 0 0 0 0 0 0 0 0 0 0 0 0 1 3 2 1 1 4 8 13 18 21 24 24 22 18 15 12 11 10 9 8 7 5 5 3 2 1 0 0 0 0 0 0 0 0 0 0
0 0 0 0 0 0 0 0 0 0 0 0 0 1 2 2 1 1 4 11 16 19 21 23 21 17 13 11 10 10 10 10 9 7 6 6 5 3 2 1 0 0 0 0 0 0 0 0 0

GEFSSGP_con_prob3kmehi_096.txt.gz
EHI
7 3 0 0 0 0 0 0 0 0 1 4 7 10 14 15 13 9 12 34 63 62 40 36 47 48 38 24 12 6 3 3 2 2 2 1 0 1 1 1 0 0 0 0 0 0 0 0 0
3 1 0 0 0 0 0 0 0 0 2 3 5 9 14 18 20 17 18 43 73 71 51 46 55 56 46 31 16 7 3 2 1 1 1 0 0 0 0 0 0 0 0 0 0 0 0 0 0
0 0 0 0 0 0 0 0 1 3 4 5 6 9 12 18 23 22 30 59 82 79 66 63 68 67 55 38 23 12 5 1 0 0 0 0 0 0 0 0 0 0 0 0 0 0 0 0 0
0 0 0 0 0 0 1 2 4 7 8 9 13 15 14 20 28 32 44 68 84 81 74 73 76 71 57 42 27 16 8 2 0 0 0 0 0 0 0 0 0 0 0 0 0 0 0 0 0
0 0 0 0 0 0 1 3 7 12 14 19 26 24 22 31 44 46 51 68 81 78 70 69 72 67 56 42 28 18 10 3 0 0 0 0 0 0 0 0 0 0 0 0 0 0 0 0 0
0 0 0 0 0 0 1 2 7 13 18 25 33 30 26 36 46 44 48 61 71 69 61 57 57 54 49 38 27 20 13 6 1 0 0 0 0 0 0 0 0 0 0 0 0 0 0 0 0
0 0 0 0 0 0 1 2 6 12 17 22 28 28 26 29 32 33 40 51 56 55 52 45 37 35 34 28 23 19 13 7 3 1 0 0 0 0 0 0 0 0 0 0 0 0 0 0 0
0 0 0 0 0 1 2 2 5 10 15 17 19 23 26 26 29 33 38 42 42 41 37 31 23 19 18 15 14 12 8 5 3 1 0 0 0 0 0 0 0 0 0 0 0 0 0 0 0
0 0 0 0 1 2 2 2 4 10 14 15 17 22 28 32 37 42 40 36 31 24 19 16 13 10 8 6 5 4 3 3 2 1 0 0 0 0 1 1 1 0 0 0 0 0 0 0 0
0 0 0 0 1 2 2 2 5 10 12 13 16 23 31 39 46 48 40 29 20 12 7 5 4 4 3 3 2 1 1 1 2 1 0 0 0 0 1 2 2 0 0 0 0 0 0 0 0
0 0 0 0 0 1 2 4 8 11 10 11 15 23 33 43 48 47 36 23 13 8 5 3 2 1 2 2 1 0 0 1 1 1 0 0 0 0 1 2 2 1 1 0 0 0 0 0 0
0 0 0 0 0 2 4 6 10 12 10 10 13 19 30 40 45 43 35 24 17 13 11 8 5 4 4 4 2 1 2 2 1 0 0 0 0 0 0 1 2 2 1 0 0 1 0 0 0
0 0 0 0 1 4 7 9 10 10 10 11 12 14 23 34 41 42 38 31 29 26 21 16 14 13 11 8 6 4 5 5 3 1 1 1 0 0 1 2 2 2 1 0 0 0 0 0 0
0 0 0 0 2 3 7 10 12 10 11 15 15 15 20 29 37 39 38 40 42 40 33 25 24 24 21 16 13 10 8 7 5 2 2 1 0 0 1 1 1 1 0 0 0 0 0 0 0
0 0 0 0 1 1 4 10 12 11 14 18 19 18 20 24 29 31 35 44 49 48 40 31 28 28 26 23 19 14 8 6 3 1 1 0 0 0 0 0 0 0 0 0 0 0 0 0 0
0 0 0 0 0 0 3 7 10 12 15 19 19 18 18 19 21 26 33 40 45 44 38 29 23 23 22 19 15 10 5 2 1 0 0 0 0 0 0 0 0 0 0 0 0 0 0 0 0
0 0 0 0 0 1 2 5 8 12 14 16 15 15 15 15 17 23 30 34 34 32 27 22 17 14 12 9 6 4 2 0 0 0 0 0 0 0 0 0 0 0 0 0 0 0 0 0 0
0 0 0 0 1 2 4 7 9 12 14 12 10 10 11 13 14 19 26 29 26 22 19 17 15 11 6 3 2 2 1 0 0 0 0 0 0 0 0 0 0 0 0 0 0 0 0 0 0
0 0 1 1 2 4 7 8 10 12 13 10 7 7 9 12 14 17 21 22 20 17 16 15 14 10 4 1 1 1 1 0 0 0 0 0 0 0 0 0 0 0 0 0 0 0 0 0 0
0 0 1 2 2 4 6 7 7 10 11 9 6 5 8 11 14 16 16 15 15 16 14 13 12 9 4 1 0 0 0 0 0 0 0 0 0 0 0 0 0 0 0 0 0 0 0 0 0
0 0 1 1 1 1 2 3 4 5 6 5 5 5 7 9 12 13 12 10 11 12 11 10 9 7 4 2 1 0 0 0 0 0 0 0 0 0 0 0 0 0 0 0 0 0 0 0 0
0 0 0 0 0 0 0 1 1 2 2 2 2 3 5 6 6 7 7 6 7 8 9 8 7 6 5 3 2 1 0 0 0 0 0 0 0 0 0 0 0 0 0 0 0 0 0 0 0
0 0 0 0 0 0 0 0 0 1 2 2 2 3 4 3 3 3 4 5 7 9 10 10 8 6 4 2 1 1 0 0 0 0 0 0 0 0 0 0 0 0 0 0 0 0 0 0 0
0 0 0 0 0 0 0 0 0 1 2 3 4 5 5 3 2 4 6 8 11 14 16 15 10 6 2 1 0 0 0 0 0 0 0 0 0 0 0 0 0 0 0 0 0 0 0 0 0
0 0 0 0 0 0 0 0 0 0 1 3 5 6 6 5 4 7 12 13 15 18 19 16 12 7 3 1 0 0 0 0 0 0 0 0 0 0 0 0 0 0 0 0 0 0 0 0 0
0 0 0 0 0 0 0 0 0 0 1 3 5 8 9 8 8 11 13 13 14 17 18 14 10 7 3 1 0 0 0 0 0 0 0 0 0 0 0 0 0 0 0 0 0 0 0 0 0
0 0 0 0 0 0 0 0 0 0 0 1 5 9 12 11 10 9 9 9 10 14 14 11 9 6 3 1 0 0 0 0 0 0 0 0 0 0 0 0 0 0 0 0 0 0 0 0 0
0 0 0 0 0 0 0 0 0 0 0 1 4 10 12 11 8 5 5 5 6 8 9 9 8 6 4 2 1 1 0 0 0 0 0 0 0 0 0 0 0 0 0 0 0 0 0 0 0
0 0 0 0 0 0 0 0 0 0 0 1 4 8 9 8 5 2 2 3 2 3 5 7 8 7 4 2 2 2 1 1 2 2 1 1 1 0 0 0 0 0 0 0 0 0 0 0 0
0 0 0 0 0 0 0 0 0 0 0 1 4 6 7 6 3 1 1 1 1 2 4 6 8 7 3 1 2 3 3 4 4 4 4 3 2 1 0 0 0 0 0 0 0 0 0 0 0

GEFSSGP_con_prob3kmehi_102.txt.gz
EHI
0 0 0 0 0 0 0 0 0 0 0 0 1 3 5 5 2 1 3 18 39 41 24 21 38 56 61 56 49 41 33 28 21 13 7 4 3 3 2 1 0 0 0 0 0 0 0 0 0
0 0 0 0 0 0 0 0 0 0 0 0 2 4 6 7 5 3 4 19 42 45 30 25 40 57 62 56 46 36 28 24 19 12 6 4 3 3 2 1 0 0 0 0 0 0 0 0 0
0 0 0 0 0 0 0 0 0 0 0 1 3 6 8 9 7 5 7 22 42 46 34 32 44 58 60 54 42 29 22 19 14 9 5 3 2 2 1 0 0 0 0 0 0 0 0 0 0
0 0 0 0 0 0 0 0 1 1 1 3 6 10 12 12 10 11 17 30 44 44 35 36 48 56 54 48 37 26 19 14 10 6 3 1 1 1 0 0 0 0 0 0 0 0 0 0 0
0 0 0 0 0 0 0 0 0 0 2 6 12 16 17 16 17 21 28 38 47 46 38 39 49 52 48 42 33 24 16 11 7 4 1 0 0 0 0 0 0 0 0 0 0 0 0 0 0
0 0 0 0 0 0 0 0 0 1 3 8 18 23 20 18 22 26 32 41 51 56 49 43 43 44 42 38 31 22 14 8 5 3 1 0 0 0 0 0 0 0 0 0 0 0 0 0 0
0 0 0 0 0 0 0 0 1 3 5 9 20 26 23 21 24 28 35 46 57 63 59 48 40 37 35 33 29 22 14 8 4 3 1 0 0 0 0 0 0 0 0 0 0 0 0 0 0
0 0 0 0 0 0 0 0 1 3 5 8 16 22 25 28 32 36 44 52 57 59 57 51 44 37 30 27 26 20 13 6 3 2 1 0 0 0 0 0 0 0 0 0 0 0 0 0 0
0 0 0 0 0 0 0 0 1 3 5 8 13 21 31 39 43 46 51 52 49 47 47 46 43 38 32 26 22 16 10 5 2 1 0 0 0 0 0 0 0 0 0 0 0 0 0 0 0
0 0 0 0 0 0 0 1 2 5 8 12 20 31 43 47 46 46 46 43 38 37 38 36 34 34 32 26 19 14 9 4 1 0 0 0 0 0 0 0 0 0 0 0 0 0 0 0 0
0 0 0 0 0 0 1 2 4 7 10 16 28 41 48 47 43 39 35 30 29 30 28 26 25 26 26 22 15 11 7 3 1 0 0 0 0 0 0 0 0 0 0 0 0 0 0 0 0
0 0 0 0 1 1 1 3 6 7 9 16 29 40 44 40 36 32 27 23 22 21 19 18 18 18 16 14 10 6 3 1 0 0 0 0 0 0 0 0 0 0 0 0 0 0 0 0 0
0 0 0 0 1 1 2 3 5 6 9 15 25 33 35 32 28 24 20 17 15 14 12 11 11 9 7 6 5 3 1 0 0 0 0 0 0 0 0 0 0 0 0 0 0 0 0 0 0
0 0 0 0 1 1 2 2 4 7 11 17 23 26 26 23 19 15 12 10 10 9 6 5 6 4 2 2 1 1 0 0 1 1 1 0 0 0 0 0 0 0 0 0 0 0 0 0 0
0 0 0 0 0 1 1 2 4 8 14 19 22 22 19 15 12 9 6 6 7 6 3 2 2 2 0 0 0 0 0 0 0 0 0 0 0 0 0 0 0 0 0 0 0 0 0 0 0
0 0 0 0 0 0 0 1 3 8 15 19 20 17 14 11 9 7 6 5 5 4 3 2 1 1 0 0 0 0 0 0 0 0 0 0 0 0 0 0 0 0 0 0 0 0 0 0 0
0 0 0 0 0 0 0 0 2 7 12 16 15 12 10 9 7 6 6 6 4 4 4 3 1 0 0 0 0 0 0 0 0 0 1 1 1 0 0 0 0 0 0 0 0 0 0 0 0
0 0 0 0 0 0 0 1 2 6 11 13 11 9 8 8 7 6 5 4 2 2 3 3 2 0 0 0 0 0 0 0 0 1 2 2 1 0 0 0 0 0 0 0 0 0 0 0 0
0 0 0 0 1 1 1 1 2 6 9 10 10 8 7 7 6 4 2 2 2 3 3 3 2 1 0 0 0 0 0 0 0 1 2 1 1 0 0 0 0 0 0 0 0 0 0 0 0
0 0 0 0 1 2 1 1 1 3 6 7 8 6 4 4 4 2 1 1 2 4 4 3 3 1 1 0 0 0 0 0 0 1 1 0 0 0 0 0 0 0 0 0 0 0 0 0 0
0 0 0 0 1 1 1 0 0 1 2 3 3 2 2 2 3 2 1 2 3 4 3 3 3 3 2 1 0 1 0 0 0 0 0 0 0 0 0 0 0 0 0 0 0 0 0 0 0
0 0 0 0 0 0 0 0 0 0 0 1 1 1 1 2 3 3 3 4 4 3 3 4 4 5 3 1 0 0 0 0 0 0 0 0 0 0 0 0 0 0 0 0 0 0 0 0 0
0 0 0 0 0 0 0 0 0 0 0 0 0 1 1 1 1 2 4 5 4 3 2 4 5 5 3 1 0 0 0 0 0 0 0 0 0 0 0 0 0 0 0 0 0 0 0 0 0
0 0 0 0 0 0 0 0 0 0 0 0 0 0 0 0 0 1 3 4 3 2 2 3 3 3 1 0 0 0 0 0 0 0 0 0 0 0 0 0 0 0 0 0 0 0 0 0 0
0 0 0 0 0 0 0 0 0 0 0 0 0 0 0 0 0 0 1 2 2 3 3 3 2 1 0 0 0 0 0 0 0 0 0 0 0 0 0 0 0 0 0 0 0 0 0 0 0
0 0 0 0 0 0 0 0 0 0 0 0 0 0 0 0 0 0 0 1 2 3 3 3 2 1 0 0 0 0 0 0 0 0 0 0 0 0 0 0 0 0 0 0 0 0 0 0 0
0 0 0 0 0 0 0 0 0 0 0 0 0 0 0 0 0 0 0 0 2 3 3 3 3 1 0 0 0 0 0 0 0 0 0 0 0 0 0 0 0 0 0 0 0 0 0 0 0
0 0 0 0 0 0 0 0 0 0 0 0 0 0 0 0 0 0 0 1 2 2 2 2 2 1 0 0 0 0 0 0 0 0 0 0 0 0 0 0 0 0 0 0 0 0 0 0 0
0 0 0 0 0 0 0 0 0 0 0 0 0 0 0 0 0 0 1 2 1 1 0 1 1 1 0 0 0 0 0 0 0 0 0 0 0 0 0 0 0 0 0 0 0 0 0 0 0
0 0 0 0 0 0 0 0 0 0 0 0 0 0 0 0 0 1 2 2 1 0 0 0 0 0 0 0 0 0 0 0 0 0 0 0 0 0 0 0 0 0 0 0 0 0 0 0 0

GEFSSGP_con_prob3kmehi_108.txt.gz
EHI
0 0 0 0 0 0 0 0 0 0 0 0 0 0 0 0 1 2 7 12 15 18 17 11 6 6 15 29 38 38 33 26 17 10 5 2 0 0 0 0 0 0 0 0 0 0 0 0 0
0 0 0 0 0 0 0 0 0 0 0 0 0 0 0 1 2 4 9 14 15 16 17 13 8 8 16 29 37 37 30 22 16 10 5 2 0 0 0 0 0 0 0 0 0 0 0 0 0
0 0 0 0 0 0 0 0 0 0 0 0 0 0 1 4 5 6 10 16 17 15 16 17 13 11 16 26 33 32 26 19 13 7 3 1 0 0 0 0 0 0 0 0 0 0 0 0 0
0 0 0 0 0 0 0 0 0 0 0 0 0 2 6 8 7 8 11 15 17 14 14 18 16 11 14 20 24 25 21 15 10 5 1 0 0 0 0 0 0 0 0 0 0 0 0 0 0
0 0 0 0 0 0 0 0 0 0 0 0 1 5 11 13 12 11 11 12 13 11 10 14 14 10 10 12 16 17 15 11 6 2 1 0 0 0 0 0 0 0 0 0 0 0 0 0 0
0 0 0 0 0 0 0 0 0 0 0 1 2 7 15 21 19 15 11 8 8 7 8 10 9 7 7 8 10 12 11 8 5 2 0 0 0 0 0 0 0 0 0 0 0 0 0 0 0
0 0 0 0 0 0 0 0 0 0 0 1 2 8 20 30 29 20 12 7 4 4 5 6 4 3 4 5 6 7 6 5 3 2 0 0 0 0 0 0 0 0 0 0 0 0 1 1 0
0 0 0 0 0 0 0 0 0 0 1 2 3 10 27 42 42 32 20 10 5 3 4 3 1 1 2 2 3 3 2 2 1 1 0 0 0 0 0 0 0 0 0 0 0 1 1 1 1
0 0 0 0 0 0 0 0 0 0 2 3 7 18 38 53 56 49 35 22 12 8 6 5 4 4 3 2 1 1 0 0 0 0 0 0 0 0 1 2 1 0 0 0 1 1 1 1 1
0 0 0 0 0 0 0 0 0 0 1 4 11 29 49 61 65 60 48 34 23 15 10 9 10 10 7 5 4 2 1 0 0 0 0 0 0 0 2 4 3 1 1 0 1 1 1 0 0
0 0 0 0 0 0 0 0 0 0 2 6 17 34 54 64 65 59 50 39 31 22 15 14 15 13 12 12 8 4 3 2 1 1 0 1 2 2 3 4 3 2 1 0 0 0 0 0 0
0 0 0 0 0 0 0 0 0 1 4 10 21 36 49 58 60 55 47 42 36 30 23 19 19 18 18 17 11 6 4 4 3 2 2 2 3 3 3 3 3 2 1 0 0 0 0 0 0
0 0 0 0 0 0 0 0 0 2 7 14 23 33 41 49 53 52 49 45 40 35 31 28 25 26 26 22 15 9 5 5 5 4 3 4 3 3 3 4 3 2 0 0 0 0 0 0 0
0 0 0 0 0 0 0 0 1 5 11 16 22 28 35 39 42 45 47 46 40 36 35 35 32 30 27 22 16 10 6 7 7 6 5 5 4 4 4 4 3 1 0 0 0 0 0 0 0
0 0 0 0 0 0 0 1 3 8 13 15 18 23 28 31 32 34 37 36 32 31 32 33 31 26 21 17 12 8 7 9 9 8 6 5 4 5 6 4 2 1 0 0 1 1 0 0 0
0 0 0 0 0 0 0 1 5 10 12 12 13 18 23 24 24 24 24 23 22 24 26 26 23 19 15 13 9 7 6 8 9 7 6 5 5 6 5 3 2 1 1 1 1 1 0 0 0
0 0 0 0 0 0 0 1 5 9 11 10 10 15 19 19 17 17 16 16 18 20 21 21 18 16 14 12 13 10 7 5 5 3 3 5 7 6 4 2 1 1 1 1 1 1 0 0 0
0 0 0 0 0 0 0 1 4 8 10 11 11 13 14 13 11 11 11 13 17 20 21 20 19 18 17 16 17 15 8 4 3 2 2 4 5 5 2 1 0 1 2 2 1 1 0 0 0
0 0 0 0 0 0 0 0 3 8 10 12 13 12 11 9 8 8 9 10 13 17 19 20 19 19 20 19 19 16 10 5 3 2 3 3 3 2 1 0 0 1 1 1 0 0 0 0 0
0 0 0 0 0 0 0 0 3 7 9 11 12 11 9 6 5 6 7 6 8 11 14 15 17 18 17 16 16 15 12 7 4 3 3 2 1 0 0 0 0 0 0 0 0 0 0 0 0
0 0 0 0 0 0 0 0 2 6 9 10 9 8 6 3 2 3 3 2 3 5 6 8 12 14 13 11 10 11 10 7 5 4 3 1 0 0 0 0 0 0 0 0 0 0 0 0 0
0 0 0 0 0 0 0 0 1 5 8 9 8 6 3 1 0 0 0 0 1 1 1 4 7 10 10 9 6 5 5 5 5 5 2 0 0 0 0 0 0 0 0 0 0 0 0 0 0
0 0 0 0 0 0 0 0 0 2 5 7 8 6 4 2 0 0 0 0 0 0 0 3 6 9 11 10 7 4 3 4 5 4 1 0 1 2 1 0 0 0 0 0 0 0 0 0 0
0 0 0 0 0 0 0 0 0 0 2 4 7 8 7 5 2 1 1 1 1 1 1 3 7 12 14 13 10 6 4 5 5 3 1 1 2 3 2 1 0 0 0 0 0 0 0 0 0
0 0 0 0 0 0 0 0 0 0 0 1 5 7 8 7 5 4 4 4 3 3 2 5 11 15 16 14 10 6 5 5 4 1 0 1 2 3 2 1 0 0 0 0 0 0 0 0 0
0 0 0 0 0 0 0 0 0 0 0 1 3 5 7 8 7 7 7 6 4 3 4 10 15 18 16 13 10 7 6 5 3 1 0 0 1 1 1 1 0 0 0 0 0 0 0 0 0
0 0 0 0 0 0 0 0 0 0 0 1 2 4 7 8 7 7 7 5 3 2 5 12 18 20 18 13 10 9 7 5 4 2 1 0 0 0 0 0 0 0 0 0 0 0 0 0 0
0 0 0 0 0 0 0 0 0 0 0 1 2 4 6 7 5 5 7 5 2 2 6 12 19 21 19 13 10 9 8 6 4 2 1 0 0 0 0 0 0 0 0 0 0 0 0 0 0
0 0 0 0 0 0 0 0 0 0 0 0 1 2 4 4 3 5 7 6 4 4 8 14 18 18 15 11 9 9 8 6 4 3 1 0 0 0 0 0 0 0 0 0 0 0 0 0 0
0 0 0 0 0 0 0 0 0 0 0 0 0 1 3 2 2 5 7 6 6 6 10 14 16 14 10 8 9 10 9 6 4 3 2 1 1 1 0 0 0 0 0 0 0 0 0 0 0

GEFSSGP_con_prob3kmehi_114.txt.gz
EHI
3 9 15 14 6 3 1 0 1 0 0 0 0 3 10 14 15 15 21 44 66 60 47 45 36 18 6 4 2 1 0 0 0 0 0 0 0 0 0 0 0 0 0 0 0 0 0 0 0
4 10 13 9 5 2 1 0 1 1 0 0 1 5 12 18 19 20 30 53 66 57 45 43 36 20 8 4 3 1 0 0 0 0 0 0 0 0 0 0 0 0 0 0 0 0 0 0 0
5 8 7 4 3 2 0 0 1 1 1 1 4 11 20 24 25 28 42 61 66 56 46 45 39 24 12 7 4 2 0 0 0 0 0 0 0 0 0 0 0 0 0 0 0 0 0 0 0
4 4 2 1 1 1 0 0 0 1 1 3 11 24 31 28 25 32 45 59 63 55 47 47 42 29 17 12 8 4 1 0 0 0 0 0 0 0 0 0 0 0 0 0 0 0 0 0 0
2 1 0 0 0 0 0 0 0 1 3 6 18 35 37 27 23 29 39 49 54 51 45 43 39 29 19 13 8 4 1 0 0 0 0 0 0 0 0 0 0 0 0 0 0 0 0 0 0
1 0 0 0 0 0 0 0 0 2 4 8 21 38 37 25 22 25 29 37 46 49 43 37 33 25 16 9 4 1 0 0 0 0 0 0 0 0 0 0 0 0 0 0 0 0 0 0 0
0 0 1 0 0 0 1 0 0 2 5 8 20 37 40 30 22 22 24 29 40 47 40 29 24 19 11 4 1 0 0 0 0 0 0 0 0 0 0 0 0 0 0 0 0 0 0 0 0
0 0 0 0 0 0 0 0 0 2 5 9 20 37 46 36 23 22 24 29 41 45 34 21 15 11 5 1 0 0 0 0 0 0 0 0 0 0 0 1 1 0 0 0 0 0 0 0 0
0 0 0 0 0 0 0 0 0 2 6 13 26 44 52 42 29 28 31 39 52 52 34 18 13 9 3 0 0 0 0 0 0 0 0 0 0 0 1 2 2 1 0 0 0 0 0 0 0
0 0 0 0 0 0 0 0 0 2 8 20 35 50 53 46 39 35 37 49 64 61 40 25 22 16 9 6 4 1 0 0 0 0 0 0 1 1 3 5 4 2 0 0 0 0 0 0 0
0 0 0 0 0 0 0 0 1 4 12 23 36 46 50 50 46 43 46 58 70 66 51 43 38 31 24 18 10 3 1 1 2 3 2 2 3 5 7 8 6 3 1 1 0 0 0 0 0
0 0 0 0 0 0 0 0 1 6 15 25 33 42 49 51 51 54 62 71 75 69 64 62 55 48 45 34 18 9 7 8 11 12 8 6 6 9 12 12 9 7 4 3 2 2 2 2 1
0 0 0 0 0 0 0 1 2 8 17 25 31 39 48 52 56 65 73 77 77 72 71 72 69 65 61 49 31 21 19 19 22 21 14 11 11 12 14 15 13 10 8 7 7 7 5 3 2
0 0 0 0 0 0 0 2 4 10 17 23 29 38 44 48 56 66 73 75 76 75 75 75 74 71 65 53 42 37 31 29 29 25 18 15 15 15 14 12 10 9 10 10 11 10 7 3 1
0 0 0 0 0 0 0 3 7 13 16 21 28 37 41 44 50 59 67 72 75 77 76 72 67 65 59 48 43 42 38 34 32 29 22 18 17 15 11 7 5 5 8 10 10 8 5 2 0
0 0 0 0 0 0 0 4 10 14 16 19 25 33 39 42 44 51 60 66 70 74 72 62 55 54 52 47 42 41 40 38 34 30 23 18 15 11 8 7 6 5 6 7 6 4 2 0 0
0 0 0 0 0 0 0 5 11 15 15 17 21 28 36 40 41 45 52 57 62 66 63 57 54 53 51 47 45 44 43 39 33 28 23 18 14 9 7 10 10 6 5 5 3 2 0 0 0
0 0 0 0 0 0 1 5 10 14 14 14 18 25 33 40 41 41 43 46 51 56 55 54 58 58 52 47 45 44 41 34 28 25 23 20 14 8 8 11 10 6 6 6 4 2 0 0 0
0 0 0 0 0 0 1 4 8 13 14 14 17 24 33 39 38 36 36 36 39 45 47 49 54 56 52 47 44 43 36 26 21 21 22 19 12 7 7 9 9 7 9 9 5 2 1 0 0
0 0 0 0 0 0 1 4 9 13 14 14 18 26 32 33 32 32 31 30 31 35 40 42 44 46 47 45 43 42 34 21 16 18 20 16 11 7 7 8 7 8 12 10 5 2 1 0 0
0 0 0 0 0 0 1 5 13 17 14 14 19 27 31 30 30 31 28 26 25 26 30 33 34 37 41 42 40 37 30 18 14 19 19 15 12 9 8 6 6 8 10 9 6 3 2 0 0
0 0 0 0 0 0 0 5 14 20 17 17 20 25 31 32 32 31 25 21 19 20 23 26 28 32 37 39 38 33 24 16 17 23 24 20 16 12 8 5 6 7 8 8 6 3 1 0 0
0 0 0 0 0 0 0 3 10 17 19 22 22 23 28 31 30 28 23 17 15 17 20 24 28 32 35 37 37 31 21 16 21 28 31 27 20 12 6 5 6 6 6 6 6 3 1 0 0
0 0 0 0 0 0 0 1 4 10 14 20 23 23 24 25 24 24 22 18 15 16 19 25 31 34 34 35 34 29 23 21 26 31 31 27 19 12 6 6 7 7 6 6 5 2 0 0 0
0 0 0 0 1 0 0 0 1 3 7 13 19 22 22 20 20 21 21 20 18 18 21 26 32 36 36 34 33 32 28 26 29 29 25 19 14 13 12 10 9 8 6 5 3 1 0 0 0
0 0 0 0 0 0 0 0 0 1 3 9 15 20 22 19 17 17 19 21 20 20 23 29 34 39 40 38 39 37 31 26 25 25 20 13 10 13 15 14 10 7 5 5 3 1 0 0 1
0 0 0 0 0 0 0 0 0 0 2 7 14 18 20 20 17 17 19 22 23 25 31 38 44 46 44 42 41 37 29 23 21 22 19 14 10 11 13 12 9 7 6 6 5 3 1 1 2
0 0 0 0 0 0 0 0 0 0 1 5 11 15 18 19 20 21 23 26 29 34 42 49 52 52 49 43 37 32 27 23 22 23 21 17 15 13 11 9 9 9 8 7 6 4 3 3 3
0 0 0 0 0 0 0 0 0 0 2 4 8 13 17 19 22 25 30 35 39 42 46 51 52 51 49 43 37 33 31 26 23 24 23 21 21 19 14 11 12 12 10 9 7 5 4 4 4
0 0 0 0 0 0 0 0 0 1 2 4 7 13 18 21 24 27 35 42 45 44 45 48 49 47 45 42 40 40 37 29 25 24 24 24 25 23 17 13 13 13 11 9 7 5 4 5 5

GEFSSGP_con_prob3kmehi_120.txt.gz
EHI
10 4 0 0 0 0 0 0 0 1 2 7 13 19 19 12 7 8 12 23 39 43 34 34 42 39 28 19 13 10 8 5 3 2 1 0 0 0 0 0 0 0 0 0 0 0 0 0 0
4 2 0 0 0 0 0 0 1 3 6 12 18 23 23 15 12 15 20 32 48 51 40 39 47 43 28 17 11 10 8 5 3 1 0 0 0 0 0 0 0 0 0 0 0 0 0 0 0
0 0 0 0 0 0 0 1 3 7 13 20 25 27 23 17 16 22 32 47 59 60 51 50 56 48 29 15 10 9 7 4 2 1 0 0 0 0 0 0 0 0 0 0 0 0 0 0 0
0 0 0 0 0 1 1 2 4 9 17 27 33 31 24 22 27 38 50 61 68 68 61 60 63 52 30 16 9 7 5 4 2 1 0 0 0 0 0 0 0 0 0 0 0 0 0 0 0
0 0 0 0 0 0 1 2 4 8 19 33 40 39 34 36 49 60 64 70 76 76 68 64 64 52 33 18 8 5 4 2 1 0 0 0 0 0 0 0 0 0 0 0 0 0 0 0 0
0 0 0 0 0 0 0 1 4 9 20 35 45 46 43 49 62 66 65 70 78 78 70 63 57 48 35 22 11 5 3 2 0 0 0 0 0 0 0 0 0 0 0 0 0 0 0 0 0
0 0 0 0 0 0 0 1 5 12 23 35 46 48 46 50 59 60 60 67 75 75 70 61 50 39 32 24 15 7 3 2 1 0 0 0 0 0 0 0 0 0 0 0 0 0 0 1 1
0 0 0 0 0 0 0 2 7 18 28 35 40 43 44 49 57 60 61 65 70 69 65 59 47 34 26 22 14 6 3 2 1 0 0 0 0 0 0 0 0 0 0 0 0 0 1 2 3
0 0 0 0 0 0 0 3 10 22 31 33 34 38 42 51 59 64 65 65 63 58 54 51 43 31 22 17 12 6 2 1 0 0 0 0 0 0 0 0 0 0 0 0 0 0 1 3 3
0 0 0 0 0 0 0 2 9 21 28 29 34 41 45 52 59 63 66 63 55 47 42 38 32 25 18 14 11 6 2 1 0 0 0 0 0 0 0 0 0 0 0 0 0 0 1 1 1
0 0 0 0 0 1 1 1 6 14 19 26 37 44 48 52 56 59 60 56 46 37 32 27 21 17 15 13 11 7 4 2 1 0 0 0 0 0 0 0 0 0 0 0 0 0 0 0 0
0 0 0 0 1 2 2 2 4 9 15 25 36 43 46 49 52 54 54 49 38 28 24 19 14 12 12 12 10 6 3 2 1 0 0 0 0 0 0 0 0 0 0 0 0 0 0 0 0
0 0 0 1 3 3 3 4 7 11 17 26 34 38 41 45 47 48 47 43 35 25 18 14 12 10 10 9 7 4 2 1 0 0 0 0 0 0 0 0 0 0 0 0 0 0 0 0 0
0 0 0 1 3 3 3 5 10 15 20 27 32 33 36 41 44 43 43 41 37 28 20 16 15 13 10 8 5 2 0 0 0 0 0 0 0 0 0 0 0 0 0 0 0 0 0 0 0
0 0 0 1 1 2 2 5 10 18 24 28 32 35 35 36 40 42 42 43 40 35 29 24 21 17 12 8 5 3 2 2 1 0 0 0 0 0 0 0 0 0 0 0 0 0 0 0 0
0 0 0 0 0 1 2 4 10 20 27 28 31 37 36 33 35 39 42 43 42 39 36 33 29 23 15 10 8 6 5 5 4 1 0 0 0 0 0 0 0 0 0 0 0 0 0 0 0
0 0 0 0 0 0 1 3 9 18 25 25 27 34 37 34 34 37 39 41 41 40 39 36 32 27 21 16 13 10 7 6 4 1 0 0 0 0 0 0 0 0 0 0 0 0 0 0 0
0 0 0 0 0 1 2 4 8 15 21 23 25 30 34 35 35 36 37 38 39 38 36 33 30 26 25 22 16 11 8 6 3 2 1 0 0 0 0 0 0 0 0 0 0 0 0 0 0
0 0 0 0 0 1 2 5 7 12 18 22 23 25 28 31 32 33 33 35 37 34 31 28 25 23 24 23 18 12 7 4 2 3 3 1 0 0 0 0 0 0 0 0 0 0 0 0 0
0 0 0 0 1 1 2 3 5 10 15 18 20 20 22 26 28 28 27 29 30 28 26 24 21 20 20 18 16 12 7 3 1 2 3 2 1 0 0 0 0 0 0 0 0 0 0 0 0
0 0 0 0 0 1 1 2 3 7 10 15 18 18 19 22 24 22 19 19 20 20 19 19 17 17 16 15 14 12 8 3 1 1 2 3 2 1 0 0 0 0 0 0 0 0 0 0 0
0 0 0 0 0 0 1 1 1 4 8 14 20 19 17 17 17 15 14 14 14 13 12 11 12 13 13 12 11 9 6 2 0 1 2 3 2 1 0 0 0 0 0 0 0 0 0 0 0
0 0 0 0 0 0 0 0 0 2 7 14 20 19 14 12 12 11 12 12 12 10 7 6 7 9 9 9 7 6 3 1 0 1 2 2 1 0 0 0 0 0 0 0 0 0 0 0 0
0 0 0 0 0 0 0 0 0 1 5 11 17 17 14 11 9 7 8 10 10 9 6 5 5 6 7 6 4 3 1 0 0 0 0 0 0 0 0 0 0 0 0 0 0 0 0 0 0
0 0 0 0 0 0 0 0 0 1 3 7 13 15 15 13 10 7 7 9 11 10 8 6 6 5 6 5 3 1 0 0 1 0 0 1 1 1 0 0 0 0 0 0 0 0 0 0 0
0 0 0 0 0 0 0 0 0 1 3 4 8 14 17 16 13 11 11 12 14 13 11 9 8 7 7 7 4 1 0 0 1 1 0 1 2 1 0 0 0 1 1 1 1 0 0 0 0
0 0 0 0 0 0 0 0 1 2 2 2 5 10 15 17 16 15 15 16 17 16 14 12 11 11 11 9 5 2 0 0 1 2 1 0 1 1 1 0 0 1 2 2 2 1 0 0 0
0 0 0 0 0 0 0 0 1 2 2 1 3 7 12 16 17 17 18 17 18 18 17 14 13 13 14 13 9 5 3 2 3 3 2 1 1 2 2 1 1 0 1 2 2 1 0 0 0
0 0 0 0 0 0 0 0 0 1 1 1 2 5 8 12 14 17 18 17 16 17 17 16 15 15 16 16 14 10 9 7 6 4 3 3 3 3 3 3 2 1 0 1 1 1 0 0 0
0 0 0 0 0 0 0 0 0 0 0 0 1 2 5 9 11 15 17 16 14 15 16 16 16 17 19 18 16 14 14 12 8 5 4 4 3 3 3 3 2 1 0 0 0 0 0 0 0

GEFSSGP_con_prob3kmehi_126.txt.gz
EHI
1 1 0 0 0 0 0 0 0 0 0 1 2 3 3 2 1 1 3 14 32 36 27 25 33 40 43 42 36 27 20 16 12 7 5 4 3 2 1 0 0 0 0 0 0 0 0 0 0
1 0 0 0 0 0 0 0 0 1 2 3 5 7 7 5 3 3 6 19 36 39 30 27 34 41 43 41 35 25 18 14 10 6 4 3 2 1 0 0 0 0 0 0 0 0 0 0 0
0 0 0 0 0 0 0 0 1 2 4 6 9 11 9 6 4 6 13 29 42 41 33 31 36 40 42 41 35 25 16 11 7 4 3 1 1 0 0 0 0 0 0 0 0 0 0 0 0
0 0 0 0 0 0 0 0 2 3 4 9 15 16 11 6 6 13 25 40 48 43 36 37 40 41 41 40 35 26 17 10 5 4 2 1 0 0 0 0 0 0 0 0 0 0 0 0 0
0 0 0 0 0 0 0 1 3 5 7 14 23 24 17 11 15 28 39 47 51 48 43 44 46 44 40 38 34 26 16 9 5 4 2 1 0 0 0 0 0 0 0 0 0 0 0 0 0
0 0 0 0 0 0 0 2 5 11 16 22 31 31 23 21 31 41 47 48 50 52 51 50 50 46 41 38 34 24 15 9 5 3 2 1 0 0 0 0 0 0 0 0 0 0 0 0 0
0 0 0 0 0 0 0 3 9 17 23 27 34 34 26 28 41 50 52 53 53 56 57 53 49 44 41 37 31 22 14 8 3 1 1 0 0 0 0 0 0 0 0 0 0 0 0 0 0
0 0 0 0 0 0 1 4 11 19 25 28 30 27 26 38 55 61 62 62 61 60 57 54 49 44 39 34 27 20 14 7 2 0 0 0 0 0 0 0 0 0 0 0 0 0 0 0 0
0 0 0 0 0 0 1 4 11 19 25 27 26 25 35 59 72 72 69 67 64 58 53 53 52 47 41 33 25 19 13 8 3 1 0 0 0 0 0 0 0 0 0 0 0 0 0 0 0
0 0 0 0 0 0 1 4 12 20 24 25 28 36 55 73 78 74 68 62 58 52 47 48 51 49 42 34 25 19 14 9 4 1 0 0 0 0 0 0 0 0 0 0 0 0 0 0 0
0 0 0 0 0 0 1 4 11 16 17 21 33 50 64 71 70 65 57 52 50 46 42 43 48 47 39 32 25 19 14 10 5 2 0 0 0 0 0 0 0 0 0 0 0 0 0 0 0
0 0 0 0 0 0 1 4 8 11 12 19 36 54 63 64 59 53 47 43 42 42 40 41 42 39 33 29 26 19 14 10 6 2 0 0 0 0 0 0 0 0 0 0 0 0 0 0 0
0 0 0 1 1 1 2 3 6 9 13 23 39 52 57 56 51 45 40 36 36 38 39 39 36 32 28 26 23 18 14 10 5 2 0 0 0 0 0 0 0 0 0 0 0 0 0 0 0
0 0 0 1 2 2 2 3 6 12 19 28 38 45 48 47 44 38 33 30 30 32 33 33 31 27 23 20 16 14 12 9 5 1 0 0 0 0 0 0 0 0 0 0 0 0 0 0 0
0 0 0 1 1 2 2 3 6 16 27 33 35 38 40 39 35 32 28 24 23 23 24 25 24 21 16 12 10 9 8 7 4 1 0 0 0 0 0 0 0 0 0 0 0 0 0 0 0
0 0 0 0 1 2 2 2 5 16 29 34 34 35 33 30 28 26 24 20 16 16 16 17 16 14 10 6 5 5 5 5 3 1 0 0 0 0 0 0 0 0 0 0 0 0 0 0 0
0 0 0 0 0 1 1 1 4 14 24 29 32 32 27 24 23 22 20 17 13 11 12 13 11 9 7 4 3 3 4 3 3 2 0 0 0 0 0 0 0 0 0 0 0 0 0 0 0
0 0 0 0 0 0 0 1 4 11 17 23 27 27 24 21 19 18 17 14 10 9 10 10 9 7 5 4 3 3 3 3 3 2 0 0 0 0 0 0 0 0 0 0 0 0 0 0 0
0 0 0 0 0 0 0 1 3 7 12 16 20 21 20 18 16 16 15 12 10 9 8 8 8 7 5 4 4 4 3 2 3 2 1 0 0 0 0 0 0 0 0 0 0 0 0 0 0
0 0 0 0 0 0 0 0 1 3 8 11 12 14 15 15 15 15 14 12 9 8 7 8 8 7 6 6 8 6 4 2 2 2 2 1 0 0 0 0 0 0 0 0 0 0 0 0 0
0 0 0 0 0 0 0 0 0 1 5 7 7 9 12 13 13 14 13 11 7 6 6 6 7 7 7 8 10 10 6 2 1 2 2 1 0 0 0 0 0 0 0 0 0 0 0 0 0
0 0 0 0 0 0 0 0 0 1 3 4 5 7 9 10 10 10 10 8 5 4 4 4 5 5 6 8 11 10 6 2 1 1 2 1 0 0 0 0 0 0 0 0 0 0 0 0 0
0 0 0 0 0 0 0 0 0 1 2 3 4 6 8 8 8 9 8 6 4 3 3 3 2 2 5 9 10 7 4 2 1 1 1 0 0 0 0 0 0 0 0 0 0 0 0 0 0
0 0 0 0 0 0 0 0 0 0 1 1 3 5 7 8 8 8 7 6 4 3 3 3 1 1 4 7 7 5 4 2 1 1 0 0 0 0 0 0 0 0 0 0 0 0 0 0 0
0 0 0 0 0 0 0 0 0 0 0 1 2 4 6 6 6 5 6 6 5 4 3 3 2 2 4 6 5 5 5 3 2 1 0 0 0 0 0 0 0 0 0 0 0 0 0 0 0
0 0 0 0 0 0 0 0 0 0 0 0 1 3 4 4 3 4 5 6 5 5 4 3 3 3 5 5 6 6 4 3 3 1 0 0 0 0 0 0 0 0 0 0 0 0 0 0 0
0 0 0 0 0 0 0 0 0 0 0 0 1 2 2 2 3 3 4 4 4 4 4 3 3 3 4 5 6 6 4 3 2 1 0 0 0 0 0 0 0 0 0 0 0 0 0 0 0
0 0 0 0 0 0 0 0 0 0 0 0 0 0 0 1 2 3 3 3 4 5 5 4 4 3 4 5 6 6 4 3 2 1 0 0 0 0 0 0 0 0 0 0 0 0 0 0 0
0 0 0 0 0 0 0 0 0 0 0 0 0 0 0 0 1 2 3 3 3 4 5 5 5 4 4 5 6 6 4 2 1 0 0 0 0 0 0 0 0 0 0 0 0 0 0 0 0
0 0 0 0 0 0 0 0 0 0 0 0 0 0 0 0 0 1 3 3 3 4 4 5 6 6 5 6 6 6 4 1 0 0 0 0 0 0 0 0 0 0 0 0 0 0 0 0 0

GEFSSGP_con_prob3kmehi_132.txt.gz
EHI
0 0 0 1 1 1 0 0 0 0 0 0 0 0 0 0 0 1 4 9 15 22 25 21 19 21 27 32 37 41 38 30 18 9 5 3 3 2 1 0 0 0 0 0 0 0 0 0 0
0 0 0 0 0 0 0 0 0 0 0 0 0 0 0 0 0 2 8 14 20 24 24 22 21 23 26 30 34 36 32 25 16 8 4 3 3 2 1 0 0 0 0 0 0 0 0 0 0
0 0 0 0 0 0 0 0 0 0 0 0 0 0 1 1 1 5 15 25 27 27 26 26 25 24 26 28 29 27 23 18 12 7 4 3 2 1 0 0 0 0 0 0 0 0 0 0 0
0 0 0 0 0 0 0 0 0 0 0 0 1 2 4 6 7 12 25 34 33 28 27 28 26 24 25 26 25 21 16 12 8 5 3 3 1 0 0 0 0 0 0 0 1 1 0 0 0
0 0 0 0 0 0 0 0 0 0 0 0 1 3 10 16 19 24 34 37 32 25 24 28 27 23 23 25 24 19 14 10 7 5 3 2 1 0 0 0 0 0 0 0 1 2 1 0 0
0 0 0 0 0 0 0 0 0 0 0 0 1 6 18 30 33 35 38 34 25 19 21 25 23 18 19 21 21 19 15 12 8 5 3 1 1 1 0 0 0 0 0 0 2 2 1 0 0
0 0 0 0 0 0 0 0 0 0 0 0 1 8 24 42 46 43 39 31 20 15 18 20 17 13 12 14 16 17 17 14 10 5 2 1 1 1 0 0 0 0 0 0 1 2 2 1 0
0 0 0 0 0 0 0 0 0 0 1 1 3 11 31 55 60 54 46 35 23 16 15 16 14 11 9 8 10 14 16 14 9 5 2 1 0 0 0 0 0 0 0 0 1 1 1 1 0
0 0 0 0 0 0 0 0 0 1 2 4 9 22 47 69 75 69 61 49 36 24 18 16 16 13 9 7 8 11 12 10 7 4 2 0 0 0 0 0 0 0 0 0 0 0 0 0 0
0 0 0 0 0 0 0 0 0 1 3 8 18 38 64 81 84 82 75 65 51 37 24 19 19 18 13 11 11 11 10 8 6 4 2 1 1 0 0 1 0 0 0 0 0 0 0 0 0
0 0 0 0 0 0 0 0 0 1 2 8 24 50 74 85 86 84 81 73 61 45 30 23 23 23 22 21 19 17 13 9 7 5 2 2 3 2 2 1 1 0 0 0 0 0 0 0 0
0 0 0 0 0 0 0 0 0 1 2 9 26 54 76 83 83 82 79 72 60 49 37 30 31 32 34 33 27 21 16 11 8 7 5 4 5 5 4 3 2 0 0 0 0 0 0 0 0
0 0 0 0 0 0 0 0 0 1 6 14 31 53 68 74 75 76 73 64 56 49 42 39 41 43 43 41 32 23 17 12 10 10 8 6 7 7 6 5 2 0 0 0 0 0 0 1 1
0 0 0 0 0 0 0 0 0 3 10 20 32 47 56 61 65 66 64 59 53 48 45 46 48 47 46 43 34 24 17 13 11 11 11 9 9 8 6 3 1 0 0 0 0 0 0 1 2
0 0 0 0 0 0 0 0 2 5 12 19 29 40 48 54 57 57 56 53 48 43 43 45 45 44 43 41 34 25 18 13 12 12 13 11 10 10 7 3 1 0 0 1 1 0 0 1 1
0 0 0 0 0 0 0 1 4 7 11 16 25 38 46 50 50 50 49 44 38 34 35 35 35 36 38 40 37 28 21 16 14 13 13 12 11 9 7 3 2 1 1 1 1 0 1 1 1
0 0 0 0 0 0 0 1 5 8 9 14 25 36 42 45 45 44 42 35 29 27 28 27 27 30 35 39 39 32 26 22 18 16 15 12 9 7 5 4 4 3 2 1 1 1 1 1 1
0 0 0 0 0 0 0 1 3 6 7 12 23 32 36 37 40 40 36 30 25 25 28 26 25 28 33 38 38 32 26 23 21 19 16 11 8 6 4 5 6 4 2 2 2 2 1 0 0
0 0 0 0 0 0 0 0 3 5 6 9 18 26 29 29 31 34 32 28 27 30 31 31 29 29 32 35 36 32 25 22 21 19 16 11 7 6 6 6 6 6 5 4 4 3 1 0 0
0 0 0 0 0 0 0 0 2 4 5 7 13 20 23 24 26 29 29 28 31 34 33 31 31 30 28 29 31 30 27 25 24 21 16 11 7 6 5 5 5 6 7 6 5 3 1 0 0
0 0 0 0 0 0 0 0 1 4 5 6 10 14 16 18 22 24 24 26 30 31 28 26 27 28 25 23 23 24 25 24 24 23 18 13 10 7 4 3 3 5 6 6 5 4 2 0 0
0 0 0 0 0 0 0 0 1 3 4 5 7 9 10 11 15 17 19 22 24 23 19 18 21 24 22 18 15 14 17 20 22 24 21 18 15 9 5 3 2 4 5 4 3 3 2 1 1
0 0 0 0 0 0 0 0 0 1 2 4 6 8 8 8 10 13 16 18 18 16 13 12 15 17 15 12 10 9 12 15 19 20 20 20 17 11 6 4 3 4 4 3 1 1 2 2 2
0 0 0 0 0 0 0 0 0 0 1 3 5 7 10 10 10 12 15 16 15 12 9 8 9 10 9 7 6 7 9 12 13 13 14 15 15 11 7 5 5 6 5 4 3 2 2 2 2
0 0 0 0 0 0 0 0 0 0 0 1 2 6 10 12 11 12 13 14 12 8 6 5 6 6 5 4 4 5 7 9 8 7 8 9 10 9 7 6 6 7 6 5 4 4 4 4 4
0 0 0 0 0 0 0 0 0 0 1 1 1 5 10 13 12 11 11 11 8 4 2 3 3 3 3 4 4 4 7 8 6 5 5 5 5 6 7 6 5 5 5 5 5 5 5 6 7
0 0 0 0 0 0 0 0 0 1 2 2 2 6 11 12 11 10 9 7 4 1 1 2 2 2 2 3 3 3 5 6 6 5 4 3 3 4 6 6 5 4 5 6 8 8 7 7 7
0 0 0 0 0 0 0 0 1 4 4 3 4 7 10 9 7 7 7 6 3 1 0 1 2 2 3 2 1 1 2 3 4 4 3 3 4 5 6 7 7 7 9 12 12 10 8 8 7
0 0 0 0 0 0 0 0 2 5 6 5 5 7 8 5 3 3 5 6 4 2 0 0 1 1 1 1 0 1 1 1 3 3 3 5 6 8 9 9 11 12 13 16 15 10 7 7 7
0 0 0 0 0 0 0 1 3 6 7 6 6 6 5 3 1 2 5 6 4 1 0 0 0 0 0 0 1 1 1 1 2 3 4 6 9 10 11 13 14 14 16 17 15 10 5 5 6

GEFSSGP_con_prob3kmehi_138.txt.gz
EHI
2 8 18 23 17 9 3 1 0 0 0 0 0 1 2 2 1 3 16 44 65 58 43 40 34 19 9 8 6 3 1 0 0 0 0 0 0 0 0 0 0 0 0 0 0 0 0 0 0
2 8 16 17 12 6 1 0 0 0 0 0 0 0 1 1 0 7 26 52 64 55 43 40 36 24 12 8 6 4 2 0 0 0 0 0 0 0 0 0 0 0 0 0 0 0 0 0 0
1 5 9 10 7 3 0 0 0 0 0 0 0 1 2 2 5 17 40 60 62 50 44 45 40 29 16 9 7 5 2 0 0 0 0 0 0 0 0 0 0 0 0 0 0 0 0 0 0
1 2 3 4 3 1 0 0 0 0 0 0 1 5 9 10 16 31 49 62 62 50 44 45 41 31 20 11 8 6 3 1 0 0 0 0 0 0 0 0 0 0 0 0 0 0 0 0 0
1 1 1 1 1 0 0 0 0 0 0 0 4 13 19 20 27 38 48 60 64 54 45 42 39 32 21 12 9 7 4 2 0 0 0 0 0 0 0 0 0 0 0 0 0 0 0 0 0
1 0 0 0 0 0 0 0 0 0 0 1 7 19 26 28 34 37 41 53 64 61 50 41 36 29 20 13 9 7 6 3 1 0 0 0 0 0 0 0 0 0 0 0 0 0 0 0 0
0 0 0 0 0 0 0 0 0 0 0 1 8 22 32 39 42 37 36 47 62 66 54 40 33 26 17 11 8 7 6 5 3 1 0 0 0 0 0 0 0 0 0 0 0 0 0 0 0
0 0 0 0 0 0 0 0 0 0 0 1 8 25 44 54 51 43 38 45 60 65 52 36 29 24 15 8 7 6 6 6 3 1 0 0 0 0 0 0 0 0 0 0 0 0 0 0 0
0 0 0 0 0 0 0 0 0 1 2 6 17 36 56 63 59 51 46 49 61 64 48 31 28 24 14 7 6 6 6 5 3 1 0 0 0 0 0 1 1 0 0 0 0 0 0 0 0
0 0 0 0 0 0 0 0 0 2 6 13 28 48 61 66 65 61 57 60 68 67 48 34 31 25 14 10 9 6 5 5 3 2 1 0 0 1 2 3 2 1 0 0 0 0 0 0 0
0 0 0 0 0 0 0 0 0 2 6 14 29 50 64 69 69 66 64 70 76 70 55 45 42 34 24 20 14 8 6 7 6 5 4 1 1 2 4 5 3 1 0 0 0 0 0 0 0
0 0 0 0 0 0 0 0 0 2 5 10 26 49 65 70 70 69 70 77 80 73 62 60 60 54 48 38 21 11 10 11 11 11 7 2 2 4 7 6 3 1 1 1 1 2 1 1 1
0 0 0 0 0 0 0 0 1 3 5 11 26 48 64 69 70 75 79 83 84 77 69 70 73 73 71 58 35 21 19 19 20 18 12 7 6 8 12 11 6 4 4 3 4 5 4 4 3
0 0 0 0 0 0 0 1 2 5 7 13 28 47 63 69 73 80 85 86 86 82 77 76 78 80 79 67 48 35 30 26 27 28 23 16 14 17 18 13 10 9 10 10 9 7 5 4 2
0 0 0 0 0 0 1 2 5 6 8 15 29 48 65 71 73 78 84 84 83 82 82 79 76 77 76 67 53 41 35 31 31 36 33 24 24 28 23 14 10 11 16 18 13 8 3 1 1
0 0 0 0 0 0 1 3 7 9 10 15 27 47 66 72 71 73 78 78 78 80 81 77 72 72 72 66 55 45 42 41 41 41 37 30 31 34 26 16 12 13 17 17 13 7 3 1 1
0 0 0 0 0 0 1 3 8 11 12 14 24 42 62 70 69 69 72 73 73 74 74 72 69 69 70 67 60 54 53 53 49 46 42 38 37 35 27 21 19 16 15 13 9 7 5 2 2
0 0 0 0 0 0 1 3 8 12 14 15 23 39 58 67 68 69 70 69 68 68 69 69 69 69 68 64 60 56 54 51 48 47 48 44 39 33 25 23 23 19 14 11 10 10 7 3 2
0 0 0 0 0 0 1 3 7 11 15 17 25 39 56 66 69 69 68 65 63 63 66 67 67 65 63 60 56 53 46 41 40 43 47 44 38 31 24 22 24 21 16 13 13 11 6 2 1
0 0 0 0 0 0 1 3 5 10 14 17 25 39 53 62 68 69 65 60 59 61 63 64 62 60 56 55 55 51 43 37 36 39 42 39 35 29 23 24 25 23 20 16 12 9 4 1 0
0 0 0 0 0 0 1 2 5 11 14 16 23 35 47 54 62 66 62 58 58 58 59 59 59 57 53 52 51 47 42 38 36 37 36 33 30 27 25 25 25 22 20 15 11 7 4 2 1
0 0 0 0 0 0 0 1 6 11 13 16 22 31 39 46 55 62 61 58 57 56 56 56 57 55 52 50 45 40 38 37 37 38 35 30 27 27 27 26 26 23 19 14 10 8 7 4 2
0 0 0 0 0 0 0 1 5 9 11 15 22 29 35 41 49 56 57 55 53 52 52 53 54 53 50 46 41 38 37 36 37 38 37 32 28 29 30 30 29 26 21 17 14 13 11 8 6
0 0 0 0 0 0 0 1 3 6 8 13 21 28 34 38 44 50 53 51 49 48 49 50 50 50 46 41 38 36 35 33 33 34 33 31 28 30 33 32 32 29 25 22 21 19 15 12 10
0 0 0 0 0 0 1 1 2 3 5 10 17 25 33 38 41 46 49 49 45 43 44 45 46 43 38 35 32 30 28 26 25 25 25 24 26 32 34 34 35 34 28 24 23 21 17 14 13
0 0 0 0 0 0 0 1 1 2 3 5 11 20 29 37 41 44 46 44 38 35 36 38 37 34 30 28 26 23 22 19 18 20 20 19 23 30 37 38 37 34 26 21 22 21 17 15 15
0 0 0 0 0 0 0 1 2 3 3 3 6 14 25 34 37 39 39 34 28 27 29 29 28 27 24 21 18 16 17 16 15 17 18 17 20 28 37 39 34 29 24 22 22 20 16 16 16
0 0 0 0 0 0 0 2 4 5 5 5 7 14 24 29 31 33 33 28 24 24 26 25 23 23 20 15 11 10 12 15 14 15 17 18 22 31 38 37 33 28 25 24 22 19 14 14 14
0 0 0 0 0 0 0 2 4 6 6 7 10 16 23 25 27 31 31 28 25 24 23 22 20 18 15 12 10 10 12 15 15 15 18 23 28 35 39 38 34 29 25 23 21 17 12 10 9
0 0 0 0 0 0 0 1 4 7 6 7 10 16 23 25 27 32 32 29 27 23 20 20 18 15 12 11 13 13 14 16 17 17 20 27 33 36 38 39 36 28 23 23 21 15 10 7 6

GEFSSGP_con_prob3kmehi_144.txt.gz
EHI
7 3 0 1 2 1 0 0 0 0 1 2 4 5 5 2 1 1 4 13 22 24 19 18 20 19 15 11 6 4 1 1 2 2 2 2 1 0 0 0 0 0 0 0 0 0 0 0 0
3 1 0 1 2 1 0 0 0 2 5 8 8 8 6 4 2 2 6 17 28 29 23 22 25 25 20 13 7 4 2 1 1 1 1 1 0 0 0 0 0 0 0 0 0 0 0 0 0
0 0 0 1 2 1 0 0 2 5 12 15 12 10 8 6 7 8 15 29 39 36 27 27 34 34 26 16 7 4 3 2 1 0 0 0 0 0 0 0 0 0 0 0 0 0 0 0 0
0 0 0 1 1 1 0 0 3 8 15 18 18 14 10 13 20 26 33 45 52 45 33 34 41 39 30 19 9 5 3 3 1 0 0 0 0 0 0 0 0 0 0 0 0 0 0 0 0
0 0 0 0 1 1 0 1 4 10 17 23 25 17 14 26 44 51 52 57 61 55 43 41 46 42 31 21 13 7 4 3 2 1 0 0 0 0 0 0 0 0 0 0 0 0 0 0 0
0 0 0 0 0 0 0 1 6 14 21 29 30 20 20 41 62 67 62 59 64 64 55 48 46 40 31 22 15 9 5 4 3 1 0 0 0 0 0 0 0 0 0 0 0 0 0 0 0
0 0 0 0 0 0 0 2 8 16 24 30 32 27 29 50 68 71 65 60 62 65 60 51 42 35 28 21 15 9 5 3 3 2 1 0 0 0 0 0 0 0 0 0 0 0 0 0 0
0 0 0 0 0 0 0 1 7 17 24 27 31 34 42 60 73 73 68 62 59 57 54 48 40 33 27 19 14 9 5 3 3 3 2 1 0 0 0 0 0 0 0 0 0 0 0 0 0
0 0 0 0 0 0 0 2 8 20 29 30 32 42 58 74 81 79 73 67 61 52 45 41 38 34 27 18 12 9 6 3 3 3 2 1 0 0 0 0 0 0 0 0 0 0 0 0 0
0 0 0 0 0 0 0 3 11 23 34 38 41 53 70 83 87 84 78 73 64 53 43 37 36 33 25 16 11 9 7 4 3 3 2 1 0 0 0 0 0 0 0 0 0 0 1 1 0
0 0 0 0 0 0 2 4 10 19 30 42 50 61 74 84 87 85 81 76 67 55 45 37 33 29 22 16 11 9 7 5 4 3 2 1 0 0 0 0 0 0 0 0 0 0 1 1 1
0 0 0 0 0 1 3 5 7 12 24 40 53 63 71 77 81 82 81 77 69 59 48 39 32 26 22 17 12 9 8 6 4 3 2 1 0 0 0 0 0 0 0 0 0 0 1 1 0
0 0 0 0 1 3 6 7 7 10 24 42 55 62 66 69 74 77 79 77 71 61 51 41 32 25 22 18 14 11 9 6 4 3 1 0 0 0 0 0 0 0 0 0 0 0 0 0 0
0 0 0 0 2 5 7 8 8 15 32 49 57 60 63 65 67 71 74 75 72 63 53 43 34 27 23 20 16 13 10 6 4 2 1 0 0 0 0 0 0 0 0 0 0 0 0 0 0
0 0 0 0 1 4 6 6 9 22 40 52 56 58 60 61 63 66 70 74 72 65 58 49 38 31 27 22 18 15 11 8 5 2 1 0 0 0 0 0 0 0 0 0 0 0 0 0 0
0 0 0 0 0 2 4 4 9 23 40 49 53 55 55 53 55 60 67 72 73 69 64 55 45 37 31 24 18 14 12 9 6 3 1 1 1 1 1 1 1 0 0 0 0 0 0 0 0
0 0 0 0 0 1 2 3 7 19 32 41 47 51 49 45 46 53 62 70 73 73 68 59 51 44 35 26 19 15 11 8 6 3 1 0 1 2 2 2 2 1 0 0 0 0 0 0 0
0 0 0 0 0 1 2 3 6 14 24 32 39 44 44 42 44 50 59 67 72 72 67 60 55 49 40 31 26 21 14 8 6 4 2 1 1 2 3 3 2 1 0 0 0 0 0 0 0
0 0 0 0 0 1 2 3 5 10 18 25 33 39 42 45 49 54 59 65 69 68 63 59 56 52 44 36 31 27 20 14 10 8 5 3 2 3 3 3 3 1 0 0 0 0 0 0 0
0 0 0 0 0 1 2 3 5 9 14 21 28 34 40 49 56 58 59 63 65 63 61 58 55 52 46 37 30 24 21 18 15 12 9 6 4 3 3 3 3 2 1 0 0 0 0 0 0
0 0 0 0 0 0 1 3 4 7 13 19 25 31 39 49 57 60 61 62 61 59 58 56 54 51 46 37 28 21 18 17 16 13 10 8 5 3 3 3 3 2 1 0 0 0 0 0 0
0 0 0 0 0 0 1 2 3 5 10 17 23 30 38 47 55 59 60 60 58 55 54 53 52 48 44 37 28 21 17 15 13 11 10 8 5 3 3 4 3 1 0 0 0 0 0 0 0
0 0 0 0 0 0 0 1 1 3 7 13 20 28 36 44 51 56 57 55 53 51 50 49 48 44 39 33 27 20 15 11 9 8 7 6 4 3 3 4 3 1 0 0 0 0 0 0 0
0 0 0 0 0 0 0 0 0 1 4 8 15 25 34 40 47 51 52 50 48 46 44 42 40 37 33 29 23 17 12 7 6 5 5 5 5 4 4 4 2 0 0 0 0 0 0 0 0
0 0 0 0 0 0 0 0 0 1 3 6 12 20 29 35 41 46 48 46 43 39 35 34 31 28 27 25 20 15 10 6 3 2 3 4 4 4 5 4 2 0 0 0 0 0 0 0 0
0 0 0 0 0 0 0 0 1 2 5 8 13 18 24 31 38 43 44 43 39 34 31 28 25 22 20 20 17 12 7 4 1 1 2 2 3 3 4 3 1 0 0 0 0 0 0 0 0
0 0 0 0 0 0 0 0 1 3 6 10 15 18 22 29 37 40 40 38 33 30 27 25 21 16 14 14 12 8 4 1 0 0 1 1 1 1 1 1 0 0 0 0 0 0 0 0 0
0 0 0 0 0 0 0 0 0 1 4 7 12 16 18 24 31 35 34 29 25 23 21 19 14 11 10 10 8 3 1 0 0 0 0 0 0 0 0 0 0 0 0 1 1 0 0 0 0
0 0 0 0 0 0 0 0 1 1 2 4 8 11 14 18 23 25 24 20 17 15 14 12 10 8 9 8 6 2 0 0 0 0 0 0 0 0 0 0 0 0 1 2 2 1 0 0 0
0 0 0 0 0 0 0 1 2 3 3 3 6 9 13 16 19 19 19 16 12 11 10 9 8 8 9 9 6 3 1 0 0 0 0 0 0 0 0 0 0 0 1 2 2 1 0 0 0

GEFSSGP_con_prob3kmehi_150.txt.gz
EHI
0 0 0 0 0 0 0 0 0 0 0 0 0 0 0 0 0 0 1 3 11 17 17 18 20 21 20 21 22 21 20 17 15 13 9 5 2 1 0 0 0 0 0 0 0 0 0 0 0
0 0 0 0 0 0 0 0 0 1 1 2 1 1 0 0 0 1 1 5 14 20 17 17 22 23 22 24 25 23 20 16 13 10 7 3 1 0 0 0 0 0 0 0 0 0 0 0 0
0 0 0 0 0 0 0 0 1 3 4 5 4 3 1 0 1 2 3 10 19 20 16 18 25 27 25 27 27 23 18 13 10 8 5 2 0 0 0 0 0 0 0 0 0 0 0 0 0
0 0 0 0 0 0 0 0 2 5 6 7 7 5 2 0 2 6 12 20 25 21 16 22 31 32 28 27 26 22 16 11 8 7 5 1 0 0 0 0 0 0 0 0 0 0 0 0 0
0 0 0 0 0 0 0 1 4 7 8 8 8 7 3 2 6 15 23 29 32 28 21 27 38 38 30 26 25 22 16 10 7 5 3 1 0 0 0 0 0 0 0 0 0 0 0 0 0
0 0 0 0 0 0 1 2 5 8 10 10 10 8 6 5 12 23 28 31 36 39 33 32 38 36 27 23 24 22 16 10 6 4 1 0 0 0 0 0 0 0 0 0 0 0 0 0 0
0 0 0 0 0 0 1 2 5 9 12 13 13 12 10 12 19 29 34 36 41 47 44 38 33 29 24 20 20 19 15 9 5 3 1 0 0 0 0 0 0 0 0 0 0 0 0 0 0
0 0 0 0 0 0 0 1 4 10 15 16 14 14 18 26 35 43 46 46 49 50 47 41 34 28 22 18 16 16 13 8 5 4 2 1 0 0 0 0 0 0 0 0 0 0 0 0 0
0 0 0 0 0 0 0 1 3 10 17 18 15 19 35 52 59 59 57 55 54 49 43 40 38 32 25 19 15 13 10 7 5 4 2 1 0 0 0 0 0 0 0 0 0 0 0 0 0
0 0 0 0 0 0 0 1 3 9 15 18 21 35 59 73 71 65 60 57 54 49 42 37 37 35 30 22 16 13 10 6 6 5 3 1 0 0 0 0 0 0 0 0 0 0 0 0 0
0 0 0 0 0 0 0 1 3 6 8 16 31 54 73 77 69 61 56 52 51 50 44 38 37 36 32 25 20 16 12 8 7 5 3 1 0 0 0 0 0 0 0 0 0 0 0 0 0
0 0 0 0 0 0 1 1 2 3 5 16 39 63 76 74 63 55 50 45 46 50 47 41 39 37 32 26 22 19 14 10 8 5 2 1 0 0 0 0 0 0 0 0 0 0 0 0 0
0 0 0 0 0 0 1 2 1 2 8 23 45 65 74 69 58 50 44 41 43 48 48 45 41 38 32 27 23 19 14 10 7 4 2 0 0 0 0 0 0 0 0 0 0 0 0 0 0
0 0 0 0 0 0 1 2 1 4 15 32 50 64 69 65 57 51 45 39 39 43 45 44 43 38 32 28 23 19 15 11 8 5 3 1 1 1 0 0 0 0 0 0 0 0 0 0 0
0 0 0 1 1 1 0 1 2 8 21 38 52 61 63 59 55 53 49 41 37 39 41 42 42 37 31 26 21 17 14 11 8 5 4 3 2 1 0 0 0 0 0 0 0 0 0 0 0
0 0 0 1 1 1 0 1 3 10 23 37 48 54 54 51 51 51 48 43 40 39 38 39 40 35 28 22 18 15 13 9 6 4 3 3 2 1 0 0 0 0 0 0 0 0 0 0 0
0 0 0 0 0 0 0 0 3 11 22 31 39 44 46 45 45 44 44 44 44 41 39 37 35 32 26 22 18 14 11 7 4 3 1 1 1 1 0 0 0 0 0 0 0 0 0 0 0
0 0 0 0 0 0 0 0 3 9 17 22 26 32 38 39 36 35 39 44 45 45 42 35 30 26 24 22 17 12 8 5 3 2 1 0 0 0 0 1 0 0 0 0 0 0 0 0 0
0 0 0 0 0 0 0 1 3 6 11 15 18 25 31 29 25 27 36 43 46 47 44 36 29 25 23 21 17 11 7 4 3 2 1 1 0 0 0 0 0 0 0 0 0 0 0 0 0
0 0 0 0 1 1 1 1 2 4 7 11 14 20 25 23 20 24 33 42 46 46 43 39 34 29 25 20 16 10 6 3 2 2 2 2 1 0 0 0 0 0 0 0 0 0 0 0 0
0 0 0 0 1 2 2 1 1 2 5 8 11 15 19 20 21 25 32 40 45 45 43 41 37 31 26 21 16 10 7 4 2 2 2 2 1 0 0 0 0 0 0 0 0 0 0 0 0
0 0 0 0 0 1 1 1 0 1 3 7 10 12 13 16 21 27 31 37 43 45 43 41 38 33 29 24 17 13 10 5 2 1 1 1 0 0 0 0 0 0 0 0 0 0 0 0 0
0 0 0 0 0 0 0 0 0 1 2 5 9 11 11 13 19 26 30 35 40 42 41 39 37 35 32 26 19 14 10 6 3 1 0 0 0 0 0 0 0 0 0 0 0 1 0 0 0
0 0 0 0 0 0 0 0 0 0 1 2 4 7 8 9 15 22 26 31 36 37 37 37 36 35 33 26 19 13 8 6 4 2 1 1 1 0 0 0 0 0 0 0 0 0 0 0 0
0 0 0 0 0 0 0 0 0 0 0 0 1 3 6 7 11 18 22 27 33 35 34 34 32 32 30 26 19 11 6 4 3 3 3 3 2 1 0 0 0 0 0 0 0 0 0 0 0
0 0 0 0 0 0 0 0 0 0 0 0 0 1 5 8 11 15 20 25 30 32 31 27 25 25 25 24 18 10 4 2 2 2 3 3 3 2 2 1 0 0 0 0 0 0 0 0 0
0 0 0 0 0 0 0 0 0 0 0 0 0 1 4 8 11 13 16 21 26 27 24 20 18 18 20 18 13 8 4 1 0 1 2 2 3 3 2 2 1 0 0 0 0 0 0 0 0
0 0 0 0 0 0 0 0 0 0 0 0 0 0 2 6 10 10 10 14 19 19 16 14 13 14 14 12 9 6 5 2 0 0 0 1 2 3 2 2 2 0 0 0 0 0 0 0 0
0 0 0 0 0 0 0 0 0 0 0 0 0 0 1 4 8 7 6 8 11 10 9 9 9 9 9 8 6 6 5 2 0 0 0 0 1 2 3 2 1 0 0 0 0 0 0 0 0
0 0 0 0 0 0 0 0 0 0 0 0 0 0 1 4 6 6 5 6 6 6 6 5 6 6 7 6 5 4 4 2 0 0 0 0 0 1 3 2 1 0 0 0 0 0 0 0 0

GEFSSGP_con_prob3kmehi_156.txt.gz
EHI
0 0 1 4 6 3 0 0 0 0 0 0 0 0 0 0 0 0 0 0 3 7 8 6 5 8 13 21 27 27 24 18 11 6 4 3 2 1 0 0 0 0 0 0 0 0 0 0 0
0 0 2 4 3 1 0 0 0 0 0 0 0 0 0 0 0 0 0 1 4 8 8 7 7 10 15 22 27 28 24 18 10 6 4 2 1 0 0 0 0 0 0 0 0 0 0 0 0
0 0 1 2 1 0 0 0 0 0 0 0 0 1 1 0 0 1 2 4 6 8 9 10 11 13 16 21 26 26 21 14 7 4 3 1 0 0 0 0 0 0 0 0 0 0 0 0 0
0 0 0 0 0 0 0 0 0 0 0 0 1 2 3 1 1 4 7 7 7 8 10 13 14 13 14 16 20 19 14 9 5 4 2 1 0 0 0 0 0 0 1 1 0 0 0 0 0
0 0 0 0 0 0 0 0 0 0 0 0 1 3 5 4 4 8 11 9 8 8 10 13 15 12 11 12 13 11 9 6 5 4 2 1 0 0 0 0 0 0 1 1 0 0 0 0 0
0 0 0 0 0 0 0 0 0 0 0 1 1 4 9 10 9 10 10 8 6 6 9 13 13 11 9 9 9 8 6 4 4 3 2 1 0 0 0 0 0 0 1 1 0 0 0 0 0
0 0 0 0 0 0 0 0 0 0 0 0 1 5 15 21 19 14 9 6 5 5 8 11 10 8 8 7 7 7 5 4 3 3 2 1 0 0 0 0 1 0 0 0 0 0 0 0 0
0 0 0 0 0 0 0 0 0 0 0 1 1 7 24 38 37 26 17 11 9 7 8 9 8 6 6 7 7 7 6 4 3 2 1 0 0 0 0 0 0 0 0 0 0 0 0 0 0
0 0 0 0 0 0 0 0 0 0 0 2 5 16 41 60 59 45 32 24 21 17 13 11 10 8 7 7 7 6 5 5 3 2 1 0 0 0 0 0 0 0 0 0 0 0 0 0 0
0 0 0 0 0 0 0 0 0 0 0 2 12 32 58 73 70 59 46 39 37 31 23 17 15 13 9 8 8 6 4 4 3 3 2 1 0 0 0 1 1 0 0 0 0 0 0 0 0
0 0 0 0 0 0 0 0 0 0 0 3 19 46 67 74 70 62 54 50 47 41 31 24 21 18 14 11 9 5 4 3 3 3 2 1 0 0 1 2 2 1 0 0 0 0 0 0 0
0 0 0 0 0 0 0 0 0 0 0 5 25 53 70 70 65 59 55 54 53 46 37 30 25 21 18 15 11 7 5 3 4 4 3 1 0 1 2 3 3 1 0 0 0 0 0 0 0
0 0 0 0 0 0 0 0 0 0 1 8 28 54 67 65 59 56 55 57 57 52 43 35 31 27 23 19 14 9 6 4 5 6 4 1 0 1 2 3 3 2 1 0 0 0 0 0 0
0 0 0 0 0 0 0 0 0 0 1 9 27 46 56 56 55 56 58 60 61 57 47 41 38 35 30 23 16 10 7 5 5 6 4 1 0 0 1 3 4 4 2 1 1 0 0 0 0
0 0 0 0 0 0 0 0 0 0 2 8 20 32 40 44 48 55 58 60 59 56 50 44 40 39 35 27 17 10 7 6 6 7 6 2 0 0 0 2 5 5 3 2 1 0 0 0 0
0 0 0 0 0 0 0 0 0 0 2 7 14 21 28 34 40 47 52 53 52 50 49 45 39 38 38 31 21 13 9 7 8 10 8 4 2 1 1 2 3 4 3 2 1 0 0 0 0
0 0 0 0 0 0 0 0 0 0 2 6 12 17 23 30 36 42 46 47 45 44 46 46 41 39 39 35 27 17 11 9 10 11 9 7 5 3 1 1 2 3 3 2 1 1 0 0 0
0 0 0 0 0 0 0 0 0 0 2 5 11 18 23 28 34 39 44 43 41 40 43 45 45 43 41 38 32 23 15 12 11 11 9 8 6 5 4 3 3 4 4 3 2 1 0 0 0
0 0 0 0 0 0 0 0 0 1 3 6 11 19 24 26 30 38 42 40 38 38 41 45 47 46 45 43 37 30 21 14 11 10 8 8 8 8 7 6 6 6 5 4 3 1 1 0 1
0 0 0 0 0 0 0 0 1 2 2 4 9 16 21 24 29 37 40 37 36 38 42 46 48 48 48 48 43 36 28 18 12 9 9 9 10 10 7 7 8 7 6 4 2 2 2 2 2
0 0 0 0 0 0 0 0 1 2 2 2 5 10 15 21 27 34 36 35 34 37 42 46 47 47 46 46 43 38 31 22 16 14 12 11 12 11 7 5 6 6 5 3 2 2 3 3 3
0 0 0 0 0 0 0 0 2 2 2 2 5 8 14 20 25 28 32 34 33 35 39 43 44 43 40 39 39 36 31 24 21 20 16 12 12 12 8 5 4 4 3 2 2 2 3 3 3
0 0 0 0 0 0 0 0 1 1 1 1 5 9 14 21 25 26 30 34 35 34 38 42 42 39 37 35 34 34 30 24 21 20 17 13 11 11 8 6 4 3 2 2 2 2 1 2 2
0 0 0 0 0 0 0 0 0 0 0 1 6 11 15 20 24 25 27 32 34 36 39 42 40 38 36 33 33 33 31 26 21 17 15 13 11 10 9 7 5 4 2 2 2 1 1 1 1
0 0 0 0 0 0 0 0 0 0 1 2 6 12 16 20 22 23 24 27 32 37 41 41 38 36 33 31 32 32 30 25 18 13 11 10 11 11 9 7 6 5 3 2 2 2 1 1 0
0 0 0 0 0 0 0 0 0 1 1 1 3 9 15 17 19 20 22 26 31 38 41 39 36 34 31 28 28 28 25 19 13 9 7 7 8 9 8 8 7 5 3 3 3 4 3 2 2
0 0 0 0 0 0 0 0 1 2 3 2 2 5 11 14 16 19 21 24 30 36 38 35 32 31 29 26 24 22 18 13 9 7 6 6 7 7 8 7 7 5 4 4 5 6 6 5 5
0 0 0 0 0 0 0 0 2 4 7 6 4 5 8 12 16 21 23 25 27 29 29 29 28 29 28 26 20 16 13 9 7 7 6 6 7 8 8 8 7 7 6 7 8 8 8 8 8
0 0 0 0 0 0 0 0 3 7 10 10 9 9 9 12 17 23 27 28 25 24 24 25 28 29 28 24 18 14 11 9 7 6 5 5 5 6 7 7 8 8 9 10 9 9 9 9 9
0 0 0 0 0 0 0 1 4 8 11 12 14 13 11 14 19 24 28 29 27 24 23 25 29 31 27 22 19 15 12 10 8 6 5 4 4 5 5 6 7 8 11 12 9 8 9 10 10

GEFSSGP_con_prob3kmehi_162.txt.gz
EHI
1 6 16 24 24 17 6 1 0 0 0 0 0 1 3 2 1 1 11 30 38 26 14 13 11 6 1 0 0 1 2 1 0 0 0 0 0 0 0 0 0 0 0 0 0 0 0 0 0
2 6 13 17 15 8 2 0 0 0 0 0 1 2 3 3 1 3 13 29 31 20 14 15 14 8 2 0 0 1 2 2 1 0 0 0 0 0 0 0 0 0 0 0 0 0 0 0 0
3 5 8 10 7 2 0 0 0 0 0 1 2 3 4 3 3 7 17 24 23 18 17 20 18 10 3 2 2 1 1 2 1 0 0 0 0 0 0 0 0 0 0 0 0 0 0 0 0
4 4 5 5 3 0 0 0 0 0 0 1 3 4 4 4 5 10 16 21 21 19 19 22 21 14 7 6 6 3 1 2 1 0 0 0 0 0 0 0 0 0 0 0 0 0 0 0 0
4 4 3 2 0 0 0 0 0 0 0 1 4 6 7 6 7 9 13 19 22 21 18 20 22 18 13 11 9 6 2 1 1 0 0 0 0 0 0 0 0 0 0 0 0 0 0 0 0
2 2 2 1 0 0 0 0 0 0 1 2 5 8 10 10 9 8 11 18 27 28 22 20 21 17 14 12 9 5 2 0 0 0 0 0 0 1 1 1 0 0 0 0 0 0 0 0 0
1 1 1 0 0 0 0 0 0 1 1 1 4 8 12 14 12 10 12 19 34 38 27 19 17 13 10 7 5 2 1 0 0 0 0 0 0 1 1 1 0 0 0 0 0 0 0 0 0
1 0 0 0 0 0 0 0 0 1 1 1 3 10 19 22 18 15 15 22 38 42 28 16 13 10 6 4 2 1 0 0 0 0 0 0 0 0 0 0 0 0 1 0 0 0 0 0 0
1 0 0 0 0 0 0 0 0 1 1 4 10 22 32 31 26 23 22 28 41 44 30 17 13 11 6 4 3 2 1 0 0 0 0 0 0 0 2 3 2 1 1 0 0 0 0 0 0
0 0 0 0 0 0 0 0 0 1 4 13 27 39 41 36 32 30 30 37 47 47 35 25 22 15 10 8 7 4 2 2 1 1 1 0 0 1 5 7 5 2 1 0 0 0 0 0 0
0 0 0 0 0 0 0 0 1 3 9 21 38 47 42 35 34 35 37 45 53 50 41 40 37 26 19 17 11 6 5 5 4 3 2 0 0 2 7 9 6 3 1 0 0 0 0 0 0
0 0 0 0 0 0 0 0 1 6 12 24 38 44 40 34 33 36 43 53 59 54 49 54 55 45 37 31 18 10 9 10 10 9 5 2 2 4 9 9 6 2 0 0 0 0 0 0 0
0 0 0 0 0 0 0 0 2 7 15 26 37 42 39 35 36 44 55 64 65 59 55 64 70 65 57 45 28 17 17 18 18 17 12 8 8 10 14 13 7 2 1 2 2 2 3 2 1
0 0 0 0 0 0 0 0 3 8 15 25 37 42 41 41 46 56 68 74 72 64 61 69 76 75 65 50 34 25 24 26 27 25 22 17 16 19 20 15 8 3 5 8 7 6 7 6 4
0 0 0 0 0 0 0 2 6 10 13 21 32 41 47 50 55 64 74 79 76 71 68 70 73 72 64 49 35 27 25 28 35 38 34 25 23 27 24 14 8 6 9 15 13 10 9 7 5
0 0 0 0 0 0 1 2 7 10 12 17 26 40 51 56 58 65 74 78 78 77 76 71 67 68 63 51 38 28 27 35 45 49 43 32 29 33 27 15 11 12 14 16 14 11 9 7 6
0 0 0 0 0 0 0 2 7 10 11 15 24 37 52 58 61 67 73 76 79 81 80 73 68 67 62 53 44 37 38 46 50 52 49 41 38 36 30 22 22 23 20 16 13 12 12 9 8
0 0 0 0 0 0 0 2 6 9 11 17 24 34 48 59 64 69 73 75 78 82 80 74 69 67 62 54 49 47 50 53 52 53 56 53 46 41 35 32 33 32 26 19 16 17 15 11 11
0 0 0 0 0 0 1 3 6 7 11 18 25 33 45 56 66 72 76 77 78 80 77 71 67 66 64 60 55 54 55 56 54 56 61 60 53 46 39 36 38 37 30 25 23 22 17 11 11
0 0 0 0 0 0 1 3 5 6 9 16 26 35 44 55 68 75 78 78 78 77 73 67 65 66 64 62 57 54 55 56 55 58 62 61 56 49 40 36 37 37 32 29 28 27 20 12 10
0 0 0 0 0 0 1 3 6 6 6 12 23 32 40 51 65 75 79 79 77 75 70 64 63 62 59 58 54 51 52 52 52 56 60 61 57 51 45 40 37 35 32 31 32 28 21 14 12
0 0 0 0 0 0 1 3 7 8 5 8 16 26 34 45 60 73 79 78 76 73 68 64 62 60 57 55 53 52 51 49 48 51 57 59 56 51 48 45 43 38 34 33 31 26 21 16 13
0 0 0 0 0 0 0 2 6 7 5 7 14 22 31 43 56 68 75 77 73 69 66 66 65 64 61 57 56 55 52 49 47 48 52 54 51 46 42 43 45 43 38 34 32 28 23 16 12
0 0 0 0 0 0 0 2 5 6 7 9 16 24 31 40 52 63 70 72 67 62 62 64 67 67 64 59 57 57 53 52 52 50 50 49 47 42 36 36 43 45 40 37 36 33 25 16 13
0 0 0 0 0 0 0 2 6 8 9 10 15 24 29 35 46 57 63 66 60 55 56 61 65 67 64 60 58 57 56 55 55 53 50 46 42 39 35 34 39 42 39 37 37 34 25 18 15
0 0 0 0 0 0 0 3 7 10 10 9 11 18 24 31 39 47 54 58 55 53 54 58 63 65 61 58 58 59 58 56 53 49 44 39 34 33 33 32 33 37 36 35 36 32 24 19 18
0 0 0 0 0 0 1 3 6 9 9 8 9 14 21 28 32 35 42 47 50 51 53 56 60 61 59 59 60 59 57 54 49 42 35 32 29 29 29 26 25 29 32 34 34 29 22 20 20
0 0 0 0 0 0 1 3 6 8 10 10 11 15 21 25 27 29 32 37 43 47 50 53 57 59 58 60 59 55 51 48 42 35 31 32 33 30 29 26 23 25 27 29 29 25 21 20 20
0 0 0 0 0 0 0 1 4 8 10 11 14 18 23 26 26 26 30 35 39 41 44 49 54 55 54 55 53 49 44 40 34 29 28 33 37 35 31 28 25 22 22 25 23 20 18 18 17
0 0 0 0 0 0 0 1 3 6 8 11 14 19 24 28 28 27 30 35 37 37 39 45 50 50 49 49 47 43 40 37 31 27 26 30 36 36 31 27 24 20 20 22 21 17 16 16 14

GEFSSGP_con_prob3kmehi_168.txt.gz
EHI
4 2 0 0 0 0 0 0 0 0 0 1 1 1 1 0 0 0 2 10 18 18 12 10 10 9 6 3 1 0 0 0 0 0 0 0 0 0 0 0 0 0 0 0 0 0 0 0 0
2 1 0 0 0 0 0 0 0 0 1 1 2 2 1 1 1 1 4 13 20 19 14 12 12 10 6 2 0 0 0 0 0 0 0 0 0 0 0 0 0 0 0 0 0 0 0 0 0
0 0 0 0 0 0 0 0 2 3 2 1 1 1 1 1 2 4 9 18 23 20 15 15 15 12 7 3 1 0 0 0 0 0 0 0 0 0 0 0 0 0 0 0 0 0 0 0 0
0 0 0 0 0 0 0 1 4 6 4 1 1 0 0 4 9 12 16 24 27 21 15 16 16 12 8 4 2 1 0 0 0 0 0 0 0 0 0 0 0 0 0 0 0 0 0 0 0
0 0 0 1 0 0 0 1 6 9 7 4 3 1 3 12 21 22 21 28 31 24 16 17 17 14 10 7 5 3 1 0 0 0 0 0 0 0 0 0 0 0 0 0 0 0 0 0 0
0 0 0 0 0 0 0 2 7 11 10 7 5 3 7 21 30 28 25 28 32 28 20 17 17 14 13 12 9 5 1 0 0 0 0 0 0 0 0 0 0 0 0 0 0 0 0 0 0
0 0 0 0 0 0 0 2 7 11 10 9 8 5 10 25 33 32 30 30 30 29 24 18 14 11 12 12 10 6 3 1 0 0 0 0 0 0 0 0 0 0 0 0 0 0 0 0 0
0 0 0 0 0 0 1 2 5 8 9 9 8 8 14 29 40 41 38 34 30 28 25 18 12 8 7 8 7 6 4 2 1 0 0 0 0 0 0 0 0 0 0 0 0 0 0 0 0
0 0 0 0 0 1 3 4 4 7 11 11 9 12 22 40 54 57 51 42 35 30 25 19 14 10 7 5 4 3 3 2 1 0 0 0 0 0 0 0 0 0 0 0 0 0 0 0 0
0 0 0 0 0 2 4 5 4 7 13 15 15 22 35 53 67 72 65 52 41 32 24 20 16 13 9 5 1 1 1 1 0 0 0 0 0 0 0 0 0 0 0 0 0 0 0 0 0
0 0 0 0 0 1 3 4 4 7 11 16 22 31 44 57 68 74 71 60 46 33 23 18 17 14 9 5 2 0 0 0 0 0 0 0 0 0 0 0 0 0 0 0 0 0 0 0 0
0 0 0 0 0 0 2 3 4 6 10 17 25 34 41 47 56 65 67 61 49 35 22 17 17 13 8 5 3 1 0 0 0 0 0 0 0 0 0 0 0 0 0 0 0 0 0 0 0
0 0 0 0 0 1 4 6 7 9 14 20 26 30 34 36 43 53 60 59 52 40 29 22 18 13 8 6 3 1 1 1 0 0 0 0 0 0 0 0 0 0 0 0 0 0 0 0 0
0 0 0 0 0 2 8 11 12 15 20 23 24 26 28 31 37 48 58 60 57 49 40 31 25 19 13 8 4 3 3 3 2 1 0 1 1 0 0 0 0 0 0 0 0 0 0 0 0
0 0 0 0 0 3 9 13 15 20 26 26 24 24 26 31 38 49 59 63 62 58 51 44 37 30 23 15 10 8 7 7 5 3 2 3 3 1 0 0 0 0 0 0 0 0 0 0 0
0 0 0 0 0 2 7 11 15 23 30 30 26 25 27 32 39 50 59 64 64 63 61 55 47 40 34 27 21 17 14 12 10 7 5 4 4 3 2 0 0 0 0 0 0 0 0 0 0
0 0 0 0 0 2 5 9 15 24 33 34 32 31 31 35 43 51 60 65 66 66 66 61 53 47 42 37 32 27 21 16 14 12 9 7 5 5 3 1 0 0 0 0 0 0 0 0 0
0 0 0 0 1 2 4 8 14 23 33 37 38 39 38 40 47 54 61 66 67 67 67 62 55 50 47 43 39 34 25 19 18 16 13 10 9 7 4 2 1 1 1 0 0 0 0 0 0
0 0 0 0 1 1 2 7 13 21 30 34 38 42 44 46 53 60 65 70 70 68 66 61 54 50 49 47 42 35 27 20 19 19 17 15 13 9 5 3 2 2 1 0 0 0 0 0 0
0 0 0 0 0 0 1 5 11 19 25 29 32 39 46 51 59 67 72 75 73 69 66 62 55 50 49 46 40 31 24 19 18 20 19 18 16 12 7 3 1 1 0 0 0 0 0 0 0
0 0 0 0 0 0 1 3 9 17 23 27 30 37 47 54 59 68 74 76 72 67 64 61 55 49 48 46 40 32 25 20 18 19 19 17 16 12 7 3 1 0 0 0 0 0 0 0 0
0 0 0 0 0 0 0 2 7 16 22 27 32 40 47 52 57 64 70 71 67 62 59 57 53 50 48 46 44 38 31 24 19 18 19 17 15 12 8 4 2 1 1 0 0 0 0 0 0
0 0 0 0 0 0 0 1 4 11 19 26 33 41 47 52 57 63 67 65 61 58 56 54 53 50 47 46 43 38 32 26 21 18 17 16 14 12 9 7 5 3 2 1 0 0 0 0 0
0 0 0 0 0 0 0 0 1 5 14 25 32 37 43 49 56 62 64 61 58 56 53 51 51 50 48 45 39 34 31 27 22 17 13 11 10 10 10 8 6 4 3 2 1 0 0 0 0
0 0 0 0 0 0 0 0 1 4 12 23 30 32 36 44 52 57 59 56 53 52 49 47 47 47 47 44 36 31 29 25 20 14 9 6 5 6 8 8 6 5 4 3 1 0 0 0 0
0 0 0 0 0 0 0 1 4 8 15 23 27 28 32 41 47 50 51 48 46 47 46 44 43 41 42 40 34 29 24 21 17 11 6 3 2 4 7 7 5 5 5 3 1 0 0 0 0
0 0 0 0 0 0 0 2 6 11 17 22 23 24 29 37 42 44 43 40 40 42 42 42 40 36 35 35 33 28 22 17 14 10 5 2 2 4 5 5 4 4 5 3 1 0 0 0 0
0 0 0 0 0 0 0 1 5 10 16 18 19 20 24 29 34 36 35 33 34 37 39 40 38 32 30 31 31 29 22 15 11 9 5 3 3 4 4 4 3 3 4 4 2 1 1 0 0
0 0 0 0 0 0 0 0 3 8 13 15 15 16 18 20 23 25 28 29 30 33 36 37 34 30 27 26 27 26 21 14 11 9 6 4 3 3 2 2 3 3 3 4 4 4 3 2 1
0 0 0 0 0 0 0 0 2 8 12 14 14 14 16 16 16 19 24 27 29 32 35 35 32 28 24 22 23 22 18 14 12 10 6 4 3 2 1 1 2 3 2 4 5 6 5 3 2

GEFSSGP_con_prob3kmehi_174.txt.gz
EHI
1 1 0 0 0 0 0 0 0 0 0 0 0 0 0 0 0 0 0 1 3 3 1 2 6 9 10 13 13 9 5 4 3 3 2 1 0 1 1 1 0 0 0 0 0 0 0 0 0
1 0 0 0 0 0 0 0 0 0 0 0 0 0 0 0 0 0 0 2 4 4 3 4 7 9 10 11 12 9 6 4 3 3 2 1 0 0 0 0 0 0 0 0 0 0 0 0 0
0 0 0 0 0 0 0 0 0 0 0 0 0 0 0 0 0 0 1 5 8 7 5 7 10 10 9 10 10 7 4 3 3 2 1 0 0 0 0 0 1 1 1 1 0 0 0 0 0
0 0 0 0 0 0 0 0 0 0 0 0 0 0 0 0 0 2 5 11 14 11 8 9 10 10 10 10 8 5 3 1 1 1 0 0 0 0 0 1 2 2 2 1 0 0 0 0 0
0 0 0 0 0 0 0 0 0 0 0 0 0 0 0 1 2 6 10 14 16 14 10 10 11 11 10 9 8 5 2 0 0 0 0 0 0 0 0 1 2 2 2 1 0 0 0 0 0
0 0 0 0 0 0 0 0 0 0 0 0 0 1 1 2 5 8 11 12 14 14 11 10 11 11 10 8 7 4 2 0 0 0 0 0 0 0 0 0 1 1 1 0 0 0 0 0 0
0 0 0 0 0 0 0 0 0 0 0 0 1 2 2 3 4 7 9 10 10 11 10 9 9 10 8 6 4 2 1 0 0 0 0 0 0 0 0 0 0 0 0 0 0 0 0 0 0
0 0 0 0 0 0 0 0 1 1 2 1 2 2 4 6 8 10 11 10 8 8 8 7 6 7 6 5 5 3 1 0 0 0 0 0 0 0 0 0 0 0 0 0 0 0 0 0 0
0 0 0 0 0 0 0 0 1 2 3 3 2 5 13 19 20 19 18 15 12 10 8 5 5 7 6 5 5 3 1 0 0 0 0 0 0 0 0 0 0 0 0 0 0 0 0 0 0
0 0 0 0 0 0 0 0 0 1 3 4 7 16 30 34 30 26 23 19 16 13 10 5 5 8 9 6 4 2 0 0 0 0 0 0 0 0 0 0 0 0 0 0 0 0 0 0 0
0 0 0 0 0 0 0 0 0 1 2 7 19 35 45 41 33 28 24 19 16 14 12 8 7 9 9 6 4 2 1 0 0 0 0 0 0 0 0 0 0 0 0 0 0 0 0 0 0
0 0 0 0 0 0 0 0 0 1 3 12 30 48 49 39 31 26 21 18 16 16 16 13 11 11 8 6 5 5 2 0 0 0 0 0 0 0 0 0 0 0 0 0 0 0 0 0 0
0 0 0 0 0 0 0 0 0 1 5 17 37 48 44 34 27 22 17 17 19 19 18 16 15 13 10 8 7 6 2 0 0 0 0 0 0 0 0 0 0 0 0 0 0 0 0 0 0
0 0 0 0 0 0 1 1 1 3 9 23 38 43 36 29 25 22 19 18 21 20 16 16 16 14 12 10 7 5 2 0 0 0 0 0 0 0 0 0 0 0 0 0 0 0 0 0 0
0 0 0 0 0 0 2 3 3 6 15 26 34 37 32 26 24 26 25 21 20 18 14 15 16 14 12 8 5 3 1 0 0 0 0 0 0 0 0 0 0 0 0 0 0 0 0 0 0
0 0 0 0 0 0 1 2 4 8 17 23 25 27 28 24 23 25 26 23 20 16 15 15 16 13 10 6 3 2 1 0 0 0 0 0 0 0 0 0 0 0 0 0 0 0 0 0 0
0 0 0 0 0 1 1 3 4 8 15 18 16 18 21 20 18 21 25 26 23 19 17 17 17 14 10 6 4 3 2 1 1 0 0 0 0 0 0 0 0 0 0 0 0 0 0 0 0
0 0 0 0 0 1 2 3 4 8 12 15 14 13 14 14 15 19 25 29 28 25 24 23 20 17 12 8 7 5 4 3 1 0 0 0 0 0 0 0 0 0 0 0 0 0 0 0 0
0 0 0 0 0 1 2 2 4 8 11 13 13 13 13 13 15 19 25 33 35 32 31 29 25 20 17 15 12 9 6 3 1 0 1 2 1 1 0 0 0 0 0 0 0 0 0 0 0
0 0 0 0 0 0 0 1 3 8 10 11 12 14 16 18 20 22 28 37 42 40 36 31 26 23 22 21 16 11 7 4 1 1 2 3 3 2 1 0 0 0 0 0 0 0 0 0 0
0 0 0 0 0 0 0 0 2 6 8 9 10 13 17 21 25 28 31 37 43 43 37 32 27 25 24 23 19 15 10 7 4 4 5 5 4 4 2 1 0 0 0 0 0 0 0 0 0
0 0 0 0 0 0 0 0 1 3 5 6 9 14 17 23 28 31 33 36 41 41 38 32 27 24 23 24 24 20 15 11 8 7 8 7 6 5 4 3 1 0 0 0 0 0 0 0 0
0 0 0 0 0 0 0 0 0 1 2 4 9 15 18 23 29 34 35 35 36 38 37 32 26 23 24 26 27 23 18 13 9 8 9 9 8 6 5 4 2 0 0 0 0 0 0 0 0
0 0 0 0 0 0 0 0 0 0 1 5 11 16 20 23 28 33 35 33 33 37 37 34 30 26 25 26 25 22 17 13 10 8 8 8 7 5 4 3 2 0 0 0 0 0 0 0 0
0 0 0 0 0 0 0 0 0 0 1 6 12 18 20 22 25 30 34 32 32 36 38 37 34 30 27 25 22 20 17 15 13 10 6 5 4 4 3 3 2 0 0 0 0 0 0 0 0
0 0 0 0 0 0 0 1 1 1 2 7 13 17 19 19 21 26 30 32 33 35 36 37 35 32 28 24 20 19 18 16 14 11 6 3 3 3 3 4 3 1 0 0 0 0 0 0 0
0 0 0 0 0 0 0 1 2 3 4 7 12 16 16 17 19 20 23 28 32 33 32 34 34 31 27 23 18 16 15 15 13 11 6 2 2 3 3 4 3 2 1 2 2 2 1 0 0
0 0 0 0 0 0 0 1 2 3 4 6 9 12 13 14 15 16 18 23 27 27 27 29 29 27 24 21 16 12 12 13 12 9 5 3 1 2 2 3 3 3 3 4 4 3 2 1 0
0 0 0 0 0 0 0 0 1 2 3 5 6 7 8 10 12 14 16 19 21 22 23 25 26 23 21 18 14 10 10 11 9 7 5 4 2 2 2 2 3 4 5 4 4 4 3 2 1
0 0 0 0 0 0 0 0 0 1 3 4 4 4 6 8 10 14 16 17 18 20 22 24 25 23 20 17 13 10 9 8 6 5 4 4 3 3 3 3 2 4 4 4 3 3 3 3 3

GEFSSGP_con_prob3kmehi_180.txt.gz
EHI
0 0 1 4 4 2 0 0 0 0 0 0 0 0 0 0 0 0 1 0 0 1 2 5 8 10 10 9 9 7 6 6 6 4 3 3 3 3 3 3 3 3 3 3 3 3 3 3 3
0 0 1 3 2 1 0 0 0 0 0 0 0 0 0 0 0 0 1 0 0 1 3 5 8 10 10 9 7 5 4 4 4 4 3 3 3 3 3 3 3 3 3 3 3 3 3 3 3
0 0 1 1 0 0 0 0 0 0 0 0 0 0 1 1 0 0 0 0 0 1 3 6 9 10 10 9 7 4 3 3 3 3 3 3 3 3 3 3 3 3 3 3 3 3 3 3 3
0 0 0 0 0 0 0 0 0 0 0 0 1 1 2 2 1 1 0 0 0 1 3 6 9 10 10 9 8 5 4 4 3 3 3 3 3 3 3 3 3 3 3 3 3 3 3 3 3
0 0 0 0 0 0 0 0 0 0 0 0 1 2 3 4 3 2 1 0 0 1 3 6 9 10 10 9 8 6 6 5 4 3 3 3 3 3 3 3 3 3 3 3 3 3 3 3 3
0 0 0 0 0 0 0 0 0 0 0 0 1 3 5 6 5 3 1 0 0 1 4 7 9 10 9 9 7 7 6 6 5 4 3 3 3 3 3 3 3 3 3 3 3 3 3 3 3
0 0 0 0 0 0 0 0 0 0 0 0 1 3 6 8 7 4 1 0 0 1 4 6 8 9 8 7 7 6 6 6 6 4 3 3 3 3 3 2 2 2 2 2 3 3 3 3 3
0 0 0 0 0 0 0 0 0 0 0 0 0 3 10 15 12 7 4 2 1 1 3 5 7 6 5 5 6 6 6 6 5 4 3 3 3 2 1 1 1 1 1 1 1 2 3 3 3
0 0 0 0 0 0 0 0 0 0 0 0 2 8 22 29 22 15 11 8 5 3 3 4 6 6 3 3 5 5 4 4 4 3 3 2 1 1 0 0 0 0 0 0 0 1 1 2 2
0 0 0 0 0 0 0 0 0 0 0 2 8 23 41 43 32 24 20 15 10 5 4 4 6 7 4 2 4 5 4 3 3 3 3 2 0 0 1 1 0 0 0 0 0 0 0 1 1
0 0 0 0 0 0 0 0 0 0 0 3 16 40 55 49 37 29 22 17 12 8 6 6 8 8 6 4 4 5 5 4 3 3 2 1 0 0 1 1 0 0 0 0 0 0 0 0 0
0 0 0 0 0 0 0 0 0 0 1 5 23 49 58 48 37 28 21 16 13 10 8 8 10 10 8 5 4 4 4 3 3 3 1 1 0 0 1 1 0 0 0 0 0 0 0 0 0
0 0 0 0 0 0 0 0 0 0 3 10 27 48 53 45 37 28 21 17 16 14 11 11 13 13 11 7 4 3 4 3 3 2 1 0 0 0 0 0 0 0 0 0 0 0 0 0 0
0 0 0 0 0 0 0 0 0 2 6 14 27 39 42 39 35 30 25 21 19 17 16 17 18 17 15 9 4 3 3 2 2 1 1 0 0 0 0 0 0 0 0 0 0 0 0 0 0
0 0 0 0 0 0 0 0 1 4 8 14 21 27 32 34 34 31 28 25 22 20 19 20 20 20 17 11 5 2 1 1 1 1 2 2 1 1 1 0 0 0 0 1 1 1 1 0 0
0 0 0 0 0 0 0 0 2 4 7 12 17 21 26 30 30 29 28 27 25 23 22 21 18 18 17 14 8 4 1 0 0 2 4 5 3 3 3 1 0 0 0 1 2 2 1 0 0
0 0 0 0 0 0 0 0 1 2 4 10 15 20 23 25 26 27 27 26 26 26 26 23 19 18 18 15 11 7 5 2 1 3 6 6 4 4 4 3 1 0 1 2 3 3 1 1 1
0 0 0 0 0 0 0 0 0 0 1 6 12 17 19 21 23 25 26 25 26 30 32 28 23 20 20 18 13 10 8 6 4 5 6 5 4 5 4 2 1 1 1 2 3 3 3 4 4
0 0 0 0 0 0 0 0 0 0 0 3 9 14 17 21 24 28 29 28 30 35 38 35 30 27 25 24 20 15 12 8 6 7 7 5 5 5 4 2 2 2 1 1 2 4 5 6 6
0 0 0 0 0 0 0 0 0 0 1 3 8 14 20 23 28 35 37 36 37 40 42 42 40 36 31 26 22 20 16 11 8 8 8 7 7 7 6 6 5 4 3 1 1 3 5 7 7
0 0 0 0 0 0 0 0 0 1 1 3 7 13 20 26 32 38 42 42 42 42 44 47 47 41 34 27 22 21 19 13 10 9 9 10 10 10 10 9 8 7 6 5 3 2 4 6 7
0 0 0 0 0 0 0 0 0 1 3 4 6 10 17 26 33 37 40 42 43 44 45 47 48 43 35 29 25 24 21 15 12 12 12 14 14 14 13 12 11 11 10 9 6 4 5 6 5
0 0 0 0 0 0 0 0 0 1 3 5 8 12 16 25 34 37 39 40 42 43 43 45 47 44 38 34 30 28 25 19 16 17 18 19 18 17 16 15 15 15 13 11 11 10 8 7 7
0 0 0 0 0 0 0 0 0 1 3 5 10 15 20 27 35 40 40 40 40 41 42 43 46 44 41 38 35 33 30 25 23 23 22 21 21 20 17 16 18 18 15 13 15 16 13 10 10
0 0 0 0 0 0 0 0 0 1 2 5 11 19 25 33 40 44 44 42 39 39 40 41 43 42 41 40 38 35 31 29 28 26 23 22 21 21 18 16 16 16 14 15 18 20 17 14 13
0 0 0 0 0 0 0 0 0 1 3 6 14 22 29 36 43 47 47 42 35 34 37 38 38 38 39 39 37 34 31 28 28 26 22 21 21 19 16 14 12 13 14 16 19 20 18 17 17
0 0 0 0 0 0 0 0 1 3 5 10 18 24 27 30 38 44 45 39 28 25 29 32 33 35 36 35 33 32 30 27 25 23 20 19 19 15 11 12 13 14 15 17 18 19 18 18 18
0 0 0 0 0 0 0 0 1 3 7 12 19 24 24 24 30 39 44 37 25 19 21 26 29 33 33 31 28 26 26 24 21 18 16 14 14 12 10 13 14 15 14 15 17 18 16 15 15
0 0 0 0 0 0 0 0 1 3 6 12 18 23 23 22 27 37 43 40 28 20 20 24 28 31 31 29 25 21 19 18 16 13 11 11 12 12 11 12 12 12 10 11 14 15 13 11 11
0 0 0 0 0 0 0 1 2 3 6 10 17 23 24 22 27 38 44 41 32 24 23 25 29 30 30 30 26 21 16 15 14 12 11 12 12 12 10 9 9 10 9 11 13 12 10 10 10

GEFSSGP_con_prob3kmehi_186.txt.gz
EHI
2 6 17 28 25 11 2 0 0 0 0 0 0 0 0 0 0 1 4 12 15 9 3 4 4 2 0 0 1 1 1 1 1 0 0 0 0 0 0 0 0 0 0 0 0 0 0 0 0
2 7 15 21 16 6 1 0 0 0 0 0 0 0 0 0 0 1 5 12 14 9 4 4 5 3 1 1 1 2 2 2 2 1 0 0 0 0 0 0 0 0 0 0 0 0 0 0 0
3 6 11 12 7 1 0 0 0 0 0 0 1 1 1 0 0 1 5 10 12 10 8 7 8 6 3 2 1 1 2 2 2 2 1 0 0 0 0 0 0 0 0 0 0 0 0 0 0
3 4 6 5 2 0 0 0 0 0 0 0 1 1 1 0 0 1 3 7 10 10 9 9 9 7 5 2 1 0 1 1 1 2 2 1 0 0 0 0 0 0 0 0 0 0 0 0 0
1 1 2 1 0 0 0 0 0 0 0 0 1 1 0 0 0 0 2 6 10 10 8 8 8 7 5 2 1 0 0 0 0 1 2 2 1 0 0 0 0 0 0 0 0 0 0 0 0
0 0 0 0 0 0 0 0 0 0 0 1 2 2 1 0 0 0 2 5 10 12 9 7 7 7 5 3 2 2 1 0 0 1 2 2 1 0 0 0 0 0 0 0 0 0 0 0 0
0 0 0 0 0 0 0 0 0 0 0 1 2 3 3 2 2 2 2 5 10 14 10 7 7 7 7 5 4 3 2 1 0 0 1 1 0 0 0 0 0 0 0 0 0 0 0 0 0
0 0 0 0 0 0 0 0 0 0 0 1 2 5 8 6 4 3 4 6 10 11 9 7 7 9 9 7 5 4 3 2 0 0 0 0 0 1 1 0 0 0 0 0 0 0 0 0 0
0 0 0 0 0 0 0 0 0 0 1 3 5 9 13 10 6 6 9 11 12 10 7 7 8 8 8 7 6 4 4 3 2 1 1 1 1 2 3 2 1 0 0 0 0 0 0 0 0
0 0 0 0 0 0 0 0 0 0 2 10 18 20 16 12 10 13 15 16 16 13 9 9 10 8 6 6 6 4 5 7 4 2 3 2 1 3 4 4 2 1 0 0 1 2 2 2 1
0 0 0 0 0 0 0 0 0 0 3 16 31 31 20 15 16 19 20 21 21 18 13 14 15 11 8 8 5 4 8 11 9 7 5 3 3 5 6 5 3 2 0 0 1 3 4 3 1
0 0 0 0 0 0 0 0 0 1 5 18 33 33 22 18 20 22 23 26 28 24 19 23 27 24 18 13 7 4 7 12 14 13 10 7 6 6 7 7 5 3 2 2 2 3 4 2 1
0 0 0 0 0 0 0 0 1 3 9 19 29 29 22 19 22 25 29 35 38 33 29 35 40 38 29 18 9 3 5 11 17 19 17 13 10 9 10 9 8 6 5 5 4 3 3 2 1
0 0 0 0 0 0 0 0 1 5 11 18 23 25 23 22 25 31 40 47 48 41 39 43 47 45 34 18 7 2 4 11 17 22 24 19 14 13 13 11 9 7 8 9 7 4 3 2 1
0 0 0 0 0 0 0 0 1 5 10 15 20 25 30 31 33 38 47 53 52 47 45 45 45 44 35 19 7 3 5 9 17 25 30 25 19 17 15 10 7 6 8 10 9 5 3 3 3
0 0 0 0 0 0 0 1 3 5 8 13 20 29 39 43 42 44 49 53 54 55 55 50 44 45 39 23 12 7 7 12 19 29 34 30 23 19 14 10 8 7 6 7 7 5 4 4 4
0 0 0 0 0 0 1 3 5 5 7 13 21 33 47 51 50 51 53 56 60 65 66 58 51 51 46 32 21 16 14 17 22 29 35 34 27 20 15 12 12 9 6 5 5 5 6 6 5
0 0 0 0 0 0 1 3 4 3 7 14 24 38 54 59 58 59 60 63 68 73 74 66 59 57 52 41 32 26 21 20 22 28 36 37 29 21 16 15 17 15 8 7 8 9 9 8 7
0 0 0 0 0 0 1 2 2 2 6 14 27 43 59 67 69 69 70 70 75 81 81 74 67 63 57 48 40 33 26 23 21 27 37 39 32 25 20 19 23 22 14 10 12 14 13 10 8
0 0 0 0 0 0 1 2 2 2 6 14 26 42 58 70 77 81 80 78 83 87 84 79 74 70 62 54 45 37 31 28 26 30 40 41 33 28 24 25 28 28 23 17 16 17 16 12 9
0 0 0 0 0 0 0 2 3 4 6 12 22 36 52 67 79 86 85 85 87 87 82 78 77 74 67 59 51 40 35 33 30 35 42 42 36 30 29 32 32 32 28 22 20 20 19 15 13
0 0 0 0 0 0 0 1 4 5 6 11 19 32 47 60 72 82 86 86 86 83 78 76 76 75 71 65 55 46 39 34 32 35 39 40 37 33 33 36 35 33 29 24 23 25 24 19 16
0 0 0 0 0 0 0 1 2 3 5 11 20 30 44 54 64 75 82 84 81 76 73 73 75 76 72 65 58 51 42 35 35 37 38 38 37 35 36 38 38 34 30 27 27 30 30 24 19
0 0 0 0 0 0 0 0 1 1 3 11 21 31 41 50 59 69 76 79 77 72 69 70 75 76 69 60 55 51 43 38 38 40 40 37 35 36 38 41 40 36 32 31 30 32 33 29 24
0 0 0 0 0 0 0 0 1 2 4 11 21 32 41 51 60 69 74 76 75 71 68 69 74 75 66 55 51 50 45 40 38 39 39 36 32 34 39 42 41 37 34 31 28 29 30 29 27
0 0 0 0 0 0 0 0 2 4 8 13 22 31 41 51 61 69 73 71 69 68 67 68 72 71 63 55 53 52 46 38 34 36 39 36 30 29 35 41 41 39 34 28 26 26 28 29 29
0 0 0 0 0 0 0 0 3 7 10 17 24 29 38 49 59 67 69 65 62 61 63 65 67 66 60 54 50 48 43 36 32 34 37 35 30 27 31 38 41 39 35 30 28 28 29 31 32
0 0 0 0 0 0 0 0 3 8 11 17 24 29 35 45 54 61 63 61 58 57 58 60 62 61 55 49 43 41 38 34 30 29 31 31 29 28 30 34 38 38 34 31 29 29 31 31 31
0 0 0 0 0 0 0 0 2 7 11 16 22 28 36 44 53 58 60 59 58 57 55 55 56 54 49 45 41 38 35 32 28 25 25 26 27 29 30 31 33 33 29 27 27 27 29 29 27
0 0 0 0 0 0 0 0 1 4 10 16 22 29 37 46 54 60 61 58 59 59 55 52 51 50 47 44 41 39 35 32 27 24 23 25 26 29 29 29 30 29 25 25 25 24 25 26 24

GEFSSGP_con_prob3kmehi_192.txt.gz
EHI
5 5 4 3 2 1 0 0 0 0 0 0 0 0 0 0 0 0 0 2 5 6 4 4 5 3 1 0 0 0 0 0 0 0 0 0 0 0 0 0 0 0 0 0 0 0 0 0 0
3 3 3 2 1 0 0 0 0 0 0 0 0 0 0 0 0 0 0 2 5 5 4 4 5 4 1 0 0 0 0 0 0 0 0 0 0 0 0 0 0 0 0 0 0 0 0 0 0
1 2 2 2 0 0 0 0 1 1 0 0 0 0 0 1 1 1 1 3 5 4 4 5 6 5 2 0 0 0 0 0 0 0 0 0 0 0 0 0 0 0 0 0 0 0 0 0 0
1 1 2 1 0 0 0 0 1 1 1 1 1 0 0 3 4 3 2 4 4 3 3 5 6 5 2 0 0 0 0 0 0 0 0 0 0 0 0 0 0 0 0 0 0 0 0 0 0
0 1 1 1 0 0 0 1 2 3 2 2 3 2 3 9 12 8 3 3 4 3 2 4 5 4 2 0 0 0 0 0 0 0 0 0 0 0 0 0 0 0 0 0 0 0 0 0 0
1 0 0 0 0 0 0 2 4 3 2 2 4 3 5 15 19 12 5 2 3 3 3 4 4 4 2 1 0 0 0 0 0 0 0 0 0 0 0 0 0 0 0 0 0 0 0 0 0
1 0 0 0 0 0 0 2 3 3 2 2 3 3 5 13 19 15 9 4 3 4 4 4 4 3 2 1 0 0 0 0 0 0 0 0 0 0 0 0 0 0 0 0 0 0 0 0 0
1 0 0 0 0 0 0 0 1 2 2 2 1 2 5 12 20 21 15 8 5 4 5 4 3 2 1 1 0 0 0 0 0 0 0 0 0 0 0 0 0 0 0 0 0 0 1 1 0
0 0 0 0 0 0 0 0 0 1 2 2 2 5 10 20 30 30 23 15 10 7 5 4 2 1 0 0 0 0 0 0 0 0 0 0 0 0 0 0 0 1 0 0 0 1 2 2 1
0 0 0 0 0 0 0 0 0 2 3 4 7 10 15 26 38 37 29 22 16 10 6 4 3 2 1 0 0 0 0 0 0 0 0 0 0 0 0 0 1 2 1 0 0 2 3 2 1
0 0 0 0 0 0 0 0 1 2 4 8 12 13 15 24 33 35 29 23 19 13 8 5 4 4 2 1 1 0 0 0 0 0 0 0 0 0 0 0 0 1 0 0 0 1 2 1 0
0 0 0 0 0 0 0 1 2 3 5 10 15 14 13 19 25 27 26 21 20 18 13 9 8 6 4 3 2 1 0 0 0 0 0 1 1 0 0 0 0 0 0 0 0 0 0 0 0
0 0 0 0 1 2 2 5 8 8 9 13 16 13 11 16 22 26 26 25 25 26 23 18 15 12 8 6 4 3 2 2 2 1 1 2 1 0 0 0 0 0 0 0 0 0 0 0 0
0 0 0 1 2 3 5 9 14 16 17 17 16 12 10 16 25 32 33 33 35 39 36 30 27 21 13 9 7 6 5 5 4 3 3 2 1 0 0 0 0 0 0 0 0 0 0 0 0
0 0 0 0 1 3 5 9 16 23 25 22 18 13 12 19 30 36 38 40 44 50 48 42 37 29 18 12 10 7 6 7 7 6 5 3 1 0 0 0 0 0 0 0 0 0 0 0 0
0 0 0 0 0 1 3 7 16 26 31 28 22 18 18 24 32 39 42 44 49 55 54 48 40 32 22 15 10 7 7 8 8 7 6 3 1 2 1 0 0 0 0 0 0 0 1 0 0
0 0 0 0 0 0 2 6 15 26 33 33 28 26 27 29 35 43 49 52 53 54 54 50 42 33 26 17 11 8 7 6 7 8 8 5 2 3 3 1 0 0 0 0 0 0 0 0 0
0 0 0 0 0 0 1 5 13 22 31 35 36 36 35 36 40 49 58 61 58 56 56 54 46 38 31 23 15 10 6 5 5 8 9 8 5 5 5 3 1 0 0 0 0 0 0 0 0
0 0 0 0 0 0 1 4 10 19 27 36 42 44 44 45 48 56 66 71 67 63 62 60 54 45 37 28 20 12 7 4 5 7 8 8 8 9 8 5 3 2 1 0 0 0 0 0 0
0 0 0 0 0 0 1 3 8 15 25 35 44 50 54 57 58 64 74 79 75 70 66 63 57 49 40 31 22 13 7 4 5 6 6 7 8 10 10 8 7 5 3 2 0 0 0 0 0
0 0 0 0 0 0 1 2 5 13 23 33 43 53 62 67 69 73 80 83 79 74 69 63 56 49 40 32 24 16 9 6 5 6 8 9 9 11 12 12 10 9 6 4 2 2 1 1 0
0 0 0 0 0 0 0 0 4 13 25 35 43 53 65 72 74 76 80 80 78 74 70 62 55 48 40 33 28 21 14 9 5 6 10 12 12 13 14 14 13 11 9 7 5 5 4 3 2
0 0 0 0 0 0 0 0 3 12 24 36 44 53 64 71 72 71 73 74 72 70 66 60 53 46 38 34 29 23 17 11 6 7 11 14 14 15 16 15 13 12 11 9 8 7 6 5 3
0 0 0 0 0 0 0 0 1 6 17 30 42 54 63 68 69 68 70 70 68 66 65 60 52 44 37 33 29 23 17 11 7 7 10 12 13 14 15 14 13 13 12 11 9 7 6 5 4
0 0 0 0 0 0 0 0 0 3 10 22 36 50 59 64 66 68 70 69 67 66 63 59 51 43 37 32 27 21 16 12 9 7 7 9 11 12 13 14 13 13 13 12 9 7 6 5 5
0 0 0 0 0 0 0 0 1 4 9 19 31 43 53 60 64 66 67 67 66 63 59 55 48 40 34 30 24 19 15 12 10 8 6 7 8 9 10 12 14 14 13 11 8 6 5 5 4
0 0 0 0 0 0 0 0 3 7 13 20 31 42 51 57 61 62 61 61 60 57 56 53 47 38 32 28 23 17 14 12 11 9 7 7 7 7 7 10 12 12 10 7 6 5 4 3 2
0 0 0 0 0 0 0 0 2 8 16 23 33 43 49 53 56 56 56 54 53 54 54 51 45 38 31 27 23 18 15 12 10 9 8 8 7 6 6 7 8 8 6 4 3 3 3 3 3
0 0 0 0 0 0 0 0 2 7 16 25 33 40 45 49 52 53 52 48 47 50 51 45 38 33 30 27 23 19 16 13 11 9 8 7 6 5 5 5 5 4 3 1 1 1 2 2 2
0 0 0 0 0 0 0 0 2 7 16 25 32 37 44 48 51 52 51 48 46 47 46 39 32 28 28 26 23 19 16 13 11 9 7 5 5 5 5 4 3 2 1 1 1 1 1 1 1

GEFSSGP_con_prob3kmehi_198.txt.gz
EHI
0 0 0 0 0 0 0 0 0 0 0 0 0 0 0 0 0 0 0 0 0 0 0 1 4 8 7 3 0 0 0 0 0 0 0 0 0 0 0 0 0 0 0 0 0 0 0 0 0
0 0 0 0 0 0 0 0 0 0 0 0 0 0 0 0 0 0 0 0 0 0 0 1 4 7 6 3 1 0 0 0 0 0 0 0 0 0 0 0 0 0 0 0 0 0 0 0 0
0 0 0 0 0 0 0 0 0 0 0 0 0 0 0 0 0 0 0 0 0 0 0 1 3 5 5 5 3 1 0 0 0 0 0 0 0 0 0 0 0 0 0 0 0 0 0 0 0
0 0 0 0 0 0 0 0 0 0 0 0 0 0 0 0 0 1 1 0 0 0 0 1 2 3 4 5 4 2 1 0 0 0 0 0 0 0 0 0 0 0 0 0 0 0 0 0 0
0 0 0 0 0 0 0 0 0 0 0 0 0 0 0 0 1 2 1 0 0 0 0 0 1 3 3 3 3 2 1 0 0 0 0 0 0 0 0 0 0 0 0 0 0 0 0 0 0
0 0 0 0 0 0 0 0 0 0 1 0 0 0 0 0 2 2 1 0 0 0 0 0 1 2 3 2 1 1 1 0 0 0 0 0 0 0 0 0 0 0 0 0 0 0 0 0 0
0 0 0 0 0 0 0 0 0 0 0 0 0 0 0 0 1 1 1 0 0 0 0 0 0 1 2 2 1 1 0 0 0 0 0 0 0 0 0 0 0 0 0 0 0 0 0 0 0
0 0 0 0 0 0 0 0 0 0 0 0 0 0 0 0 0 0 0 0 1 1 1 0 0 0 1 1 1 0 0 0 0 0 0 0 0 0 0 0 0 0 0 0 0 0 0 0 0
0 0 0 0 0 0 0 0 0 0 0 0 1 3 5 6 4 1 1 2 3 3 2 1 0 0 0 0 0 0 0 0 0 0 1 0 0 0 0 0 0 0 0 0 0 0 0 0 0
0 0 0 0 0 0 0 0 0 0 0 1 5 12 17 15 9 4 2 3 5 4 2 1 0 0 0 0 0 0 0 0 0 0 0 0 0 0 0 0 0 0 0 0 0 0 0 0 0
0 0 0 0 0 0 0 0 0 1 0 3 13 26 29 21 11 6 3 3 4 3 2 1 1 1 0 0 0 0 0 0 0 0 0 0 0 0 0 0 0 0 0 0 0 0 0 0 0
0 0 0 0 0 0 0 0 0 0 1 7 21 33 32 21 12 7 4 2 1 2 3 3 3 2 0 0 0 0 0 0 0 0 0 0 0 0 0 0 0 0 0 0 0 0 0 0 0
0 0 0 0 0 0 0 0 0 0 4 13 26 33 29 20 13 8 5 3 2 4 5 5 5 3 1 1 0 0 0 1 1 0 0 0 0 0 0 0 0 0 0 0 0 0 0 0 0
0 0 0 0 0 0 1 0 0 2 8 18 26 28 24 18 13 9 7 5 4 6 7 7 6 4 2 2 1 1 1 3 3 1 1 0 0 0 0 0 0 0 0 0 0 0 0 0 0
0 0 0 0 0 0 0 0 2 7 13 18 20 20 17 13 10 8 7 6 6 7 7 6 6 5 4 3 2 2 3 5 5 3 1 0 0 0 0 0 0 0 0 0 0 0 0 0 0
0 0 0 0 0 0 0 0 4 12 16 16 14 13 10 8 7 7 7 6 7 8 6 5 5 5 4 3 3 3 4 6 5 3 1 0 0 0 0 0 0 0 0 0 0 0 0 0 0
0 0 0 0 0 0 0 0 5 13 17 14 12 9 8 8 8 9 9 8 8 9 8 6 5 5 4 3 3 2 3 3 2 1 0 0 0 0 0 0 0 0 0 0 0 0 0 0 0
0 0 0 0 0 0 0 0 4 12 16 15 13 11 11 12 13 15 15 12 13 15 15 12 9 7 6 4 2 1 1 1 0 0 0 0 0 0 0 0 0 0 0 1 1 1 0 0 0
0 0 0 0 0 0 0 0 3 9 15 18 17 15 16 17 19 23 22 19 21 24 25 22 18 14 10 7 4 1 0 0 0 0 0 0 0 0 0 0 0 0 0 1 1 1 0 0 0
0 0 0 0 0 0 0 0 2 7 14 19 20 19 18 19 22 26 26 25 27 31 31 28 23 19 15 11 7 4 2 1 1 1 1 0 0 0 0 0 1 1 0 1 1 0 0 0 0
0 0 0 0 0 0 0 0 1 4 11 17 20 19 19 20 22 27 30 30 30 32 31 28 23 18 14 11 9 7 4 3 3 3 2 1 1 0 0 0 1 2 1 1 0 0 0 0 0
0 0 0 0 0 0 0 0 0 2 7 14 18 19 20 22 25 29 33 35 34 32 30 25 20 16 12 10 10 9 7 5 4 3 2 2 2 1 1 0 1 2 3 2 1 1 1 1 1
0 0 0 0 0 0 0 0 0 1 5 12 16 17 20 27 32 32 33 34 34 31 29 24 20 17 13 12 13 12 9 6 4 3 2 2 2 2 1 0 1 3 5 4 3 2 2 2 2
0 0 0 0 0 0 0 0 0 0 3 8 12 15 21 30 36 34 29 30 31 30 28 25 22 19 16 14 15 14 12 8 5 4 4 3 3 2 1 1 2 4 5 4 3 2 2 2 3
0 0 0 0 0 0 0 0 0 0 1 4 8 13 20 30 35 32 27 28 30 30 29 27 24 20 16 15 16 14 12 10 7 6 6 6 6 4 2 2 4 5 5 4 3 2 1 1 2
0 0 0 0 0 0 0 0 0 0 1 4 9 14 21 28 31 28 26 28 29 29 29 29 26 20 16 15 15 14 12 10 9 8 8 8 7 6 3 3 4 5 4 3 3 2 1 1 1
0 0 0 0 0 0 0 0 0 0 1 5 12 17 22 26 28 26 25 26 25 24 26 30 28 21 17 16 16 14 11 10 10 9 9 9 8 6 4 4 4 3 3 2 2 2 1 0 0
0 0 0 0 0 0 0 0 0 0 2 7 14 18 22 27 29 29 26 25 23 21 24 28 27 21 16 14 14 13 11 10 11 10 9 8 7 4 3 3 3 2 1 1 1 1 0 0 0
0 0 0 0 0 0 0 0 0 0 3 9 14 17 22 29 31 29 28 28 26 24 25 24 21 15 11 10 10 10 9 10 10 9 8 8 6 3 2 3 3 3 1 0 0 0 0 0 0
0 0 0 0 0 0 0 0 0 0 3 9 13 16 22 30 30 28 30 31 29 27 25 21 14 10 7 6 7 8 8 9 9 8 8 8 6 3 2 3 4 3 1 0 0 0 0 0 0

GEFSSGP_con_prob3kmehi_204.txt.gz
EHI
3 6 8 5 2 0 0 0 0 0 0 0 0 0 0 0 0 0 0 0 0 0 1 3 4 4 3 2 1 0 0 0 0 0 0 0 0 0 0 0 0 0 0 0 0 0 0 1 2
2 6 8 5 1 0 0 0 0 0 0 0 0 0 0 0 0 0 0 0 0 0 1 2 4 4 3 3 1 1 1 0 0 0 0 0 0 0 0 0 0 0 0 0 0 0 0 1 2
3 5 5 2 0 0 0 0 0 0 0 0 0 0 0 0 0 0 0 0 0 0 0 1 3 3 3 3 3 2 2 1 0 0 0 0 0 0 0 0 0 0 0 0 0 0 0 1 2
3 4 2 0 0 0 0 0 0 0 1 1 0 0 0 0 0 0 0 0 0 0 0 1 2 3 3 3 3 3 2 1 0 0 0 0 0 0 0 0 0 0 0 0 0 0 0 1 1
1 1 0 0 0 0 0 0 0 0 1 2 1 1 0 0 0 0 0 0 0 0 0 0 1 2 3 3 3 2 1 0 0 0 0 0 0 0 0 0 0 0 0 0 0 0 0 0 0
0 0 0 0 0 0 0 0 0 1 2 2 1 1 1 0 0 0 0 0 0 0 0 0 0 1 2 2 1 1 0 0 0 1 0 0 0 0 0 0 0 0 0 0 0 0 0 0 0
0 0 0 0 0 0 0 0 0 1 2 1 0 1 2 1 0 0 0 0 0 0 0 0 0 0 1 1 0 0 0 0 0 0 0 0 0 0 0 0 0 0 0 0 0 0 0 0 0
0 0 0 0 0 0 0 0 0 1 2 1 0 1 3 4 2 1 1 1 0 0 0 0 0 0 0 0 0 0 0 0 0 0 0 0 0 0 0 0 0 0 0 0 0 0 0 0 0
0 0 0 0 0 0 0 0 0 1 2 1 1 3 6 8 5 2 3 4 3 1 0 0 0 0 0 0 0 0 0 0 0 0 0 0 0 0 0 0 0 0 0 0 0 0 0 1 1
0 0 0 0 0 0 0 0 0 1 2 2 4 7 11 11 6 2 3 6 7 4 2 0 0 0 0 0 0 0 0 0 0 0 0 0 0 0 0 0 0 0 0 0 0 0 0 0 0
0 0 0 0 0 0 0 0 0 0 1 1 6 12 16 12 6 2 2 5 7 6 3 1 1 0 0 0 0 0 1 1 1 0 0 0 0 0 0 0 0 0 0 0 0 0 0 0 0
0 0 0 0 0 0 0 0 0 0 0 2 8 16 17 11 5 1 1 3 5 6 4 3 2 2 2 1 1 1 1 2 2 2 2 1 0 0 0 0 0 0 0 0 0 0 0 0 0
0 0 0 0 0 0 0 0 0 0 1 5 12 17 16 10 5 2 1 2 5 7 7 6 6 5 4 3 3 2 2 2 2 4 3 1 0 0 0 0 0 0 0 0 0 0 0 0 0
0 0 0 0 0 0 0 0 0 1 4 9 14 16 14 10 6 4 3 4 6 9 9 9 10 9 7 5 4 4 3 3 3 4 4 2 1 1 1 1 0 0 0 0 0 0 0 0 0
0 0 0 0 0 0 0 0 1 4 8 12 15 15 13 11 8 6 5 6 6 7 8 10 11 10 8 6 6 5 4 4 3 4 4 4 3 2 1 1 0 0 0 0 0 0 1 1 0
0 0 0 0 0 0 0 0 1 5 9 12 14 15 13 12 10 8 6 6 5 5 7 8 9 9 9 7 7 6 5 4 3 4 4 4 4 3 2 1 0 0 0 0 0 0 1 1 1
0 0 0 0 0 0 0 0 2 5 7 8 11 13 14 13 13 11 10 10 8 5 6 8 10 10 9 7 6 6 5 4 3 3 4 3 3 3 3 2 1 0 0 0 0 1 1 1 1
0 0 0 0 0 0 0 0 1 4 5 5 8 11 13 14 16 16 16 16 14 10 9 11 13 12 10 8 6 5 5 4 4 3 2 2 2 3 3 3 2 2 1 1 1 1 1 2 2
0 0 0 0 0 0 0 0 1 2 3 4 6 8 11 15 19 21 22 23 23 21 19 21 20 17 14 11 8 7 6 5 4 3 2 1 1 2 2 3 3 4 3 2 1 1 1 1 1
0 0 0 0 0 0 0 0 0 2 3 4 5 5 8 14 20 24 25 27 30 32 31 30 28 26 22 16 12 10 7 5 4 4 4 4 3 2 3 3 4 5 5 4 3 3 3 2 2
0 0 0 0 0 0 0 0 1 3 4 4 4 4 7 14 19 24 26 30 34 36 33 31 32 33 30 24 18 14 11 7 6 6 7 7 6 5 5 4 4 5 5 5 6 8 8 6 6
0 0 0 0 0 0 0 0 2 4 6 5 3 4 8 13 17 22 27 30 33 33 29 28 31 35 36 31 24 20 17 12 9 8 7 8 9 8 7 6 7 8 7 8 9 11 13 11 9
0 0 0 0 0 0 0 0 1 3 6 7 5 6 10 14 17 22 26 30 30 27 26 28 30 35 38 36 29 25 20 14 11 9 8 8 9 9 8 8 9 10 10 10 11 12 14 14 11
0 0 0 0 0 0 0 0 0 2 4 6 7 8 11 16 20 23 28 32 30 26 26 30 34 37 38 35 30 25 20 15 12 12 11 10 10 10 8 8 8 10 11 11 11 11 13 14 14
0 0 0 0 0 0 0 0 0 1 2 3 6 9 13 17 21 26 33 38 36 31 28 31 38 40 36 31 26 21 18 16 16 16 14 12 11 9 8 8 9 10 10 10 10 11 12 13 14
0 0 0 0 0 0 0 0 0 0 0 1 5 12 16 19 23 30 38 42 40 36 31 33 40 42 34 28 22 18 14 14 15 15 12 10 9 7 7 9 10 10 9 8 9 10 11 12 13
0 0 0 0 0 0 0 0 0 0 0 1 6 14 20 23 27 34 39 41 38 34 32 35 42 44 36 27 22 17 14 14 11 9 8 8 7 7 7 9 10 9 7 7 8 9 9 10 11
0 0 0 0 0 0 0 0 0 1 1 2 8 16 22 27 30 35 40 40 37 34 35 39 45 46 39 29 21 16 15 14 10 6 5 6 8 9 9 9 9 8 7 7 8 8 7 8 9
0 0 0 0 0 0 0 0 0 0 1 4 9 17 23 27 31 35 39 39 36 36 38 41 45 45 39 30 21 15 14 14 10 7 6 7 8 9 9 9 8 7 7 8 9 8 7 7 8
0 0 0 0 0 0 0 0 0 0 1 4 10 17 23 27 31 35 38 37 35 37 39 41 43 43 37 30 21 15 14 13 9 8 8 9 8 8 8 8 8 7 7 10 11 9 7 7 7